[[[{"header":{"parameterUnit":"kt","parameterCategory":2,"dx":1,"dy":1,"la1":29.587661999999998,"la2":31.0,"lo1":-88.76705300000003,"lo2":-86.6583820000003,"nx":115,"ny":88,"refTime":"2022-10-26T00:00:00:Z","depth":0,"parameterNumber":1,"parameterNumberName":"U-component_of_WINDS"},"data":[11.1723,11.0765,11.0525,11.0382,11.0382,11.0382,11.0382,11.0382,11.0382,11.0382,11.0382,11.0382,11.0382,11.0382,11.0562,11.0885,11.1304,11.2262,11.2621,11.3076,11.4273,11.5446,11.6523,11.7301,11.7455,11.7814,11.8173,11.8173,11.8173,11.8173,11.8173,11.8173,11.8173,11.8173,11.8173,11.8173,11.8173,11.8173,11.8114,11.8139,11.8054,11.8054,11.8173,11.8173,11.8199,11.8575,11.8925,11.9074,11.9545,12.0123,12.0914,12.1574,12.2145,12.2617,12.2969,12.3543,12.4349,12.4886,12.556,12.6291,12.707,12.7554,12.7916,12.79,12.7673,12.771,12.736,12.6535,12.6417,12.6169,12.542,12.5036,12.4969,12.5322,12.5523,12.5938,12.5901,12.5688,12.5389,12.4768,12.403,12.3628,12.3628,12.3628,12.3628,12.3628,12.3628,12.3628,12.3628,12.3628,12.3628,12.3628,12.3628,12.3628,12.3628,12.3628,12.3628,12.3628,12.3628,12.3628,12.3628,12.3628,12.3628,12.3628,12.3628,12.3628,12.3628,12.3628,12.3628,12.3628,12.3628,12.3628,12.3628,12.3628,12.3628,11.2322,11.1962,11.0885,11.0382,11.0382,11.0382,11.0382,11.0382,11.0382,11.0382,11.0525,11.0525,11.0382,11.0801,11.146,11.1902,11.2501,11.3555,11.4692,11.5266,11.5829,11.6643,11.7361,11.784,11.7874,11.8054,11.8173,11.8173,11.8173,11.8173,11.8173,11.8173,11.8173,11.8173,11.8173,11.8173,11.8173,11.8173,11.8173,11.8173,11.8173,11.8173,11.8173,11.8173,11.8274,11.8725,11.9287,11.9829,12.055,12.1372,12.2396,12.2984,12.3497,12.4034,12.4377,12.485,12.5614,12.628,12.6852,12.7737,12.8584,12.9355,12.9904,12.9889,12.9411,12.9389,12.9494,12.9302,12.9415,12.8991,12.7986,12.7401,12.7401,12.7468,12.762,12.7803,12.7181,12.6663,12.6194,12.5639,12.4701,12.378,12.3646,12.3628,12.3628,12.3628,12.3628,12.3628,12.3628,12.3628,12.3628,12.3628,12.3628,12.3628,12.3628,12.3628,12.3628,12.3628,12.3628,12.3628,12.3628,12.3628,12.3628,12.3628,12.3628,12.3628,12.3628,12.3628,12.3628,12.3628,12.3628,12.3628,12.3628,12.3628,12.3628,11.3674,11.2262,11.0944,11.0382,11.0382,11.0382,11.0382,11.0382,11.0382,11.0825,11.1423,11.1543,11.1938,11.2776,11.3136,11.3435,11.3674,11.4787,11.5745,11.6463,11.6822,11.7635,11.7874,11.8054,11.8173,11.8173,11.8173,11.8173,11.8173,11.8173,11.8173,11.8173,11.8173,11.8173,11.8173,11.8173,11.8173,11.8173,11.8173,11.8173,11.8173,11.8173,11.8173,11.8173,11.8349,11.8825,11.9336,11.9804,12.0683,12.1898,12.3054,12.3705,12.4759,12.5435,12.5793,12.6148,12.672,12.7501,12.7971,12.8668,12.9524,13.0178,13.0717,13.1095,13.0695,13.0879,13.0984,13.0353,13.0466,13.0083,12.9077,12.8675,12.8608,12.8876,12.901,12.923,12.8876,12.8272,12.7669,12.6846,12.5505,12.4499,12.3914,12.3829,12.3628,12.3628,12.3628,12.3628,12.3628,12.3628,12.3628,12.3628,12.3628,12.3628,12.3628,12.3628,12.3628,12.3628,12.3628,12.3628,12.3628,12.3628,12.3628,12.3628,12.3628,12.3628,12.3628,12.3628,12.3628,12.3628,12.3628,12.3628,12.3628,12.3628,12.3695,11.5087,11.3171,11.1519,11.0645,11.0465,11.0382,11.0382,11.0406,11.0681,11.1423,11.2322,11.2741,11.3315,11.4093,11.4488,11.4727,11.5051,11.6044,11.6583,11.7181,11.7575,11.8054,11.8173,11.8173,11.8173,11.8173,11.8173,11.8173,11.8173,11.8173,11.8173,11.8173,11.8173,11.8173,11.8173,11.8173,11.8173,11.8173,11.8173,11.8173,11.8173,11.8173,11.8173,11.8173,11.8274,11.875,11.9361,11.9804,12.0731,12.2064,12.3101,12.4326,12.5704,12.6457,12.6873,12.7155,12.778,12.827,12.8838,12.9565,13.0239,13.0843,13.1359,13.1752,13.2044,13.2257,13.1989,13.1204,13.0686,13.015,12.9681,12.9546,12.9479,12.9815,13.015,13.0485,13.0753,13.015,12.9461,12.8053,12.6377,12.5371,12.4432,12.403,12.3762,12.3628,12.3628,12.3628,12.3628,12.3628,12.3628,12.3628,12.3628,12.3628,12.3628,12.3628,12.3628,12.3628,12.3695,12.3695,12.3628,12.3628,12.3628,12.3628,12.3628,12.3628,12.3628,12.3628,12.3628,12.3628,12.3628,12.3628,12.3628,12.3914,12.3896,11.6104,11.5625,11.3255,11.1543,11.0525,11.0406,11.0465,11.0502,11.1759,11.2322,11.2741,11.3674,11.4333,11.4991,11.5685,11.6044,11.6463,11.7181,11.766,11.8054,11.8173,11.8173,11.8173,11.8173,11.8173,11.8173,11.8173,11.8173,11.8173,11.8173,11.8173,11.8173,11.8173,11.8173,11.8173,11.8173,11.8173,11.8173,11.8173,11.8173,11.8173,11.8173,11.8173,11.8173,11.8324,11.8615,11.941,12.005,12.072,12.2231,12.3427,12.4303,12.5681,12.6829,12.7759,12.8291,12.8692,12.9026,12.94,13.0219,13.0889,13.13,13.1802,13.2093,13.219,13.2305,13.2344,13.1826,13.1625,13.1223,13.1022,13.0888,13.0888,13.1089,13.129,13.1424,13.1606,13.1338,13.0734,12.9729,12.7986,12.6041,12.517,12.3963,12.3628,12.3628,12.3628,12.3628,12.3628,12.3628,12.3628,12.3628,12.3628,12.3628,12.3695,12.3896,12.3762,12.3695,12.3762,12.3762,12.3628,12.3628,12.3628,12.3628,12.3628,12.3628,12.3628,12.3628,12.3628,12.3628,12.3628,12.3628,12.3829,12.4182,12.4585,11.6917,11.6044,11.4249,11.2776,11.1543,11.0741,11.14,11.2717,11.3255,11.4034,11.4668,11.5266,11.59,11.6523,11.7061,11.7361,11.7421,11.7934,11.8173,11.8173,11.8173,11.8233,11.8173,11.8173,11.8353,11.8173,11.8173,11.8473,11.8173,11.8173,11.8173,11.8173,11.8173,11.8173,11.8173,11.8173,11.8173,11.8173,11.8173,11.8173,11.8173,11.8173,11.8173,11.8173,11.8173,11.88,11.9558,11.9706,12.0828,12.2514,12.3373,12.4303,12.5704,12.6807,12.7716,12.8838,12.9276,12.9569,12.9795,13.0689,13.1089,13.1379,13.1841,13.2228,13.2344,13.2344,13.2344,13.2344,13.2344,13.2344,13.2344,13.2344,13.2344,13.2344,13.2344,13.2344,13.2344,13.2344,13.1807,13.1089,12.9528,12.7449,12.5706,12.4365,12.3628,12.3628,12.3628,12.3628,12.3628,12.3628,12.3628,12.3628,12.3628,12.3628,12.4097,12.4383,12.4231,12.4097,12.4231,12.4231,12.3695,12.3628,12.3628,12.3628,12.3628,12.3628,12.3628,12.3628,12.3695,12.3628,12.3628,12.4585,12.5389,12.5474,12.5993,11.7509,11.6702,11.5386,11.4333,11.3315,11.2118,11.2561,11.4273,11.4727,11.5266,11.6283,11.6643,11.7156,11.8114,11.8173,11.8114,11.8114,11.8173,11.8173,11.8413,11.8712,11.8712,11.8951,11.931,11.937,11.943,11.943,11.9609,11.931,11.8772,11.8772,11.8233,11.8173,11.8173,11.8173,11.8173,11.8173,11.8173,11.8173,11.8173,11.8173,11.8173,11.8173,11.8173,11.8173,11.86,11.9347,11.9583,12.0537,12.2231,12.3163,12.4143,12.557,12.6546,12.763,12.888,12.9503,12.9852,12.9995,13.0683,13.1181,13.134,13.1966,13.2247,13.2344,13.2344,13.2344,13.2344,13.2344,13.2344,13.2344,13.2344,13.2344,13.2344,13.2344,13.2344,13.2344,13.2344,13.2276,13.1606,13.1204,12.9125,12.6931,12.5456,12.4097,12.3829,12.3628,12.3628,12.3628,12.3628,12.3628,12.3628,12.3628,12.3628,12.403,12.5188,12.4835,12.4634,12.5036,12.517,12.4634,12.4097,12.3762,12.3628,12.3628,12.3628,12.3798,12.3829,12.3963,12.3896,12.4566,12.5993,12.7084,12.7218,12.7669,11.7719,11.7909,11.6702,11.6044,11.584,11.4668,11.4273,11.4488,11.5685,11.6199,11.6343,11.76,11.7994,11.8114,11.8318,11.8378,11.8413,11.8558,11.8592,11.8832,11.9669,11.9909,12.0447,12.096,12.09,12.1438,12.1319,12.0541,12.1413,11.9943,11.8891,11.8413,11.8173,11.8353,11.8532,11.8712,11.8891,11.8951,11.8951,11.8832,11.8592,11.8413,11.8413,11.8173,11.8224,11.8525,11.8975,11.952,12.0318,12.1478,12.2797,12.3936,12.508,12.6327,12.7415,12.8437,12.94,12.9709,12.9975,13.0703,13.1102,13.1399,13.2005,13.2228,13.2344,13.2344,13.2344,13.2344,13.2344,13.2344,13.2344,13.2344,13.2344,13.2344,13.2344,13.2344,13.2344,13.2344,13.2344,13.2142,13.174,13.0351,12.8004,12.6261,12.4835,12.4298,12.3628,12.3628,12.3628,12.3628,12.3695,12.378,12.4066,12.3914,12.4701,12.5974,12.5974,12.5993,12.6243,12.6645,12.5572,12.5054,12.5054,12.4835,12.4164,12.4102,12.4765,12.4881,12.4688,12.5237,12.6041,12.7401,12.901,12.9144,12.9345,11.7516,11.7574,11.6638,11.6224,11.6283,11.6702,11.6882,11.6942,11.7276,11.7515,11.7575,11.7934,11.8173,11.8473,11.9011,11.943,11.9524,12.0268,12.0661,12.0806,12.1259,12.1319,12.1498,12.1797,12.1917,12.09,12.0661,12.0421,12.0003,11.9165,11.8772,11.8413,11.8173,11.8592,11.9464,12.0122,12.0541,12.0421,12.0302,12.0122,11.9584,11.9225,11.9011,11.8473,11.8249,11.84,11.885,11.9322,11.989,12.1094,12.224,12.3272,12.4786,12.6084,12.7221,12.8291,12.913,12.9503,12.9975,13.0683,13.1261,13.1537,13.2016,13.2324,13.2344,13.2344,13.2344,13.2344,13.2344,13.2344,13.2344,13.2344,13.2344,13.2344,13.2344,13.2296,13.2296,13.2344,13.2344,13.2344,13.1874,13.0284,12.8474,12.7066,12.5706,12.4701,12.3762,12.3628,12.3628,12.3762,12.3847,12.4639,12.523,12.5596,12.6316,12.7218,12.7401,12.7334,12.787,12.8541,12.7602,12.6462,12.6596,12.6529,12.5786,12.5487,12.5942,12.6485,12.6755,12.7267,12.787,12.9144,13.0619,13.1089,13.129,11.7057,11.738,11.6815,11.6708,11.7037,11.7814,11.8173,11.8173,11.8173,11.8173,11.8173,11.8173,11.8353,11.9011,11.9729,12.0302,12.078,12.1917,12.2096,12.2096,12.2575,12.2695,12.2728,12.2728,12.2369,12.1558,12.084,12.0421,11.9225,11.925,11.9011,11.8652,11.8652,11.8951,12.0122,12.1319,12.2096,12.2096,12.2037,12.1738,12.0866,12.0302,11.9729,11.8951,11.8413,11.8384,11.86,11.896,11.9545,12.0537,12.1454,12.2664,12.4257,12.5391,12.6698,12.8057,12.8734,12.9234,12.9914,13.0643,13.134,13.1752,13.2093,13.2324,13.2344,13.2344,13.2344,13.2344,13.2344,13.2344,13.2344,13.2344,13.2008,13.2008,13.2344,13.2296,13.2181,13.2162,13.2344,13.2344,13.2344,13.0955,12.9882,12.8656,12.7181,12.606,12.5993,12.5724,12.5353,12.517,12.5085,12.6047,12.6706,12.7243,12.7896,12.8626,12.8943,12.8809,12.9297,12.9882,12.9297,12.8157,12.793,12.765,12.7171,12.6814,12.7029,12.7383,12.8238,12.9278,12.9997,13.107,13.1606,13.1941,13.2344,11.6364,11.7338,11.7355,11.7719,11.8158,11.8208,11.8233,11.8173,11.8173,11.8173,11.8173,11.8413,11.9011,11.9883,12.0541,12.1319,12.2037,12.2396,12.2635,12.2994,12.3712,12.3925,12.3925,12.3625,12.3147,12.3506,12.2216,12.1199,12.1199,11.9909,11.9669,11.937,11.9011,11.9191,12.0242,12.1558,12.2216,12.225,12.2429,12.2429,12.1951,12.1173,12.0721,11.9943,11.9191,11.8652,11.8734,11.884,11.9198,12.0001,12.0852,12.2159,12.3659,12.4713,12.6059,12.7716,12.8247,12.9005,12.9791,13.0683,13.1359,13.1869,13.2151,13.2344,13.2344,13.2344,13.2344,13.2344,13.2344,13.2344,13.2344,13.2276,13.1673,13.1539,13.2142,13.2296,13.1932,13.1797,13.2162,13.2344,13.2344,13.2142,13.1204,13.0131,12.8541,12.8004,12.8071,12.7919,12.7546,12.7394,12.7271,12.7796,12.812,12.8742,12.9364,13.0083,13.0351,13.0351,13.0418,13.0619,13.0217,12.9748,12.9264,12.8579,12.8426,12.8547,12.8432,12.8227,12.9551,13.0802,13.174,13.2008,13.2209,13.2344,13.2344,11.6105,11.686,11.721,11.8,11.8987,11.9431,11.9011,11.8293,11.8233,11.8173,11.8233,11.9191,11.9823,12.0601,12.1797,12.3087,12.3506,12.425,12.4755,12.4875,12.4875,12.4788,12.437,12.3771,12.2934,12.1438,12.0721,12.0122,11.9609,11.9011,11.9011,11.9191,11.9285,12.0242,12.1678,12.3592,12.4935,12.4935,12.4788,12.4549,12.3506,12.2908,12.2489,12.1379,12.0268,11.9644,11.9481,11.8974,11.9141,11.9814,12.0525,12.1755,12.3218,12.46,12.5751,12.6982,12.8014,12.8796,12.9544,13.0508,13.1458,13.1966,13.2247,13.2324,13.2344,13.2344,13.2344,13.2344,13.2344,13.2344,13.2344,13.2344,13.1874,13.1405,13.2008,13.2104,13.174,13.1797,13.2094,13.2344,13.2344,13.2276,13.1472,13.0869,12.9748,12.9546,12.9345,12.8857,12.8868,12.8994,12.909,12.9348,12.9586,13.0141,13.0764,13.1051,13.1357,13.129,13.129,13.1405,13.1472,13.1606,13.1214,13.0382,13.0095,13.0248,13.0104,12.9852,13.082,13.2037,13.2123,13.2209,13.2344,13.2344,13.2344,11.6452,11.7059,11.7894,11.8909,12.013,12.0468,12.0216,11.9738,11.9669,11.9704,11.9849,12.0481,12.1139,12.1917,12.3506,12.4224,12.4968,12.5832,12.5979,12.6072,12.5533,12.4848,12.3891,12.2848,12.1797,12.0481,11.9584,11.8832,11.8233,11.8353,11.8353,11.9011,11.9729,12.1139,12.2549,12.419,12.5354,12.5772,12.5952,12.5832,12.4788,12.443,12.3625,12.2728,12.1558,12.096,12.0661,11.9584,11.9728,12.015,12.0219,12.1505,12.3007,12.408,12.5349,12.6763,12.7907,12.8692,12.9403,13.0487,13.134,13.1927,13.217,13.2344,13.2344,13.2344,13.2344,13.2344,13.2344,13.2344,13.2344,13.2344,13.2142,13.1874,13.1721,13.1778,13.1798,13.1989,13.2257,13.2344,13.2344,13.2344,13.1941,13.1539,13.1223,13.0888,13.0284,12.9863,13.0171,13.0344,13.0621,13.0965,13.1013,13.1501,13.1654,13.1941,13.2276,13.2209,13.2209,13.2075,13.2008,13.2344,13.2257,13.2085,13.1625,13.1424,13.1271,13.1262,13.1501,13.2104,13.2276,13.2344,13.2344,13.2344,13.2344,11.7119,11.7804,11.9205,12.0435,12.1332,12.1411,12.1693,12.1712,12.1917,12.1771,12.1678,12.2096,12.2549,12.3685,12.4164,12.5028,12.6072,12.6158,12.5952,12.5447,12.4702,12.3951,12.2814,12.1498,12.0182,11.9644,11.9011,11.8473,11.8173,11.8353,11.9191,12.0148,12.0746,12.2037,12.3386,12.4489,12.5354,12.5979,12.6158,12.6012,12.5653,12.5028,12.4283,12.3891,12.2994,12.2216,12.2156,12.096,12.0633,12.1304,12.0775,12.1232,12.2718,12.3774,12.4899,12.6369,12.7587,12.8523,12.9279,13.0265,13.1003,13.1399,13.183,13.2247,13.2344,13.2344,13.2344,13.2344,13.2344,13.2344,13.2344,13.2276,13.1874,13.1759,13.1874,13.1865,13.1932,13.2171,13.2276,13.2344,13.2344,13.2344,13.2075,13.2008,13.1759,13.1692,13.1137,13.1003,13.131,13.1424,13.1836,13.2075,13.219,13.2257,13.2363,13.2344,13.2344,13.2344,13.2344,13.2344,13.2344,13.2344,13.2344,13.219,13.2171,13.2257,13.2257,13.1999,13.1912,13.219,13.2344,13.2344,13.2344,13.2344,13.2344,11.7461,11.8702,12.1356,12.231,12.2102,12.2584,12.2554,12.219,12.2216,12.2156,12.2096,12.2216,12.2848,12.3984,12.5088,12.5653,12.6158,12.6158,12.5533,12.4788,12.3984,12.2848,12.1558,12.0721,11.9609,11.8592,11.8293,11.8293,11.8532,11.9071,11.9729,12.0182,12.1857,12.3293,12.4164,12.4968,12.5593,12.6158,12.6158,12.6158,12.6098,12.5713,12.5593,12.5147,12.443,12.3506,12.3326,12.2328,12.1525,12.1845,12.1393,12.1686,12.2801,12.3606,12.4622,12.5907,12.735,12.8291,12.9005,13.0,13.0789,13.1268,13.1674,13.2074,13.2267,13.2344,13.2344,13.2344,13.2344,13.2344,13.2344,13.2344,13.2008,13.2027,13.2094,13.2037,13.2018,13.219,13.2344,13.2344,13.2344,13.2344,13.2344,13.2344,13.2344,13.2344,13.2344,13.2276,13.2257,13.219,13.2449,13.2554,13.2602,13.2602,13.2516,13.2344,13.2344,13.2344,13.2344,13.2344,13.2344,13.2344,13.2344,13.2344,13.2344,13.2344,13.2344,13.2344,13.2344,13.2344,13.2344,13.2344,13.2344,13.2344,13.2344,11.8427,11.9793,12.2163,12.3123,12.3244,12.3538,12.3743,12.3785,12.3831,12.3831,12.3858,12.3831,12.4217,12.4968,12.5713,12.6158,12.6012,12.5473,12.4729,12.4164,12.2755,12.1472,12.0242,11.955,11.9071,11.8353,11.8173,11.8293,11.9131,11.9849,12.09,12.1857,12.3233,12.4224,12.5147,12.5772,12.6098,12.6158,12.6158,12.6158,12.6158,12.6158,12.6158,12.6098,12.5594,12.534,12.5086,12.423,12.3733,12.3689,12.2457,12.264,12.3435,12.3856,12.4463,12.5793,12.7112,12.8036,12.8563,12.9918,13.0689,13.1208,13.1556,13.19,13.2228,13.2344,13.2344,13.2344,13.2344,13.2344,13.2344,13.2344,13.2344,13.2344,13.2276,13.2257,13.2257,13.2344,13.2344,13.2344,13.2344,13.2344,13.2344,13.2411,13.2478,13.2765,13.3033,13.3368,13.3503,13.3579,13.3646,13.3494,13.3312,13.3216,13.3129,13.288,13.3033,13.2899,13.2899,13.2612,13.2478,13.2411,13.2344,13.2344,13.2516,13.2516,13.2344,13.2344,13.2344,13.2344,13.2344,13.2344,13.2344,13.2344,13.2344,11.9707,12.0812,12.212,12.3342,12.4278,12.4329,12.5017,12.5958,12.5919,12.6158,12.5859,12.6039,12.5979,12.6098,12.6131,12.6012,12.5533,12.4729,12.3865,12.2874,12.1379,12.0302,11.9644,11.8652,11.8353,11.8233,11.8173,11.8951,11.9823,12.0567,12.1917,12.3446,12.413,12.4848,12.5772,12.6098,12.6158,12.6158,12.6158,12.6158,12.6158,12.6158,12.6212,12.64,12.6574,12.6719,12.6577,12.635,12.6019,12.6165,12.4423,12.3989,12.4528,12.4573,12.5034,12.5971,12.7112,12.8164,12.8689,12.9729,13.0629,13.1049,13.1419,13.1908,13.2179,13.2247,13.2344,13.2344,13.2344,13.2344,13.2344,13.2344,13.2344,13.2344,13.2344,13.2344,13.2344,13.2344,13.2344,13.2344,13.2344,13.2344,13.2899,13.2832,13.2765,13.3368,13.3905,13.4595,13.5092,13.5565,13.5774,13.5168,13.4844,13.4636,13.4473,13.4011,13.3905,13.3637,13.3368,13.3014,13.288,13.2765,13.2612,13.2612,13.2861,13.2947,13.2535,13.2344,13.2344,13.2344,13.2344,13.2344,13.2411,13.2344,13.2344,12.0463,12.0812,12.212,12.3342,12.4337,12.442,12.5076,12.5997,12.6158,12.6158,12.6158,12.6158,12.6158,12.6158,12.6039,12.5533,12.4403,12.4164,12.2755,12.1379,12.0242,11.9464,11.8832,11.8233,11.8173,11.8173,11.8318,11.8891,12.0481,12.2037,12.3267,12.4224,12.5354,12.5952,12.6072,12.6158,12.6158,12.6158,12.6158,12.6158,12.6158,12.6185,12.6319,12.674,12.6873,12.7244,12.7632,12.7773,12.7816,12.7427,12.6982,12.6537,12.577,12.574,12.6238,12.6868,12.7779,12.8544,12.9068,12.9816,13.026,13.0789,13.1149,13.1478,13.1869,13.2237,13.2344,13.2344,13.2344,13.2344,13.2344,13.2344,13.2344,13.2344,13.2344,13.2344,13.2344,13.2344,13.2344,13.2602,13.2344,13.2966,13.4106,13.424,13.4441,13.4978,13.5648,13.6271,13.65,13.7132,13.7627,13.6917,13.6425,13.6191,13.5528,13.5064,13.4911,13.4777,13.4508,13.424,13.3838,13.3522,13.309,13.3032,13.3388,13.3897,13.2823,13.2344,13.3033,13.3234,13.2631,13.2612,13.3167,13.3301,13.3349,12.1045,12.1713,12.2353,12.3342,12.431,12.442,12.5076,12.6051,12.6158,12.6158,12.6158,12.6158,12.6158,12.6158,12.6158,12.5354,12.3891,12.2908,12.1438,12.0387,11.949,11.8772,11.8268,11.8173,11.8173,11.8353,11.8951,12.0122,12.2037,12.3472,12.4283,12.4968,12.5713,12.6158,12.6158,12.6218,12.6158,12.6158,12.6158,12.6158,12.6158,12.6158,12.6453,12.7059,12.764,12.8242,12.8701,12.9448,12.9829,12.9536,12.9349,12.8596,12.8244,12.8311,12.8934,12.8684,12.8766,12.905,12.9279,12.9606,13.0036,13.0568,13.1009,13.1359,13.1772,13.2074,13.2324,13.2344,13.2344,13.2344,13.2344,13.2344,13.2344,13.2344,13.2344,13.2344,13.2344,13.2344,13.288,13.3552,13.3465,13.4039,13.5198,13.5917,13.6185,13.6721,13.7392,13.766,13.7861,13.8679,13.9602,13.894,13.839,13.7725,13.6417,13.6204,13.6137,13.6137,13.5984,13.5782,13.5534,13.5383,13.4816,13.4333,13.4662,13.5519,13.4703,13.4088,13.4366,13.4662,13.4528,13.4508,13.4441,13.4508,13.4844,12.1654,12.2672,12.2672,12.3342,12.4337,12.442,12.5076,12.6024,12.6158,12.6158,12.6158,12.6158,12.6158,12.6012,12.6012,12.5174,12.3625,12.1678,12.0148,11.9524,11.8832,11.8353,11.8173,11.8173,11.8353,11.8832,12.0268,12.1857,12.3386,12.437,12.5088,12.5892,12.6158,12.6131,12.6218,12.6431,12.6697,12.673,12.667,12.667,12.661,12.6425,12.648,12.7218,12.8477,12.934,12.9892,13.1042,13.196,13.1982,13.1584,13.1029,13.0836,13.1659,13.1425,13.0478,12.9926,12.9651,12.951,12.9688,13.0016,13.0487,13.0969,13.134,13.1693,13.2121,13.2305,13.2344,13.2344,13.2344,13.2344,13.2344,13.2344,13.2344,13.2344,13.2344,13.2344,13.2449,13.2861,13.4118,13.4616,13.5045,13.6319,13.7258,13.7861,13.8532,13.9068,13.9336,13.9403,14.01,14.0776,14.0476,14.0108,13.8793,13.7613,13.768,13.7747,13.7948,13.766,13.7479,13.7183,13.712,13.7088,13.679,13.6897,13.6899,13.6701,13.6432,13.6267,13.5822,13.6204,13.6674,13.6137,13.5648,13.6051,12.2497,12.2672,12.2672,12.3342,12.4337,12.4447,12.5076,12.6051,12.6158,12.6158,12.6158,12.6158,12.6158,12.5892,12.5028,12.437,12.3326,12.1319,11.949,11.8832,11.8318,11.8233,11.8233,11.8413,11.8891,12.0088,12.1977,12.3293,12.431,12.5174,12.5772,12.6098,12.6218,12.6371,12.655,12.7149,12.7807,12.778,12.778,12.7807,12.7747,12.6909,12.7054,12.789,12.9223,13.0077,13.0803,13.1861,13.2719,13.3131,13.3851,13.4168,13.427,13.4422,13.3687,13.1422,13.1244,13.0907,13.0435,13.0054,13.007,12.9934,13.0749,13.1248,13.1638,13.2195,13.2515,13.2545,13.2344,13.2344,13.2344,13.2344,13.2344,13.2344,13.2344,13.2344,13.2344,13.2363,13.3168,13.4406,13.5173,13.6339,13.766,13.8733,13.9558,14.0295,14.0698,14.0966,14.0966,14.1214,14.1126,14.0919,14.0805,13.9826,13.9625,13.9692,13.9893,13.9826,13.9356,13.9001,13.8686,13.8438,13.8156,13.8363,13.845,13.7928,13.7657,13.7879,13.7638,13.6867,13.7143,13.7814,13.7613,13.6942,13.7009,12.2672,12.2672,12.2672,12.3147,12.3896,12.4282,12.4913,12.5587,12.5997,12.6158,12.6158,12.6158,12.6158,12.6039,12.4702,12.3566,12.2669,12.096,11.943,11.8413,11.8173,11.8173,11.8233,11.8891,11.9883,12.1233,12.3147,12.443,12.5088,12.5805,12.6218,12.6158,12.6909,12.7089,12.7361,12.8438,12.9096,12.9155,12.9155,12.9096,12.9096,12.8525,12.877,12.9894,13.0881,13.1309,13.1615,13.2913,13.3946,13.4727,13.5751,13.6476,13.6514,13.6083,13.5319,13.407,13.3522,13.2643,13.2091,13.1562,13.132,13.224,13.2271,13.2747,13.3381,13.3484,13.3646,13.3436,13.2966,13.2344,13.2344,13.2344,13.2344,13.2344,13.2344,13.2344,13.2344,13.2363,13.3177,13.5182,13.5679,13.7364,13.9021,14.0027,14.0765,14.0765,14.1167,14.1234,14.1301,14.1301,14.1301,14.1301,14.1301,14.1301,14.1301,14.1301,14.1301,14.0899,14.0429,14.0074,13.9873,13.959,13.9241,13.9731,14.0153,13.9484,13.9034,13.9464,13.9444,13.9021,13.882,13.9088,13.9155,13.8887,13.8753,12.2672,12.2672,12.2672,12.2979,12.3509,12.4145,12.469,12.5229,12.5916,12.6158,12.6158,12.6158,12.6158,12.6072,12.4669,12.3267,12.2096,12.078,11.9404,11.8293,11.8173,11.8233,11.8891,11.9943,12.1199,12.2575,12.3831,12.5028,12.5832,12.6072,12.6278,12.667,12.7567,12.8226,12.8617,12.9754,13.0472,13.0472,13.0472,13.0472,13.0384,13.014,13.0332,13.1471,13.1917,13.2067,13.2322,13.3851,13.5171,13.605,13.7136,13.7805,13.7742,13.7262,13.6713,13.6011,13.5178,13.465,13.4208,13.3245,13.3092,13.4175,13.4069,13.4324,13.5468,13.53,13.5187,13.4911,13.3771,13.31,13.2966,13.2698,13.2411,13.2344,13.2344,13.2344,13.2344,13.2344,13.3512,13.5475,13.648,13.7814,14.0228,14.0631,14.1167,14.1234,14.1301,14.1301,14.1301,14.1301,14.1301,14.1301,14.1301,14.1301,14.1301,14.1301,14.1301,14.11,14.0966,14.0832,14.0899,14.0636,14.0415,14.0771,14.1301,14.1167,14.0517,14.0765,14.0564,14.0899,14.1033,14.0698,14.0496,14.0765,14.0698,12.2672,12.2672,12.2672,12.2979,12.3509,12.4086,12.4607,12.5262,12.5835,12.6105,12.6158,12.6158,12.6158,12.6072,12.4669,12.3326,12.2096,12.078,11.949,11.8652,11.8233,11.8772,11.9789,12.102,12.2336,12.3625,12.5234,12.5892,12.6072,12.6158,12.673,12.7627,12.7986,12.8764,12.9933,13.113,13.1728,13.176,13.1788,13.1788,13.1668,13.1066,13.1201,13.1941,13.1507,13.1289,13.2698,13.4042,13.5497,13.6823,13.7916,13.8312,13.8422,13.8444,13.783,13.6776,13.6533,13.5979,13.5047,13.4747,13.4637,13.5481,13.5575,13.5601,13.6294,13.6604,13.6587,13.6587,13.5266,13.4508,13.4173,13.3148,13.2612,13.2411,13.2545,13.2411,13.2344,13.2363,13.3051,13.4691,13.618,13.7439,13.9021,14.0295,14.1301,14.1301,14.1301,14.1301,14.1301,14.1301,14.1301,14.1301,14.1301,14.1301,14.1301,14.1301,14.1301,14.1301,14.1301,14.1301,14.1301,14.1301,14.1301,14.1301,14.1301,14.1301,14.1301,14.1301,14.1167,14.1301,14.1301,14.1301,14.1301,14.1301,14.1301,12.2672,12.2672,12.2672,12.2812,12.3063,12.362,12.4227,12.4771,12.5343,12.5749,12.6105,12.6158,12.6158,12.6039,12.4642,12.3685,12.2968,12.108,11.9909,11.9191,11.8532,11.8951,12.0148,12.1438,12.2728,12.4044,12.5447,12.6098,12.6158,12.6158,12.6909,12.7986,12.8884,12.9873,13.113,13.2446,13.3132,13.3072,13.3132,13.3132,13.3104,13.2534,13.2908,13.3406,13.201,13.1881,13.3788,13.4845,13.582,13.6891,13.7739,13.8312,13.8553,13.8771,13.8614,13.8196,13.8387,13.8314,13.7733,13.6854,13.6983,13.7761,13.7448,13.7746,13.8372,13.827,13.8062,13.7928,13.6721,13.5668,13.4863,13.4193,13.3368,13.288,13.3953,13.4958,13.4997,13.4844,13.5648,13.6781,13.7767,13.8666,14.0208,14.0899,14.1234,14.1301,14.1301,14.1301,14.1301,14.1301,14.1301,14.1301,14.1301,14.1301,14.1301,14.1301,14.1301,14.1301,14.1301,14.1301,14.1301,14.1301,14.1301,14.1301,14.1301,14.1301,14.1301,14.1301,14.1301,14.1301,14.1301,14.1301,14.1301,14.1301,14.1301,12.2672,12.2672,12.2672,12.2672,12.2756,12.323,12.373,12.4227,12.4908,12.5478,12.5862,12.6051,12.6158,12.6098,12.5028,12.4343,12.3625,12.2096,12.096,12.0063,11.9071,11.9191,11.9789,12.1259,12.2994,12.4523,12.5713,12.6158,12.6158,12.6158,12.6822,12.8106,12.9335,13.0651,13.1967,13.3192,13.3879,13.3938,13.3938,13.3879,13.3879,13.3819,13.4479,13.5166,13.3026,13.2849,13.4616,13.4877,13.5381,13.6574,13.7494,13.8181,13.8597,13.89,13.9071,13.909,13.9586,13.9949,13.9768,13.8974,13.8991,14.0065,13.9382,13.946,14.0611,14.0025,13.9698,13.9356,13.8283,13.7009,13.6137,13.5534,13.4844,13.4039,13.538,13.6567,13.6662,13.6883,13.7183,13.8214,13.8612,13.9289,14.0208,14.0899,14.1301,14.1301,14.1301,14.1301,14.1301,14.1301,14.1301,14.1301,14.1301,14.1301,14.1301,14.1301,14.1301,14.1301,14.1301,14.1301,14.1301,14.1301,14.1301,14.1301,14.1301,14.1301,14.1301,14.1301,14.1301,14.1301,14.1301,14.1301,14.1301,14.1301,14.1301,12.2672,12.2672,12.2672,12.2672,12.2728,12.3116,12.3453,12.373,12.4662,12.5148,12.5424,12.5856,12.6158,12.6131,12.5979,12.5207,12.419,12.3566,12.2369,12.084,12.0122,11.949,11.9105,12.102,12.3413,12.5533,12.6098,12.6158,12.6158,12.6218,12.6849,12.8079,12.9275,13.0651,13.1967,13.3252,13.3819,13.3938,13.3938,13.3938,13.3938,13.3938,13.422,13.4718,13.2949,13.2574,13.3788,13.3463,13.3851,13.5659,13.7449,13.8422,13.8618,13.8987,13.9244,13.933,13.9716,14.016,14.037,14.002,14.0149,14.0972,14.0648,14.0678,14.1117,14.0972,14.0899,14.0832,13.9671,13.88,13.833,13.7459,13.6855,13.6587,13.7056,13.7265,13.6971,13.7091,13.7486,13.7654,13.825,13.9135,13.947,14.0698,14.1167,14.1301,14.1301,14.1301,14.1301,14.1301,14.1301,14.1301,14.1301,14.1301,14.1301,14.1301,14.1301,14.1301,14.1301,14.1301,14.1301,14.1301,14.1301,14.1301,14.1301,14.1301,14.1301,14.1301,14.1301,14.1301,14.1301,14.1301,14.1301,14.1301,14.1301,12.2672,12.2672,12.2672,12.2672,12.27,12.2868,12.3119,12.3564,12.4333,12.4821,12.5229,12.5889,12.6158,12.6158,12.6158,12.5832,12.5327,12.443,12.3506,12.2635,12.1857,12.0661,11.9849,12.1259,12.3472,12.5739,12.6158,12.6158,12.6158,12.6218,12.679,12.7926,12.8557,12.9873,13.1879,13.2505,13.3192,13.3879,13.3879,13.3938,13.3938,13.3938,13.3973,13.391,13.2607,13.2456,13.3329,13.2888,13.3396,13.5102,13.671,13.8071,13.8944,13.9417,13.9734,14.003,14.0495,14.0828,14.0993,14.0782,14.0993,14.1199,14.1137,14.1117,14.124,14.1301,14.1301,14.1301,14.0765,14.0007,13.9182,13.8444,13.8733,13.947,13.9558,13.9651,13.9678,13.9651,13.9631,13.9611,14.0033,14.0362,14.0496,14.11,14.1234,14.1301,14.1301,14.1301,14.1301,14.1301,14.1301,14.1301,14.1301,14.1301,14.1301,14.1301,14.1301,14.1301,14.1301,14.1301,14.1301,14.1301,14.1301,14.1301,14.1301,14.1301,14.1301,14.1301,14.1301,14.1301,14.1301,14.1301,14.1301,14.1301,14.1301,12.2672,12.2672,12.2672,12.2672,12.2672,12.2672,12.2951,12.3481,12.4145,12.469,12.5262,12.5889,12.6158,12.6158,12.6158,12.6158,12.6098,12.5361,12.48,12.4324,12.3182,12.1946,12.0993,12.1354,12.293,12.4908,12.5793,12.6158,12.6158,12.6158,12.655,12.7448,12.7899,12.9036,13.0591,13.1221,13.1728,13.2594,13.2713,13.2741,13.2713,13.2713,13.2772,13.2696,13.1726,13.1539,13.242,13.2573,13.3396,13.5142,13.6347,13.7434,13.8524,13.9557,13.9845,13.9444,14.003,14.0564,14.061,14.0543,14.0657,14.1234,14.1301,14.1301,14.1301,14.1301,14.1301,14.1301,14.1301,14.0966,14.0007,13.9739,14.0094,14.1167,14.1301,14.1147,14.1013,14.1167,14.1301,14.1301,14.1301,14.1301,14.1301,14.1301,14.1301,14.1301,14.1301,14.1301,14.1301,14.1301,14.1301,14.1301,14.1301,14.1301,14.1301,14.1301,14.1301,14.1301,14.1301,14.1301,14.1301,14.1301,14.1301,14.1301,14.1301,14.1301,14.1301,14.1301,14.1301,14.1301,14.1301,14.1301,14.1301,14.1301,14.1301,12.2672,12.2672,12.2672,12.2672,12.2672,12.2728,12.2979,12.3536,12.4172,12.4744,12.5262,12.5889,12.6158,12.6158,12.6158,12.6158,12.6293,12.6567,12.632,12.565,12.4369,12.2975,12.186,12.1381,12.191,12.3148,12.5141,12.6125,12.6158,12.6218,12.6218,12.6431,12.7448,12.8106,12.8258,12.9514,13.0113,13.0352,13.0472,13.0352,13.0085,13.0352,13.0625,13.0836,13.0144,13.0133,13.114,13.2009,13.3326,13.5252,13.6334,13.6933,13.7268,13.8991,13.9224,13.7324,13.8069,13.8894,13.9068,13.9001,13.9692,14.0496,14.112,14.0899,14.0966,14.11,14.1167,14.1234,14.1301,14.1301,14.1167,14.0832,14.0718,14.1234,14.1033,14.1033,14.1167,14.1234,14.1301,14.1301,14.1301,14.1301,14.1301,14.1301,14.1301,14.1301,14.1301,14.1301,14.1301,14.1301,14.1301,14.1301,14.1301,14.1301,14.1301,14.1301,14.1301,14.1301,14.1301,14.1301,14.1301,14.1301,14.1301,14.1301,14.1301,14.1301,14.1301,14.1301,14.1301,14.1301,14.1301,14.1301,14.1301,14.1301,14.1301,12.2672,12.2672,12.2672,12.2672,12.27,12.3035,12.3314,12.3505,12.4471,12.5044,12.5256,12.5829,12.6158,12.6158,12.6158,12.6319,12.6774,12.7184,12.7371,12.6888,12.48,12.3587,12.3077,12.1991,12.1648,12.2359,12.4276,12.5607,12.6125,12.6158,12.6158,12.6158,12.655,12.7181,12.8046,12.8497,12.9215,12.9933,13.0053,13.0053,13.0053,13.0053,13.0102,12.9862,12.8939,12.9181,13.0891,13.1044,13.2058,13.382,13.4441,13.4947,13.5659,13.6905,13.7298,13.6797,13.7178,13.7526,13.7526,13.7546,13.7727,13.8216,13.8263,13.88,13.9604,13.9739,14.0295,14.1033,14.1301,14.1301,14.0966,13.9491,13.8283,13.835,13.9135,13.9739,13.9806,14.0698,14.1167,14.1167,14.1167,14.1301,14.1301,14.1301,14.1301,14.1301,14.1301,14.1301,14.1301,14.1301,14.1301,14.1301,14.1301,14.1301,14.1301,14.1301,14.1301,14.1301,14.1301,14.1301,14.1301,14.1301,14.1301,14.1301,14.1301,14.1301,14.1301,14.1301,14.1301,14.1301,14.1301,14.1301,14.1301,14.1301,14.1301,12.2672,12.2672,12.2672,12.2784,12.2979,12.3314,12.3672,12.4141,12.4849,12.5343,12.5587,12.597,12.6158,12.6158,12.656,12.7112,12.7789,12.7643,12.7787,12.7816,12.5394,12.417,12.3998,12.2368,12.1707,12.2278,12.3288,12.4456,12.558,12.6032,12.6158,12.6158,12.6158,12.655,12.7208,12.7388,12.778,12.8557,12.8644,12.8704,12.8557,12.8644,12.877,12.8878,12.7868,12.8302,13.0506,13.0206,13.0921,13.2786,13.3274,13.4001,13.5009,13.5304,13.5421,13.5321,13.5782,13.607,13.607,13.607,13.6271,13.6721,13.6875,13.7325,13.7995,13.8196,13.8599,13.9356,13.9692,13.9692,13.9289,13.8082,13.6875,13.6942,13.766,13.8196,13.8397,13.9088,13.9759,13.9826,14.0208,14.0765,14.11,14.1301,14.1301,14.1301,14.1301,14.1301,14.1301,14.1301,14.1301,14.1301,14.1301,14.1301,14.1301,14.1234,14.1234,14.1234,14.1234,14.11,14.1234,14.1301,14.11,14.11,14.1301,14.1301,14.1214,14.1281,14.1301,14.1301,14.1301,14.1301,14.1301,14.1301,14.1301,12.2672,12.2672,12.2672,12.2893,12.3481,12.3564,12.4168,12.5039,12.5316,12.5641,12.6131,12.6266,12.6206,12.6127,12.6972,12.8172,12.89,12.785,12.7798,12.8344,12.6068,12.4834,12.4724,12.2539,12.2034,12.2958,12.2513,12.3046,12.4741,12.5667,12.6098,12.6158,12.6158,12.6218,12.6251,12.6338,12.6218,12.6431,12.6458,12.6338,12.6278,12.6278,12.6787,12.745,12.6929,12.7531,12.9229,12.9324,13.003,13.1834,13.2753,13.3884,13.4983,13.44,13.3503,13.2822,13.3857,13.4595,13.4575,13.4575,13.5064,13.6252,13.6271,13.6587,13.6721,13.6721,13.6922,13.6922,13.6942,13.6654,13.6587,13.6252,13.6271,13.6319,13.6587,13.6721,13.6741,13.7056,13.6875,13.7277,13.8196,13.9289,14.0765,14.11,14.0832,14.0765,14.0966,14.0966,14.0832,14.1033,14.1167,14.1234,14.1301,14.1234,14.1033,14.0429,14.0564,14.0496,14.0161,14.0785,14.1053,14.11,14.0966,14.0832,14.0496,14.0476,14.1013,14.1147,14.1013,14.1301,14.1301,14.1301,14.1301,14.1301,14.1301,12.2672,12.2672,12.2672,12.2979,12.3478,12.4333,12.4849,12.5256,12.6065,12.6554,12.674,12.7078,12.6419,12.5197,12.6107,12.6759,12.7107,12.7364,12.7603,12.7681,12.6586,12.5874,12.5701,12.3888,12.2983,12.2945,12.2871,12.2919,12.3233,12.4596,12.5573,12.6065,12.6158,12.6158,12.6158,12.6158,12.6158,12.6158,12.6158,12.6158,12.6158,12.6158,12.6186,12.6273,12.6442,12.7089,12.8162,12.813,12.9014,13.0824,13.1187,13.1793,13.2735,13.2788,13.2678,13.2478,13.2832,13.3033,13.3033,13.3014,13.3167,13.355,13.3617,13.4106,13.4997,13.5333,13.5735,13.6406,13.4844,13.3684,13.355,13.3637,13.357,13.3637,13.4729,13.5266,13.5333,13.6319,13.6741,13.6855,13.7056,13.766,13.7948,13.8216,13.8283,13.8283,13.8216,13.835,13.9336,13.9671,14.0074,14.1167,14.1234,14.0429,13.8465,13.833,13.8062,13.8082,13.8283,13.835,13.8062,13.8082,13.8149,13.8913,13.8256,13.831,13.9308,13.9724,13.9718,14.0811,14.1234,14.1188,14.0899,14.1234,14.1234,12.2672,12.2672,12.2896,12.3394,12.4223,12.5094,12.5635,12.5871,12.6271,12.6486,12.6556,12.7091,12.6651,12.5502,12.6302,12.6838,12.7104,12.7308,12.7442,12.7574,12.6798,12.6302,12.601,12.4938,12.4143,12.3513,12.3463,12.3197,12.3007,12.3764,12.4742,12.5566,12.54,12.5593,12.6158,12.6158,12.6158,12.6158,12.6158,12.5593,12.4722,12.4701,12.4834,12.4931,12.469,12.5119,12.6109,12.5804,12.6359,12.8084,12.8578,12.9094,12.9884,13.0391,13.0619,13.0619,13.0619,13.0619,13.0619,13.0619,13.0888,13.1472,13.1491,13.2162,13.3589,13.3771,13.4039,13.471,13.3416,13.2344,13.2411,13.2344,13.2344,13.2497,13.3167,13.379,13.3771,13.4489,13.5045,13.5112,13.5581,13.5984,13.5984,13.6453,13.6808,13.6875,13.6875,13.721,13.7928,13.8129,13.8532,13.9202,13.947,13.8619,13.7412,13.6875,13.6942,13.6875,13.6875,13.6875,13.7009,13.6875,13.684,13.6914,13.7065,13.7451,13.7982,13.819,13.8297,13.882,13.9511,13.9491,13.9491,13.996,14.0275,12.2409,12.2462,12.2791,12.3787,12.4732,12.5432,12.6046,12.6509,12.6082,12.5759,12.5941,12.6465,12.6696,12.6793,12.7061,12.756,12.7969,12.7476,12.7386,12.7648,12.7055,12.6501,12.6126,12.5948,12.5458,12.4622,12.3999,12.3551,12.3298,12.3289,12.3785,12.4613,12.4226,12.4542,12.5593,12.5713,12.5713,12.5799,12.5772,12.4549,12.2302,12.2469,12.2915,12.3456,12.2345,12.2368,12.3565,12.2712,12.2857,12.4363,12.5354,12.6189,12.6949,12.7398,12.7687,12.7687,12.7687,12.7736,12.7889,12.8023,12.876,12.9882,13.0016,13.0686,13.2008,13.2047,13.2047,13.2296,13.2229,13.2142,13.2344,13.2142,13.2027,13.2027,13.2142,13.2209,13.2229,13.2276,13.2344,13.2344,13.3771,13.4528,13.4575,13.54,13.6204,13.6003,13.5849,13.6051,13.652,13.6674,13.6721,13.6453,13.6453,13.6319,13.6185,13.6406,13.607,13.6137,13.6339,13.6137,13.5917,13.6023,13.6323,13.5569,13.605,13.6141,13.6441,13.6649,13.6723,13.7352,13.7412,13.7056,13.7056,13.7928,13.8733,12.0797,12.0272,12.0408,12.1109,12.2256,12.3586,12.4464,12.5052,12.5756,12.6081,12.6135,12.5628,12.5454,12.5437,12.5917,12.6212,12.6437,12.6856,12.7169,12.7366,12.7845,12.7993,12.7843,12.7155,12.6502,12.5885,12.4718,12.3946,12.3568,12.3331,12.3376,12.3543,12.3326,12.3086,12.302,12.2994,12.2994,12.2994,12.2994,12.2695,12.2096,12.1594,12.1281,12.1231,12.0658,12.0254,12.0062,12.0697,12.133,12.1955,12.2809,12.3633,12.4367,12.4597,12.4652,12.4652,12.4652,12.5121,12.6194,12.7401,12.8291,12.8559,12.8559,12.9144,13.0437,12.9905,12.9693,13.0523,13.0705,13.1156,13.1874,13.1357,13.0686,13.0753,13.0667,13.0753,13.082,13.1692,13.2344,13.2363,13.2612,13.2966,13.2947,13.3215,13.3483,13.357,13.3368,13.3905,13.493,13.5198,13.4642,13.3838,13.3368,13.357,13.3349,13.3483,13.355,13.3368,13.3503,13.3637,13.3617,13.3503,13.3417,13.3609,13.3523,13.4039,13.4971,13.5171,13.5577,13.6366,13.6473,13.6674,13.6607,13.6989,13.7258,12.0309,11.9959,12.0226,12.0837,12.1705,12.2822,12.3962,12.5107,12.5339,12.5867,12.661,12.6201,12.5951,12.5973,12.6302,12.6413,12.6435,12.7155,12.7479,12.7565,12.8439,12.8734,12.8479,12.8227,12.7759,12.7026,12.6062,12.5188,12.432,12.3904,12.3307,12.2405,12.2806,12.2823,12.2452,12.2201,12.2096,12.2037,12.09,12.0131,11.976,11.9567,11.9342,11.8995,11.8851,11.8539,11.8068,11.8702,11.9242,11.9389,12.0056,12.0481,12.0625,12.0628,12.0363,11.983,11.9141,11.9411,12.1045,12.1314,12.2256,12.431,12.5674,12.628,12.5657,12.5682,12.6505,12.8263,12.9099,12.9715,13.0303,12.9748,12.9297,12.9278,12.9297,12.9278,12.9412,13.0552,13.1357,13.1424,13.196,13.2344,13.2344,13.2344,13.2344,13.2344,13.2344,13.2679,13.3522,13.3637,13.3282,13.2545,13.2344,13.2344,13.2411,13.2344,13.2344,13.2344,13.2344,13.2344,13.2344,13.2344,13.2411,13.2344,13.2344,13.2755,13.3376,13.3682,13.3961,13.471,13.4777,13.4844,13.4844,13.4777,13.4777,12.0132,12.006,12.0698,12.1179,12.1594,12.2133,12.3341,12.4937,12.4323,12.5116,12.6684,12.6684,12.6748,12.6748,12.6684,12.6813,12.7049,12.7542,12.7949,12.8186,12.8987,12.9089,12.8689,12.9113,12.8862,12.8079,12.7501,12.6588,12.5391,12.4804,12.3534,12.1808,12.2315,12.248,12.2051,12.1577,12.1362,12.1362,11.9352,11.79,11.7047,11.7499,11.7501,11.7139,11.6979,11.6878,11.6812,11.6745,11.6721,11.68,11.702,11.6853,11.6135,11.5918,11.5179,11.376,11.2497,11.2438,11.3956,11.2973,11.4154,11.8296,12.1441,12.1898,11.9172,12.051,12.2776,12.5282,12.6671,12.7536,12.7585,12.7261,12.7194,12.7518,12.7585,12.7682,12.8,12.9226,13.0166,13.0447,13.1434,13.2104,13.2276,13.2344,13.2344,13.2344,13.2344,13.2344,13.2478,13.2344,13.2344,13.2344,13.2344,13.2344,13.2344,13.2344,13.2344,13.2344,13.2344,13.2344,13.2344,13.2344,13.2344,13.2344,13.2344,13.2411,13.2411,13.2344,13.2545,13.2612,13.2746,13.2679,13.2679,13.2679,13.2545,11.913,11.8638,11.9144,11.9234,11.9064,11.9621,12.0067,12.0609,12.1944,0.0,0.0,12.4701,12.4721,12.4721,12.4721,12.5371,12.6558,12.7015,12.794,12.905,12.9503,12.9688,12.9541,12.9383,12.9175,12.8987,12.8207,12.7436,12.6763,12.5948,12.433,12.2191,12.1033,11.9717,11.8285,11.8019,11.7923,11.7898,11.8499,11.8248,11.7071,11.7176,11.7101,11.67,11.5308,11.4627,11.4949,11.438,11.3954,11.3899,11.3316,11.2573,11.1611,11.0691,10.8965,10.6438,10.6109,10.6206,10.6491,10.6481,10.7901,11.1117,11.4064,11.4773,11.2295,11.5524,11.8795,12.1507,12.252,12.3643,12.505,12.3878,12.3573,12.5035,12.5223,12.5707,12.6958,12.8419,12.9518,13.0554,13.0803,13.1415,13.2209,13.2296,13.2344,13.2344,13.2344,13.2344,13.2344,13.2344,13.2344,13.2344,13.2344,13.2344,13.2344,13.2276,13.2344,13.2344,13.2344,13.2344,13.2344,13.2344,13.2344,13.2344,13.2344,13.2344,13.2344,13.2344,13.2344,13.2344,13.2344,13.2344,13.2344,13.2363,13.2382,11.9305,11.832,11.8858,11.8838,0.0,11.875,11.8918,11.9148,12.1011,12.2942,12.4901,12.4921,12.4921,12.4901,12.4699,12.5381,12.6747,12.7038,12.7926,12.9279,12.9647,12.9852,12.9832,12.9692,12.9589,12.9503,12.8414,12.7396,12.6679,12.548,12.3852,12.1865,12.0848,11.9366,11.7571,11.7264,11.7171,11.7413,11.8707,11.865,11.7215,11.7366,11.7178,11.6306,11.5389,0.0,0.0,0.0,0.0,0.0,0.0,0.0,0.0,10.5195,0.0,9.8999,9.7613,9.7107,9.7239,9.6871,9.8213,10.2013,10.4337,10.4652,10.228,10.796,11.2631,11.5112,11.706,11.8343,11.8923,11.8841,11.9077,12.0005,12.0782,12.1509,12.2505,12.4992,12.7043,12.7657,12.8785,13.0133,13.1431,13.1471,13.1558,13.2209,13.2344,13.2344,13.2344,13.2344,13.2344,13.2344,13.2344,13.2344,13.2276,13.1807,13.1424,13.2094,13.1826,13.1692,13.2209,13.2344,13.2344,13.2344,13.2344,13.2344,13.2344,13.2344,13.2344,13.2344,13.2344,13.2458,13.2896,13.2953,13.2971,11.941,11.8465,11.9008,11.8997,11.8601,11.8034,11.8004,11.8374,11.9853,12.1819,12.3869,12.3606,12.3533,12.3572,12.3287,12.4264,12.6119,12.6119,12.7041,12.8552,12.89,12.9063,12.9063,12.9063,12.9104,12.9119,12.7915,12.6895,12.5858,12.4477,12.2819,12.0634,12.0015,11.8825,11.7117,0.0,0.0,0.0,11.915,11.9329,11.7947,11.8386,11.8079,11.6841,11.6554,0.0,11.5464,11.4996,11.3793,11.1604,10.999,0.0,0.0,0.0,0.0,0.0,0.0,0.0,0.0,0.0,0.0,0.0,9.2045,9.1613,9.1311,9.8142,10.4167,10.7855,11.0984,11.2631,11.2171,11.3313,11.4277,11.4679,11.5895,11.6904,11.7567,12.0626,12.3236,12.3825,12.6017,12.812,12.9554,12.9943,13.0292,13.1223,13.1826,13.1893,13.1558,13.1386,13.1501,13.1539,13.1367,13.1482,13.1539,13.0533,13.0236,13.1116,13.058,13.055,13.1767,13.2189,13.217,13.2611,13.264,13.264,13.2621,13.2602,13.266,13.2573,13.2592,13.2839,13.3607,13.3706,13.3755,11.8418,11.8583,11.9146,11.9096,11.8548,11.6102,11.5603,11.6612,11.6799,11.7335,11.7839,11.6637,11.6275,11.6584,11.6529,11.8707,12.2487,12.2534,12.3793,12.5979,12.6085,12.6125,12.6125,12.6125,12.6323,12.6611,12.6413,12.5589,12.4142,12.3614,12.1415,11.7688,11.6498,11.547,11.4398,11.3058,11.3433,11.5442,11.9145,12.0835,12.0311,12.1189,12.101,11.9676,11.8869,11.7876,11.6661,11.5737,11.4162,11.1906,10.8408,10.446,10.0096,9.3902,8.7903,0.0,7.9663,0.0,0.0,0.0,0.0,0.0,0.0,0.0,0.0,8.5139,9.1722,10.0733,10.4652,10.6777,10.6907,10.7991,10.938,11.1038,11.1628,11.2969,11.5421,11.6268,11.7864,12.1221,12.3005,12.4822,12.6684,12.8012,12.8587,12.8816,12.9565,12.9699,12.8876,12.8678,12.8745,12.8656,12.8659,12.9023,12.8924,12.8559,12.8469,12.8844,12.8783,12.9365,13.1197,13.1504,13.1879,13.3016,13.32,13.3246,13.3408,13.3312,13.3369,13.3309,13.3274,13.3502,13.414,13.4356,13.4467,11.6881,11.6345,11.6859,11.5413,11.2679,11.2302,11.2545,11.3248,11.3165,11.3414,11.3652,11.1371,11.0137,10.9711,11.0557,11.2897,11.6313,11.8007,12.0129,12.2573,12.3385,12.3667,12.3494,12.3686,12.3781,12.38,12.3337,12.2218,12.0585,11.9827,11.7787,11.4589,11.3546,11.1886,10.9803,10.9904,11.1863,11.5486,11.8596,12.065,12.1553,12.2745,12.2463,12.0641,12.0277,11.9162,11.6874,11.5482,11.3152,10.9655,10.5063,10.0097,9.4789,8.7258,8.0459,0.0,0.0,0.0,0.0,0.0,0.0,0.0,0.0,0.0,0.0,0.0,8.111,8.8821,9.4418,9.7539,9.7539,9.9397,10.1072,10.1981,10.2963,10.447,10.6811,10.9327,11.2057,11.5236,11.8103,12.0788,12.3168,12.5035,12.6312,12.7041,12.6284,12.5338,12.4706,12.5883,12.6821,12.6882,12.7585,12.8183,12.8291,12.7096,12.6442,12.7327,12.6958,12.7285,12.9893,13.0449,13.071,13.152,13.1694,13.1737,13.1751,13.2338,13.2848,13.2858,13.2914,13.3009,13.3368,13.3366,13.3609,11.3749,11.2569,11.1102,10.8352,10.5196,10.671,10.7637,10.7954,10.7971,10.8119,10.8182,10.4879,10.2979,10.2181,10.3467,10.5813,10.9018,11.2022,11.4854,11.7662,11.9123,11.9823,11.9927,12.0118,12.0136,11.9978,11.9513,11.8277,11.6302,11.5494,11.3635,11.0769,10.8355,10.6133,10.4309,10.6445,10.9914,11.4632,11.7775,12.0375,12.2325,12.4077,12.4002,12.2103,12.1866,12.0169,11.6871,11.4827,11.1438,10.6504,10.1099,9.5141,8.8563,8.0281,0.0,0.0,0.0,0.0,0.0,0.0,0.0,0.0,0.0,5.6514,6.392,0.0,7.1268,0.0,8.4346,8.8659,8.8786,9.1045,0.0,0.0,9.3578,9.4942,9.7127,10.0727,10.4396,10.7786,11.1686,11.5259,11.8166,12.0761,12.2572,12.2858,12.1472,12.0475,12.0673,12.26,12.3926,12.3926,12.4697,12.5752,12.5535,12.3992,12.293,12.4743,12.4371,12.5,12.8013,12.8556,12.8797,12.9494,12.9889,13.014,13.0227,13.1365,13.189,13.0419,13.0718,13.1204,13.1204,13.1482,13.2067,10.7756,10.6708,9.9725,9.6872,9.6907,9.8582,9.9524,9.9901,9.9916,9.9864,9.9612,9.5332,9.3449,9.3357,9.39,0.0,10.0778,10.3635,10.6928,11.0508,11.1972,11.3151,11.4137,11.4189,11.438,11.4723,11.5012,11.3873,11.1427,11.121,10.9367,10.5683,9.8954,9.6363,9.7922,10.2217,10.6765,11.1169,11.6711,12.0565,12.2748,12.5473,12.6375,12.5144,12.3837,12.0969,11.665,11.3707,10.9144,10.2641,9.6756,8.9802,8.1513,0.0,0.0,0.0,0.0,0.0,0.0,0.0,0.0,0.0,0.0,0.0,0.0,0.0,0.0,6.8208,7.6291,0.0,8.2983,8.4481,0.0,0.0,0.0,8.5369,8.8519,9.0473,9.3612,9.8947,0.0,0.0,11.0647,11.4661,11.6263,11.366,11.4929,11.6659,11.8062,11.8439,11.8563,11.8756,11.8789,11.8894,11.9366,11.7832,11.7474,11.9429,12.0872,12.245,12.4569,12.5178,12.6028,12.7305,12.8998,12.9862,12.9954,13.0571,13.0507,12.443,12.5557,12.7553,12.7398,12.848,12.9654,9.717,9.113,8.7529,8.6113,8.667,8.914,9.0354,9.0468,9.0468,9.0468,9.0131,8.4793,8.2534,8.2527,8.1038,0.0,0.0,0.0,9.7613,10.1384,10.3783,10.5993,10.7653,10.7057,10.7151,10.794,10.7429,10.5772,10.305,10.3088,9.8796,9.053,0.0,8.9441,9.1413,9.8076,10.4148,10.9579,11.6027,12.1048,12.456,12.6576,12.6537,12.4251,12.2545,11.9159,11.3924,10.9558,10.4388,9.8101,8.997,8.2337,0.0,0.0,0.0,0.0,0.0,0.0,0.0,0.0,0.0,0.0,0.0,4.1548,4.6769,0.0,0.0,0.0,6.4981,7.0324,7.4293,7.6842,0.0,0.0,0.0,0.0,0.0,0.0,0.0,8.8808,9.4787,10.0,10.3853,10.5037,10.5911,10.7091,11.0262,11.2608,11.3022,0.0,11.5535,11.5482,11.6353,11.707,11.7171,11.5332,11.4176,11.5508,11.5843,11.6554,11.8454,11.9757,12.074,12.1708,12.312,12.4184,12.4201,12.2015,11.9415,11.7193,11.8321,11.975,11.9821,12.1831,12.3813,8.4549,0.0,0.0,0.0,0.0,7.8819,8.0153,8.0222,8.0642,8.0574,7.9891,7.475,0.0,0.0,0.0,0.0,0.0,0.0,8.7437,9.1737,9.528,9.8195,10.0386,9.9976,10.0002,10.0287,9.9613,9.7559,9.4268,9.1808,8.5985,7.7245,0.0,0.0,0.0,0.0,10.0563,10.6811,11.4352,12.0342,12.4644,12.7082,12.706,12.458,12.1271,11.6359,10.9817,10.4007,9.786,9.1153,8.2168,0.0,0.0,0.0,0.0,0.0,0.0,0.0,0.0,0.0,0.0,0.0,0.0,0.0,0.0,0.0,0.0,0.0,0.0,0.0,6.5271,6.8826,7.0495,0.0,0.0,0.0,0.0,0.0,0.0,0.0,0.0,0.0,9.34,9.4875,9.7253,0.0,0.0,10.8451,10.9558,11.1281,11.2433,11.2496,11.3405,0.0,11.3896,11.1522,11.0147,11.1629,11.0152,10.9294,11.0886,11.2617,11.3982,11.4263,11.6048,11.6362,11.367,10.9916,10.7673,10.7594,10.8737,10.988,11.0545,11.2997,11.5648,0.0,0.0,0.0,0.0,6.4157,0.0,0.0,0.0,7.0303,7.0096,0.0,6.5469,0.0,0.0,0.0,0.0,6.7108,7.1316,0.0,0.0,8.6274,8.9655,9.1906,9.3219,9.3091,9.1613,9.2027,8.9813,8.5137,7.7148,0.0,0.0,0.0,0.0,0.0,0.0,9.5327,10.1831,11.1281,11.8167,12.2191,12.6768,12.8638,12.7334,12.0408,11.2656,10.4341,9.7032,8.9338,8.087,7.3619,0.0,0.0,0.0,0.0,0.0,0.0,0.0,0.0,0.0,0.0,0.0,0.0,0.0,0.0,0.0,0.0,0.0,0.0,0.0,0.0,6.0666,0.0,0.0,0.0,0.0,0.0,0.0,0.0,0.0,0.0,7.9299,7.8232,8.5036,9.1692,9.6044,0.0,0.0,0.0,0.0,10.8927,10.9133,10.9048,10.853,10.7302,10.4596,10.3865,10.7451,0.0,0.0,10.2633,10.4189,10.5457,10.5748,10.8244,10.7362,9.7451,9.548,9.5381,9.5373,9.6625,9.8209,9.9758,10.2341,10.5476,0.0,0.0,0.0,0.0,0.0,0.0,0.0,0.0,0.0,5.8882,5.8039,5.5082,0.0,0.0,0.0,0.0,0.0,0.0,0.0,0.0,7.6199,7.9712,8.2166,8.2678,8.306,8.3272,8.257,7.7337,0.0,0.0,0.0,0.0,0.0,0.0,0.0,0.0,9.2542,10.0918,11.0602,11.7512,12.1492,12.5977,12.6994,12.434,11.8936,10.9957,9.6969,8.7836,7.9475,0.0,0.0,0.0,0.0,0.0,0.0,0.0,0.0,0.0,0.0,0.0,0.0,0.0,0.0,0.0,0.0,0.0,0.0,0.0,0.0,0.0,0.0,0.0,5.6633,0.0,0.0,0.0,0.0,0.0,0.0,0.0,0.0,0.0,7.1207,7.8049,8.5008,9.0377,9.6371,10.1229,10.4088,0.0,0.0,0.0,0.0,0.0,0.0,0.0,10.1989,10.2719,9.8866,9.5716,9.5508,9.6087,9.6629,9.6704,0.0,0.0,8.4966,8.2896,8.2988,8.2944,8.4249,8.5837,8.7462,9.0282,9.3434,0.0,0.0,0.0,0.0,0.0,0.0,0.0,0.0,0.0,4.9059,4.8416,0.0,0.0,0.0,0.0,0.0,0.0,0.0,0.0,0.0,0.0,0.0,7.2802,7.3784,0.0,0.0,0.0,0.0,0.0,0.0,0.0,0.0,0.0,0.0,0.0,0.0,8.9911,9.9354,10.9163,11.6337,12.0819,12.5154,12.5662,12.1956,11.714,10.8341,9.5294,0.0,0.0,0.0,0.0,0.0,0.0,0.0,0.0,0.0,0.0,0.0,0.0,0.0,0.0,0.0,0.0,0.0,0.0,0.0,0.0,0.0,0.0,0.0,0.0,0.0,5.0917,0.0,0.0,0.0,0.0,0.0,0.0,0.0,0.0,0.0,0.0,7.1345,7.8612,8.4658,9.1714,9.7556,10.1075,10.3976,10.569,0.0,0.0,0.0,0.0,0.0,0.0,0.0,0.0,0.0,0.0,0.0,0.0,0.0,8.4822,8.1336,7.3344,7.1917,7.1956,7.194,0.0,0.0,0.0,0.0,0.0,0.0,0.0,0.0,0.0,0.0,0.0,0.0,0.0,0.0,0.0,3.9585,0.0,0.0,3.5372,0.0,0.0,0.0,0.0,0.0,0.0,0.0,0.0,0.0,0.0,0.0,0.0,0.0,0.0,0.0,0.0,0.0,0.0,0.0,0.0,0.0,0.0,8.7246,9.6899,10.6866,11.4551,11.9902,12.4331,12.4633,12.0625,11.489,10.7781,9.9128,0.0,0.0,0.0,0.0,0.0,0.0,0.0,0.0,0.0,0.0,0.0,0.0,0.0,0.0,0.0,0.0,0.0,0.0,0.0,0.0,0.0,0.0,0.0,0.0,0.0,0.0,4.9419,4.9716,4.9843,0.0,0.0,0.0,0.0,0.0,0.0,0.0,0.0,0.0,7.9017,8.6086,9.3105,9.9672,10.1411,10.2648,10.4471,10.3201,10.1489,10.023,9.6092,9.2656,0.0,0.0,0.0,0.0,0.0,0.0,0.0,0.0,0.0,0.0,0.0,0.0,0.0,0.0,0.0,0.0,0.0,0.0,0.0,0.0,0.0,0.0,0.0,0.0,0.0,0.0,0.0,0.0,3.4921,3.4843,0.0,0.0,0.0,0.0,0.0,0.0,0.0,0.0,0.0,0.0,0.0,0.0,0.0,0.0,0.0,0.0,0.0,0.0,0.0,0.0,0.0,0.0,0.0,0.0,8.3662,9.4145,10.5136,11.284,11.7114,12.1411,12.1842,11.7757,11.0972,10.2922,0.0,0.0,0.0,0.0,0.0,0.0,0.0,0.0,0.0,0.0,0.0,0.0,0.0,0.0,0.0,0.0,0.0,0.0,0.0,0.0,0.0,0.0,0.0,0.0,0.0,0.0,0.0,0.0,4.7564,4.8682,4.9767,0.0,0.0,0.0,0.0,0.0,0.0,0.0,0.0,0.0,0.0,8.9019,9.5448,9.9152,10.1106,10.0753,10.1901,10.1946,9.9571,9.6136,9.2652,8.9338,0.0,0.0,0.0,0.0,0.0,0.0,0.0,0.0,0.0,0.0,0.0,0.0,0.0,0.0,0.0,0.0,0.0,0.0,0.0,0.0,0.0,0.0,0.0,0.0,0.0,0.0,0.0,0.0,0.0,0.0,0.0,0.0,0.0,0.0,0.0,0.0,0.0,0.0,0.0,0.0,0.0,0.0,0.0,0.0,0.0,0.0,0.0,0.0,0.0,0.0,0.0,0.0,0.0,8.2114,9.3364,10.4097,11.1816,11.6361,12.014,11.9793,11.5078,10.7711,9.8926,0.0,0.0,0.0,0.0,0.0,0.0,0.0,0.0,0.0,0.0,0.0,0.0,0.0,0.0,0.0,0.0,0.0,0.0,0.0,0.0,0.0,0.0,0.0,0.0,0.0,0.0,0.0,0.0,4.3959,4.5807,4.7921,0.0,0.0,0.0,0.0,0.0,0.0,0.0,0.0,0.0,0.0,8.4756,9.1208,9.4697,0.0,0.0,9.8247,9.8322,9.6637,9.3174,8.9346,8.5523,7.9604,0.0,0.0,0.0,0.0,0.0,0.0,0.0,0.0,0.0,0.0,0.0,0.0,0.0,0.0,0.0,0.0,0.0,0.0,0.0,0.0,0.0,0.0,0.0,0.0,0.0,0.0,0.0,0.0,0.0,0.0,0.0,0.0,0.0,0.0,0.0,0.0,0.0,0.0,0.0,0.0,0.0,0.0,0.0,0.0,0.0,0.0,0.0,0.0,0.0,0.0,0.0,0.0,8.2091,9.3651,10.3368,11.1135,11.7058,11.9863,11.8416,11.27,10.5294,9.5872,0.0,0.0,0.0,0.0,0.0,0.0,0.0,0.0,0.0,0.0,0.0,0.0,0.0,0.0,0.0,0.0,0.0,0.0,0.0,0.0,0.0,0.0,0.0,0.0,0.0,0.0,0.0,0.0,0.0,0.0,0.0,0.0,0.0,0.0,0.0,0.0,0.0,0.0,0.0,0.0,0.0,8.0201,8.6855,8.8698,9.0527,0.0,9.2927,9.1831,9.1721,8.788,8.3791,8.0547,0.0,0.0,0.0,0.0,0.0,0.0,0.0,0.0,0.0,0.0,0.0,0.0,0.0,0.0,0.0,0.0,0.0,0.0,0.0,0.0,0.0,0.0,0.0,0.0,0.0,0.0,0.0,0.0,0.0,0.0,0.0,0.0,0.0,0.0,0.0,0.0,0.0,0.0,0.0,0.0,0.0,0.0,0.0,0.0,0.0,0.0,0.0,0.0,0.0,0.0,0.0,0.0,0.0,0.0,9.1011,10.087,10.9028,11.5559,11.7311,11.6337,11.2549,10.4304,0.0,0.0,0.0,0.0,0.0,0.0,0.0,0.0,0.0,0.0,0.0,0.0,0.0,0.0,0.0,0.0,0.0,0.0,0.0,0.0,0.0,0.0,0.0,0.0,0.0,0.0,0.0,3.0569,0.0,0.0,0.0,0.0,0.0,0.0,0.0,0.0,0.0,0.0,0.0,0.0,0.0,0.0,7.4509,8.2146,8.4271,8.5844,0.0,0.0,8.8859,8.7534,8.4349,8.0527,0.0,0.0,0.0,0.0,0.0,0.0,0.0,0.0,0.0,0.0,0.0,0.0,0.0,0.0,0.0,0.0,0.0,0.0,0.0,0.0,0.0,0.0,0.0,0.0,0.0,0.0,0.0,0.0,0.0,0.0,0.0,0.0,0.0,0.0,0.0,0.0,0.0,0.0,0.0,0.0,0.0,0.0,0.0,0.0,0.0,0.0,0.0,0.0,0.0,0.0,0.0,0.0,0.0,0.0,7.6935,8.8475,9.8876,10.7568,11.4397,11.6385,11.5481,11.1694,10.3031,9.2922,0.0,0.0,0.0,0.0,0.0,0.0,0.0,0.0,0.0,0.0,0.0,0.0,0.0,0.0,0.0,0.0,0.0,0.0,0.0,0.0,0.0,0.0,0.0,0.0,0.0,0.0,0.0,0.0,0.0,0.0,0.0,0.0,0.0,0.0,0.0,0.0,0.0,0.0,0.0,0.0,0.0,0.0,7.6517,7.8631,0.0,0.0,0.0,8.1881,8.0841,0.0,0.0,0.0,0.0,0.0,0.0,0.0,0.0,0.0,0.0,0.0,0.0,0.0,0.0,0.0,0.0,0.0,0.0,0.0,0.0,0.0,0.0,0.0,0.0,0.0,0.0,0.0,0.0,0.0,0.0,0.0,0.0,0.0,0.0,0.0,0.0,0.0,0.0,0.0,0.0,0.0,0.0,0.0,0.0,0.0,0.0,0.0,0.0,0.0,0.0,0.0,0.0,0.0,0.0,0.0,0.0,0.0,8.6449,9.7212,10.6291,11.339,11.5886,11.489,11.0216,10.1786,9.1728,0.0,0.0,0.0,0.0,0.0,0.0,0.0,0.0,0.0,0.0,0.0,0.0,0.0,0.0,0.0,0.0,0.0,0.0,0.0,0.0,0.0,0.0,0.0,0.0,0.0,0.0,0.0,0.0,0.0,0.0,0.0,0.0,0.0,0.0,0.0,0.0,0.0,0.0,0.0,0.0,0.0,6.7538,7.0744,7.245,7.3834,0.0,0.0,7.3164,7.3043,7.0266,0.0,0.0,0.0,0.0,0.0,0.0,0.0,0.0,0.0,0.0,0.0,0.0,0.0,0.0,0.0,0.0,0.0,0.0,0.0,0.0,0.0,0.0,0.0,0.0,0.0,0.0,0.0,0.0,0.0,0.0,0.0,0.0,0.0,0.0,0.0,0.0,0.0,0.0,0.0,0.0,0.0,0.0,0.0,0.0,0.0,0.0,0.0,0.0,0.0,0.0,0.0,0.0,0.0,0.0,0.0,0.0,8.6633,9.5575,10.4146,11.2094,11.3514,11.2446,10.9017,10.13,9.1807,0.0,0.0,0.0,0.0,0.0,0.0,0.0,0.0,0.0,0.0,0.0,0.0,0.0,0.0,0.0,0.0,0.0,0.0,0.0,0.0,0.0,0.0,0.0,0.0,0.0,0.0,0.0,0.0,0.0,0.0,0.0,0.0,0.0,0.0,0.0,0.0,0.0,0.0,0.0,0.0,0.0,6.1767,6.6143,6.6939,0.0,0.0,0.0,0.0,6.6791,6.4025,0.0,0.0,0.0,0.0,0.0,0.0,0.0,0.0,0.0,0.0,0.0,0.0,0.0,0.0,0.0,0.0,0.0,0.0,0.0,0.0,0.0,0.0,0.0,0.0,0.0,0.0,0.0,0.0,0.0,0.0,0.0,0.0,0.0,0.0,0.0,0.0,0.0,0.0,0.0,0.0,0.0,0.0,0.0,0.0,0.0,0.0,0.0,0.0,0.0,0.0,0.0,0.0,0.0,0.0,0.0,0.0,8.266,9.1905,10.1058,10.9987,11.1217,11.0715,10.8749,10.083,9.1471,0.0,0.0,0.0,0.0,0.0,0.0,0.0,0.0,0.0,0.0,0.0,0.0,0.0,0.0,0.0,0.0,0.0,0.0,0.0,0.0,0.0,0.0,0.0,0.0,0.0,0.0,0.0,0.0,0.0,0.0,0.0,0.0,0.0,0.0,0.0,0.0,0.0,0.0,0.0,0.0,5.4803,5.8145,6.0569,0.0,0.0,0.0,0.0,0.0,0.0,5.8364,5.5596,0.0,0.0,0.0,0.0,0.0,0.0,0.0,0.0,0.0,0.0,0.0,0.0,0.0,0.0,0.0,0.0,0.0,0.0,0.0,0.0,0.0,0.0,0.0,0.0,0.0,0.0,0.0,0.0,0.0,0.0,0.0,0.0,0.0,0.0,0.0,0.0,0.0,0.0,0.0,0.0,0.0,0.0,0.0,0.0,0.0,0.0,0.0,0.0,0.0,0.0,0.0,0.0,0.0,0.0,0.0,7.8447,8.8247,9.8061,10.7589,10.9044,10.9219,10.7939,9.9901,9.0545,7.9953,0.0,0.0,0.0,0.0,0.0,0.0,0.0,0.0,0.0,0.0,0.0,0.0,0.0,0.0,0.0,0.0,0.0,0.0,0.0,0.0,0.0,0.0,0.0,0.0,0.0,0.0,0.0,0.0,0.0,0.0,0.0,0.0,0.0,0.0,0.0,0.0,0.0,0.0,0.0,5.1827,5.5119,0.0,0.0,0.0,0.0,0.0,0.0,0.0,0.0,5.0948,0.0,0.0,0.0,0.0,0.0,0.0,0.0,0.0,0.0,0.0,0.0,0.0,0.0,0.0,0.0,0.0,0.0,0.0,0.0,0.0,0.0,0.0,0.0,0.0,0.0,0.0,0.0,0.0,0.0,0.0,0.0,0.0,0.0,0.0,0.0,0.0,0.0,0.0,0.0,0.0,0.0,0.0,0.0,0.0,0.0,0.0,0.0,0.0,0.0,0.0,0.0,0.0,0.0,0.0,0.0,0.0,8.765,9.6605,10.5098,10.741,10.7016,10.4238,9.753,8.8252,7.6473,0.0,0.0,0.0,0.0,0.0,0.0,0.0,0.0,0.0,0.0,0.0,0.0,0.0,0.0,0.0,0.0,0.0,0.0,0.0,0.0,0.0,0.0,0.0,0.0,0.0,0.0,0.0,0.0,0.0,0.0,0.0,0.0,0.0,0.0,0.0,0.0,0.0,0.0,4.0822,4.626,0.0,0.0,0.0,0.0,0.0,0.0,0.0,0.0,4.843,0.0,0.0,0.0,0.0,0.0,0.0,0.0,0.0,0.0,0.0,0.0,0.0,0.0,0.0,0.0,0.0,0.0,0.0,0.0,0.0,0.0,0.0,0.0,0.0,0.0,0.0,0.0,0.0,0.0,0.0,0.0,0.0,0.0,0.0,0.0,0.0,0.0,0.0,0.0,0.0,0.0,0.0,0.0,0.0,0.0,0.0,0.0,0.0,0.0,0.0,0.0,0.0,0.0,0.0,0.0,0.0,0.0,0.0,9.2077,10.141,10.3248,10.317,10.1379,9.315,8.2914,0.0,0.0,0.0,0.0,0.0,0.0,0.0,0.0,0.0,0.0,0.0,0.0,0.0,0.0,0.0,0.0,0.0,0.0,0.0,0.0,0.0,0.0,0.0,0.0,0.0,0.0,0.0,0.0,0.0,0.0,0.0,0.0,0.0,0.0,0.0,0.0,0.0,0.0,0.0,0.0,0.0,0.0,0.0,0.0,0.0,0.0,0.0,0.0,0.0,0.0,0.0,0.0,0.0,0.0,0.0,0.0,0.0,0.0,0.0,0.0,0.0,0.0,0.0,0.0,0.0,0.0,0.0,0.0,0.0,0.0,0.0,0.0,0.0,0.0,0.0,0.0,0.0,0.0,0.0,0.0,0.0,0.0,0.0,0.0,0.0,0.0,0.0,0.0,0.0,0.0,0.0,0.0,0.0,0.0,0.0,0.0,0.0,0.0,0.0,0.0,0.0,0.0,0.0,0.0,0.0,0.0,0.0,0.0,8.7241,9.6927,9.8764,9.9149,9.8215,8.8085,7.7243,0.0,0.0,0.0,0.0,0.0,0.0,0.0,0.0,0.0,0.0,0.0,0.0,0.0,0.0,0.0,0.0,0.0,0.0,0.0,0.0,0.0,0.0,0.0,0.0,0.0,0.0,0.0,0.0,0.0,0.0,0.0,0.0,0.0,0.0,0.0,0.0,0.0,0.0,0.0,0.0,0.0,0.0,0.0,0.0,0.0,0.0,0.0,0.0,4.3691,0.0,0.0,0.0,0.0,0.0,0.0,0.0,0.0,0.0,0.0,0.0,0.0,0.0,0.0,0.0,0.0,0.0,0.0,0.0,0.0,0.0,0.0,0.0,0.0,0.0,0.0,0.0,0.0,0.0,0.0,0.0,0.0,0.0,0.0,0.0,0.0,0.0,0.0,0.0,0.0,0.0,0.0,0.0,0.0,0.0,0.0,0.0,0.0,0.0,0.0,0.0,0.0,0.0,0.0,0.0,0.0,0.0,0.0,0.0,8.3842,9.1449,9.526,9.5778,9.2637,8.2581,7.2656,0.0,0.0,0.0,0.0,0.0,0.0,0.0,0.0,0.0,0.0,0.0,0.0,0.0,0.0,0.0,0.0,0.0,0.0,0.0,0.0,0.0,0.0,0.0,0.0,0.0,0.0,0.0,0.0,0.0,0.0,0.0,0.0,0.0,0.0,0.0,0.0,0.0,0.0,0.0,0.0,0.0,0.0,0.0,0.0,0.0,0.0,0.0,0.0,0.0,0.0,0.0,0.0,0.0,0.0,0.0,0.0,0.0,0.0,0.0,0.0,0.0,0.0,0.0,0.0,0.0,0.0,0.0,0.0,0.0,0.0,0.0,0.0,0.0,0.0,0.0,0.0,0.0,0.0,0.0,0.0,0.0,0.0,0.0,0.0,0.0,0.0,0.0,0.0,0.0,0.0,0.0,0.0,0.0,0.0,0.0,0.0,0.0,0.0,0.0,0.0,0.0,0.0,0.0,0.0,0.0,0.0,0.0,0.0,7.9667,8.7284,8.9551,8.7603,8.1178,7.4834,6.7103,0.0,0.0,0.0,0.0,0.0,0.0,0.0,0.0,0.0,0.0,0.0,0.0,0.0,0.0,0.0,0.0,0.0,0.0,0.0,0.0,0.0,0.0,0.0,0.0,0.0,0.0,0.0,0.0,0.0,0.0,0.0,0.0,0.0,0.0,0.0,0.0,0.0,0.0,0.0,0.0,0.0,0.0,0.0,0.0,0.0,0.0,0.0,0.0,0.0,0.0,0.0,0.0,0.0,0.0,0.0,0.0,0.0,0.0,0.0,0.0,0.0,0.0,0.0,0.0,0.0,0.0,0.0,0.0,0.0,0.0,0.0,0.0,0.0,0.0,0.0,0.0,0.0,0.0,0.0,0.0,0.0,0.0,0.0,0.0,0.0,0.0,0.0,0.0,0.0,0.0,0.0,0.0,0.0,0.0,0.0,0.0,0.0,0.0,0.0,0.0,0.0,0.0,0.0,0.0,0.0,0.0,0.0,0.0,0.0,8.1045,8.0952,7.7494,7.1012,6.7195,6.1299,0.0,0.0,0.0,0.0,0.0,0.0,0.0,0.0,0.0,0.0,0.0,0.0,0.0,0.0,0.0,0.0,0.0,0.0,0.0,0.0,0.0,0.0,0.0,0.0,0.0,0.0,0.0,0.0,0.0,0.0,0.0,0.0,0.0,0.0,0.0,0.0,0.0,0.0,0.0,0.0,0.0,0.0,0.0,0.0,0.0,0.0,0.0,0.0,0.0,0.0,0.0,0.0,0.0,0.0,0.0,0.0,0.0,0.0,0.0,0.0,0.0,0.0,0.0,0.0,0.0,0.0,0.0,0.0,0.0,0.0,0.0,0.0,0.0,0.0,0.0,0.0,0.0,0.0,0.0,0.0,0.0,0.0,0.0,0.0,0.0,0.0,0.0,0.0,0.0,0.0,0.0,0.0,0.0,0.0,0.0,0.0,0.0,0.0,0.0,0.0,0.0,0.0,0.0,0.0,0.0,0.0,0.0,0.0,0.0,7.2133,6.8095,6.5657,6.4702,6.0255,5.5287,0.0,0.0,0.0,0.0,0.0,0.0,0.0,0.0,0.0,0.0,0.0,0.0,0.0,0.0,0.0,0.0,0.0,0.0,0.0,0.0,0.0,0.0,0.0,0.0,0.0,0.0,0.0,0.0,0.0,0.0,0.0,0.0,0.0,0.0,0.0,0.0,0.0,0.0,0.0,0.0,0.0,0.0,0.0,0.0,0.0,0.0,0.0,0.0,0.0,0.0,0.0,0.0,0.0,0.0,0.0,0.0,0.0,0.0,0.0,0.0,0.0,0.0,0.0,0.0,0.0,0.0,0.0,0.0,0.0,0.0,0.0,0.0,0.0,0.0,0.0,0.0,0.0,0.0,0.0,0.0,0.0,0.0,0.0,0.0,0.0,0.0,0.0,0.0,0.0,0.0,0.0,0.0,0.0,0.0,0.0,0.0,0.0,0.0,0.0,0.0,0.0,0.0,0.0,0.0,0.0,0.0,0.0,0.0,0.0,6.008,5.8502,5.7554,5.7288,5.4545,5.0263,4.4254,0.0,0.0,0.0,0.0,0.0,0.0,0.0,0.0,0.0,0.0,0.0,0.0,0.0,0.0,0.0,0.0,0.0,0.0,0.0,0.0,0.0,0.0,0.0,0.0,0.0,0.0,0.0,0.0,0.0,0.0,0.0,0.0,0.0,0.0,0.0,0.0,0.0,0.0,0.0,0.0,0.0,0.0,0.0,0.0,0.0,0.0,0.0,0.0,0.0,0.0,0.0,0.0,0.0,0.0,0.0,0.0,0.0,0.0,0.0,0.0,0.0,0.0,0.0,0.0,0.0,0.0,0.0,0.0,0.0,0.0,0.0,0.0,0.0,0.0,0.0,0.0,0.0,0.0,0.0,0.0,0.0,0.0,0.0,0.0,0.0,0.0,0.0,0.0,0.0,0.0,0.0,0.0,0.0,0.0,0.0,0.0,0.0,0.0,0.0,0.0,0.0,0.0,0.0,0.0,0.0,0.0,0.0,0.0,5.122,5.176,5.1653,5.089,4.9837,4.6348,0.0,0.0,0.0,0.0,0.0,0.0,0.0,0.0,0.0,0.0,0.0,0.0,0.0,0.0,0.0,0.0,0.0,0.0,0.0,0.0,0.0,0.0,0.0,0.0,0.0,0.0,0.0,0.0,0.0,0.0,0.0,0.0,0.0,0.0,0.0,0.0,0.0,0.0,0.0,0.0,0.0,0.0,0.0,0.0,0.0,0.0,0.0,0.0,0.0,0.0,0.0,0.0,0.0,0.0,0.0,0.0,0.0,0.0,0.0,0.0,0.0,0.0,0.0,0.0,0.0,0.0,0.0,0.0,0.0,0.0,0.0,0.0,0.0,0.0,0.0,0.0,0.0,0.0,0.0,0.0,0.0,0.0,0.0,0.0,0.0,0.0,0.0,0.0,0.0,0.0,0.0,0.0,0.0,0.0,0.0,0.0,0.0,0.0,0.0,0.0,0.0,0.0,0.0,0.0,0.0,0.0,0.0,0.0,4.1639,4.6101,4.7858,4.7934,4.6251,4.6143,4.3682,0.0,0.0,0.0,0.0,0.0,0.0,0.0,0.0,0.0,0.0,0.0,0.0,0.0,0.0,0.0,0.0,0.0,0.0,0.0,0.0,0.0,0.0,0.0,0.0,0.0,0.0,0.0,0.0,0.0,0.0,0.0,0.0,0.0,0.0,0.0,0.0,0.0,0.0,0.0,0.0,0.0,0.0,0.0,0.0,0.0,0.0,0.0,0.0,0.0,0.0,0.0,0.0,0.0,0.0,0.0,0.0,0.0,0.0,0.0,0.0,0.0,0.0,0.0,0.0,0.0,0.0,0.0,0.0,0.0,0.0,0.0,0.0,0.0,0.0,0.0,0.0,0.0,0.0,0.0,0.0,0.0,0.0,0.0,0.0,0.0,0.0,0.0,0.0,0.0,0.0,0.0,0.0,0.0,0.0,0.0,0.0,0.0,0.0,0.0,0.0,0.0,0.0,0.0,0.0,0.0,0.0,0.0,0.0,0.0,3.9892,0.0,4.3751,4.3096,4.3068,4.1212,0.0,0.0,0.0,0.0,0.0,0.0,0.0,0.0,0.0,0.0,0.0,0.0,0.0,0.0,0.0,0.0,0.0,0.0,0.0,0.0,0.0,0.0,0.0,0.0,0.0,0.0,0.0,0.0,0.0,0.0,0.0,0.0,0.0,0.0,0.0,0.0,0.0,0.0,0.0,0.0,0.0,0.0,0.0,0.0,0.0,0.0,0.0,0.0,0.0,0.0,0.0,0.0,0.0,0.0,0.0,0.0,0.0,0.0,0.0,0.0,0.0,0.0,0.0,0.0,0.0,0.0,0.0,0.0,0.0,0.0,0.0,0.0,0.0,0.0,0.0,0.0,0.0,0.0,0.0,0.0,0.0,0.0,0.0,0.0,0.0,0.0,0.0,0.0,0.0,0.0,0.0,0.0,0.0,0.0,0.0,0.0,0.0,0.0,0.0,0.0,0.0,0.0,0.0,0.0,0.0,0.0,0.0,0.0,0.0,3.6097,3.918,4.0837,4.0795,4.1338,4.0,0.0,0.0,0.0,0.0,0.0,0.0,0.0,0.0,0.0,0.0,0.0,0.0,0.0,0.0,0.0,0.0,0.0,0.0,0.0,0.0,0.0,0.0,0.0,0.0,0.0,0.0,0.0,0.0,0.0,0.0,0.0,0.0,0.0,0.0,0.0,0.0,0.0,0.0,0.0,0.0,0.0,0.0,0.0,0.0,0.0,0.0,0.0,0.0,0.0,0.0,0.0,0.0,0.0,0.0,0.0,0.0,0.0,0.0,0.0,0.0,0.0,0.0,0.0,0.0,0.0,0.0,0.0,0.0,0.0,0.0,0.0,0.0,0.0,0.0,0.0,0.0,0.0,0.0,0.0,0.0,0.0,0.0,0.0,0.0,0.0,0.0,0.0,0.0,0.0,0.0,0.0,0.0,0.0,0.0,0.0,0.0,0.0,0.0,0.0,0.0,0.0,0.0,0.0,0.0,0.0,0.0,0.0,0.0,0.0,3.4626,3.7697,3.9243,3.9285,4.0773,4.0016,0.0,0.0,0.0,0.0,0.0,0.0,0.0,0.0,0.0,0.0,0.0,0.0,0.0,0.0,0.0,0.0,0.0,0.0,0.0,0.0,0.0,0.0,0.0,0.0,0.0,0.0,0.0,0.0,0.0,0.0,0.0,0.0,0.0,0.0,0.0,0.0,0.0,0.0,0.0,0.0,0.0,0.0,0.0,0.0,0.0,0.0,0.0,0.0,0.0,0.0,0.0,0.0,0.0,0.0,0.0,0.0,0.0,0.0,0.0,0.0,0.0,0.0,0.0,0.0,0.0,0.0,0.0,0.0,0.0,0.0,0.0,0.0,0.0,0.0,0.0,0.0,0.0,0.0,0.0,0.0,0.0,0.0,0.0,0.0,0.0,0.0,0.0,0.0,0.0,0.0,0.0,0.0,0.0,0.0,0.0,0.0,0.0,0.0,0.0,0.0,0.0,0.0,0.0,0.0,0.0,0.0,0.0,0.0,0.0,0.0,3.8163,3.9293,3.9265,3.9653,3.9427,3.8358,0.0,0.0,0.0,0.0,0.0,0.0,0.0,0.0,0.0,0.0,0.0,0.0,0.0,0.0,0.0,0.0,0.0,0.0,0.0,0.0,0.0,0.0,0.0,0.0,0.0,0.0,0.0,0.0,0.0,0.0,0.0,0.0,0.0,0.0,0.0,0.0,0.0,0.0,0.0,0.0,0.0,0.0,0.0,0.0,0.0,0.0,0.0,0.0,0.0,0.0,0.0,0.0,0.0,0.0,0.0,0.0,0.0,0.0,0.0,0.0,0.0,0.0,0.0,0.0,0.0,0.0,0.0,0.0,0.0,0.0,0.0,0.0,0.0,0.0,0.0,0.0,0.0,0.0,0.0,0.0,0.0,0.0,0.0,0.0,0.0,0.0,0.0,0.0,0.0,0.0,0.0,0.0,0.0,0.0,0.0,0.0,0.0,0.0,0.0,0.0,0.0,0.0,0.0,0.0,0.0,0.0,0.0,0.0,0.0,0.0,3.9239,3.9289,3.9346,3.9274,0.0,0.0,0.0,0.0,0.0,0.0,0.0,0.0,0.0,0.0,0.0,0.0,0.0,0.0,0.0,0.0,0.0,0.0,0.0,0.0,0.0,0.0,0.0,0.0,0.0,0.0,0.0,0.0,0.0,0.0,0.0,0.0,0.0,0.0,0.0,0.0,0.0,0.0,0.0,0.0,0.0,0.0,0.0,0.0,0.0,0.0,0.0,0.0,0.0,0.0,0.0,0.0,0.0,0.0,0.0,0.0,0.0,0.0,0.0,0.0,0.0,0.0,0.0,0.0,0.0,0.0,0.0,0.0,0.0,0.0,0.0,0.0,0.0,0.0,0.0,0.0,0.0,0.0,0.0,0.0,0.0,0.0,0.0,0.0,0.0,0.0,0.0,0.0,0.0,0.0,0.0,0.0,0.0,0.0,0.0,0.0,0.0,0.0,0.0,0.0,0.0,0.0,0.0,0.0,0.0,0.0,0.0,0.0,0.0,0.0,0.0,3.9245,3.9287,3.9389,0.0,3.9006,0.0,0.0,0.0,0.0,0.0,0.0,0.0,0.0,0.0,0.0,0.0,0.0,0.0,0.0,0.0,0.0,0.0,0.0,0.0,0.0,0.0,0.0,0.0,0.0,0.0,0.0,0.0,0.0,0.0,0.0,0.0,0.0,0.0,0.0,0.0,0.0,0.0,0.0,0.0,0.0,0.0,0.0,0.0,0.0,0.0,0.0,0.0,0.0,0.0,0.0,0.0,0.0,0.0,0.0,0.0,0.0,0.0,0.0,0.0,0.0,0.0,0.0,0.0,0.0,0.0,0.0,0.0,0.0,0.0,0.0,0.0,0.0,0.0,0.0,0.0,0.0,0.0,0.0,0.0,0.0,0.0,0.0,0.0,0.0,0.0,0.0,0.0,0.0,0.0,0.0,0.0,0.0,0.0,0.0,0.0,0.0,0.0,0.0,0.0,0.0,0.0,0.0,0.0,0.0,0.0,0.0,0.0,0.0,0.0,0.0,0.0,0.0,3.9389,3.9358,3.9257,0.0,0.0,0.0,0.0,0.0,0.0,0.0,0.0,0.0,0.0,0.0,0.0,0.0,0.0,0.0,0.0,0.0,0.0,0.0,0.0,0.0,0.0,0.0,0.0,0.0,0.0,0.0,0.0,0.0,0.0,0.0,0.0,0.0,0.0,0.0,0.0,0.0,0.0,0.0,0.0,0.0,0.0,0.0,0.0,0.0,0.0,0.0,0.0,0.0,0.0,0.0,0.0,0.0,0.0,0.0,0.0,0.0,0.0,0.0,0.0,0.0,0.0,0.0,0.0,0.0,0.0,0.0,0.0,0.0,0.0,0.0,0.0,0.0,0.0,0.0,0.0,0.0,0.0,0.0,0.0,0.0,0.0,0.0,0.0,0.0,0.0,0.0,0.0,0.0,0.0,0.0,0.0,0.0,0.0,0.0,0.0,0.0,0.0,0.0,0.0,0.0,0.0,0.0,0.0,0.0,0.0,0.0,0.0,0.0,0.0,3.9289,3.9289,3.9389,3.9369,3.9293,0.0,0.0,0.0,0.0,0.0,0.0,0.0,0.0,0.0,0.0,0.0,0.0,0.0,0.0,0.0,0.0,0.0,0.0,0.0,0.0,0.0,0.0,0.0,0.0,0.0,0.0,0.0,0.0,0.0,0.0,0.0,0.0,0.0,0.0,0.0,0.0,0.0,0.0,0.0,0.0,0.0,0.0,0.0,0.0,0.0,0.0,0.0,0.0,0.0,0.0,0.0,0.0,0.0,0.0,0.0,0.0,0.0,0.0,0.0,0.0,0.0,0.0,0.0,0.0,0.0,0.0,0.0,0.0,0.0,0.0,0.0,0.0,0.0,0.0,0.0,0.0,0.0,0.0,0.0,0.0,0.0,0.0,0.0,0.0,0.0,0.0,0.0,0.0,0.0,0.0,0.0,0.0,0.0,0.0,0.0,0.0,0.0,0.0,0.0,0.0,0.0,0.0,0.0,0.0,0.0,0.0,0.0,0.0,0.0,0.0,3.9293,0.0,0.0,0.0,3.8918,0.0,0.0,0.0,0.0,0.0,0.0,0.0,0.0,0.0,0.0,0.0,0.0,0.0,0.0,0.0,0.0,0.0,0.0,0.0,0.0,0.0,0.0,0.0,0.0,0.0,0.0,0.0,0.0,0.0,0.0,0.0,0.0,0.0,0.0,0.0,0.0,0.0,0.0,0.0,0.0,0.0,0.0,0.0,0.0,0.0,0.0,0.0,0.0,0.0,0.0,0.0,0.0,0.0,0.0,0.0,0.0,0.0,0.0,0.0,0.0,0.0,0.0,0.0,0.0,0.0,0.0,0.0,0.0,0.0,0.0,0.0,0.0,0.0,0.0,0.0,0.0,0.0,0.0,0.0,0.0,0.0,0.0,0.0,0.0,0.0,0.0,0.0,0.0,0.0,0.0,0.0,0.0,0.0,0.0,0.0,0.0,0.0,0.0,0.0,0.0,0.0,0.0,0.0,0.0,0.0,0.0,0.0,0.0,0.0,0.0,0.0,0.0,0.0,0.0,0.0,0.0,0.0,0.0,0.0,0.0,0.0,0.0,0.0,0.0,0.0,0.0,0.0,0.0,0.0,0.0,0.0,0.0,0.0,0.0,0.0,0.0,0.0,0.0,0.0,0.0,0.0,0.0,0.0,0.0,0.0,0.0,0.0,0.0,0.0,0.0,0.0,0.0,0.0,0.0,0.0,0.0,0.0,0.0,0.0,0.0,0.0,0.0,0.0,0.0,0.0,0.0,0.0,0.0,0.0,0.0,0.0,0.0,0.0,0.0,0.0,0.0,0.0,0.0,0.0,0.0,0.0,0.0,0.0,0.0,0.0,0.0,0.0,0.0,0.0,0.0,0.0,0.0,0.0,0.0,0.0,0.0,0.0,0.0,0.0,0.0,0.0,0.0,0.0,0.0,0.0,0.0,0.0,0.0,0.0,0.0,0.0,0.0,0.0,0.0,0.0,0.0,0.0,0.0,0.0,0.0,0.0,0.0,0.0,0.0,0.0,0.0,0.0,0.0,0.0,0.0,0.0,0.0,0.0,0.0,0.0,0.0,0.0,0.0,0.0,0.0,0.0,0.0,0.0,0.0,0.0,0.0,0.0,0.0,0.0,0.0,0.0,0.0,0.0,0.0,0.0,0.0,0.0,0.0,0.0,0.0,0.0,0.0,0.0,0.0,0.0,0.0,0.0,0.0,0.0,0.0,0.0,0.0,0.0,0.0,0.0,0.0,0.0,0.0,0.0,0.0,0.0,0.0,0.0,0.0,0.0,0.0,0.0,0.0,0.0,0.0,0.0,0.0,0.0,0.0,0.0,0.0,0.0,0.0,0.0,0.0,0.0,0.0,0.0,0.0,0.0,0.0,0.0,0.0,0.0,0.0,0.0,0.0,0.0,0.0,0.0,0.0,0.0,0.0,0.0,0.0,0.0,0.0,0.0,0.0,0.0,0.0,0.0,0.0,0.0,0.0,0.0,0.0,0.0,0.0,0.0,0.0,0.0,0.0,0.0,0.0,0.0,0.0,0.0,0.0,0.0,0.0,0.0,0.0,0.0,0.0,0.0,0.0,0.0,0.0,0.0,0.0,0.0,0.0,0.0,0.0,0.0,0.0,0.0,0.0,0.0,0.0,0.0,0.0,0.0,0.0,0.0,0.0,0.0,0.0,0.0,0.0,0.0,0.0,0.0,0.0,0.0,0.0,0.0,0.0,0.0,0.0,0.0,0.0,0.0,0.0,0.0,0.0,0.0,0.0,0.0,0.0,0.0,0.0,0.0,0.0,0.0,0.0,0.0,0.0,0.0,0.0,0.0,0.0,0.0,0.0,0.0,0.0,0.0,0.0,0.0,0.0,0.0,0.0,0.0,0.0,0.0,0.0,0.0,0.0,0.0,0.0,0.0,0.0,0.0,0.0,0.0,0.0,0.0,0.0,0.0,0.0,0.0,0.0,0.0,0.0,0.0,0.0,0.0,0.0,0.0,0.0,0.0,0.0,0.0,0.0,0.0,0.0,0.0,0.0,0.0,0.0,0.0,0.0,0.0,0.0,0.0,0.0,0.0,0.0,0.0,0.0,0.0,0.0,0.0,0.0,0.0,0.0,0.0,0.0,0.0,0.0,0.0,0.0,0.0,0.0,0.0,0.0,0.0,0.0,0.0,0.0,0.0,0.0,0.0,0.0,0.0,0.0,0.0,0.0,0.0,0.0,0.0,0.0,0.0,0.0,0.0,0.0,0.0,0.0,0.0,0.0,0.0,0.0,0.0,0.0,0.0,0.0,0.0,0.0,0.0,0.0,0.0,0.0,0.0,0.0,0.0,0.0,0.0,0.0,0.0,0.0,0.0,0.0,0.0,0.0,0.0,0.0,0.0,0.0,0.0,0.0,0.0,0.0,0.0,0.0,0.0,0.0,0.0,0.0,0.0,0.0,0.0,0.0,0.0,0.0,0.0,0.0,0.0,0.0,0.0,0.0,0.0,0.0,0.0,0.0,0.0,0.0,0.0,0.0,0.0,0.0,0.0,0.0,0.0,0.0,0.0,0.0,0.0,0.0,0.0,0.0,0.0,0.0,0.0,0.0,0.0,0.0,0.0,0.0,0.0,0.0,0.0,0.0,0.0,0.0,0.0,0.0,0.0,0.0,0.0,0.0,0.0,0.0,0.0,0.0,0.0,0.0,0.0,0.0,0.0,0.0,0.0,0.0,0.0,0.0,0.0,0.0,0.0,0.0,0.0,0.0,0.0,0.0,0.0,0.0,0.0,0.0,0.0,0.0,0.0,0.0,0.0,0.0,0.0,0.0,0.0,0.0,0.0,0.0,0.0,0.0,0.0,0.0,0.0,0.0,0.0,0.0,0.0,0.0,0.0,0.0,0.0,0.0,0.0,0.0,0.0,0.0,0.0,0.0,0.0,0.0,0.0,0.0,0.0,0.0,0.0,0.0,0.0,0.0,0.0,0.0,0.0,0.0,0.0,0.0,0.0,0.0,0.0,0.0,0.0,0.0,0.0,0.0,0.0,0.0,0.0,0.0,0.0,0.0,0.0,0.0,0.0,0.0,0.0,0.0,0.0,0.0,0.0,0.0,0.0,0.0,0.0,0.0,0.0,0.0,0.0,0.0,0.0,0.0,0.0,0.0,0.0,0.0,0.0,0.0,0.0,0.0,0.0,0.0,0.0,0.0,0.0,0.0,0.0,0.0,0.0,0.0,0.0,0.0,0.0,0.0,0.0,0.0,0.0,0.0,0.0,0.0,0.0,0.0,0.0,0.0,0.0,0.0,0.0,0.0,0.0,0.0,0.0,0.0,0.0,0.0,0.0,0.0,0.0,0.0,0.0,0.0,0.0,0.0,0.0,0.0,0.0,0.0,0.0,0.0,0.0,0.0,0.0,0.0,0.0,0.0,0.0,0.0,0.0,0.0,0.0,0.0,0.0,0.0,0.0,0.0,0.0,0.0,0.0,0.0,0.0,0.0,0.0,0.0,0.0,0.0,0.0,0.0,0.0,0.0,0.0,0.0,0.0,0.0,0.0,0.0,0.0,0.0,0.0,0.0,0.0,0.0,0.0,0.0,0.0,0.0,0.0,0.0,0.0,0.0,0.0,0.0,0.0,0.0,0.0,0.0,0.0,0.0,0.0,0.0,0.0,0.0,0.0,0.0,0.0,0.0,0.0,0.0,0.0,0.0,0.0,0.0,0.0,0.0,0.0,0.0,0.0,0.0,0.0,0.0,0.0,0.0,0.0,0.0,0.0,0.0,0.0,0.0,0.0,0.0,0.0,0.0,0.0,0.0,0.0,0.0,0.0,0.0,0.0,0.0,0.0,0.0,0.0,0.0,0.0,0.0,0.0,0.0,0.0,0.0,0.0,0.0,0.0,0.0,0.0,0.0,0.0,0.0,0.0,0.0,0.0,0.0,0.0,0.0,0.0,0.0,0.0,0.0,0.0,0.0,0.0,0.0,0.0,0.0,0.0,0.0,0.0,0.0,0.0,0.0,0.0,0.0,0.0,0.0,0.0,0.0,0.0,0.0,0.0,0.0,0.0,0.0,0.0,0.0,0.0,0.0,0.0,0.0,0.0,0.0,0.0,0.0,0.0,0.0,0.0,0.0,0.0,0.0,0.0,0.0,0.0,0.0,0.0,0.0,0.0,0.0,0.0,0.0,0.0,0.0,0.0,0.0,0.0,0.0,0.0,0.0,0.0,0.0,0.0,0.0,0.0,0.0,0.0,0.0,0.0,0.0,0.0,0.0,0.0,0.0,0.0,0.0,0.0,0.0,0.0,0.0,0.0,0.0,0.0,0.0,0.0,0.0,0.0,0.0,0.0,0.0,0.0,0.0,0.0,0.0,0.0,0.0,0.0,0.0,0.0,0.0,0.0,0.0]}],[{"header":{"parameterUnit":"kt","parameterCategory":2,"dx":1,"dy":1,"la1":29.587661999999998,"la2":31.0,"lo1":-88.76705300000003,"lo2":-86.6583820000003,"nx":115,"ny":88,"refTime":"2022-10-26T00:00:00:Z","depth":0,"parameterNumber":2,"parameterNumberName":"V-component_of_WINDS"},"data":[8.714,8.6393,8.6206,8.6143,8.6143,8.6143,8.6143,8.6143,8.6143,8.6143,8.6143,8.6143,8.6143,8.6143,8.6283,8.6487,8.6813,8.7561,8.7841,8.8245,8.918,9.0145,9.0986,9.1594,9.1766,9.2047,9.2327,9.2327,9.2327,9.2327,9.2327,9.2327,9.2327,9.2327,9.2327,9.2327,9.2327,9.2327,9.228,9.2248,9.2234,9.2234,9.2327,9.2327,9.2295,9.1811,9.1357,9.1163,9.0544,8.9649,8.8708,8.7672,8.6874,8.6207,8.5704,8.5008,8.3825,8.2611,8.1442,8.0021,7.8634,7.7116,7.5772,7.3843,7.2096,7.0473,6.9691,6.8346,6.7926,6.7262,6.6731,6.6483,6.6447,6.6591,6.6698,6.705,6.7119,6.6873,6.6627,6.634,6.5948,6.5734,6.5734,6.5734,6.5734,6.5734,6.5734,6.5734,6.5734,6.5734,6.5734,6.5734,6.5734,6.5734,6.5734,6.5734,6.5734,6.5734,6.5734,6.5734,6.5734,6.5734,6.5734,6.5734,6.5734,6.5734,6.5734,6.5734,6.5734,6.5734,6.5734,6.5734,6.5734,6.5734,6.5734,8.7607,8.7327,8.6487,8.6143,8.6143,8.6143,8.6143,8.6143,8.6143,8.6143,8.6206,8.6206,8.6143,8.647,8.6984,8.728,8.7747,8.8619,8.9507,9.0005,9.0394,9.108,9.1641,9.2015,9.2093,9.2234,9.2327,9.2327,9.2327,9.2327,9.2327,9.2327,9.2327,9.2327,9.2327,9.2327,9.2327,9.2327,9.2327,9.2327,9.2327,9.2327,9.2327,9.2327,9.2198,9.1617,9.0759,9.0042,8.9202,8.8081,8.6651,8.5815,8.5075,8.4155,8.3647,8.3077,8.1916,8.0886,7.9844,7.8421,7.7023,7.5722,7.4623,7.3114,7.1319,7.0252,6.9899,6.9295,6.9083,6.8586,6.8051,6.7696,6.7696,6.7731,6.7768,6.7909,6.7623,6.7304,6.7054,6.6804,6.6304,6.5772,6.57,6.5734,6.5734,6.5734,6.5734,6.5734,6.5734,6.5734,6.5734,6.5734,6.5734,6.5734,6.5734,6.5734,6.5734,6.5734,6.5734,6.5734,6.5734,6.5734,6.5734,6.5734,6.5734,6.5734,6.5734,6.5734,6.5734,6.5734,6.5734,6.5734,6.5734,6.5734,6.5734,8.8712,8.7561,8.6533,8.6143,8.6143,8.6143,8.6143,8.6143,8.6143,8.644,8.6907,8.7,8.7358,8.8012,8.8292,8.8526,8.8712,8.9631,9.0379,9.094,9.122,9.1906,9.2093,9.2234,9.2327,9.2327,9.2327,9.2327,9.2327,9.2327,9.2327,9.2327,9.2327,9.2327,9.2327,9.2327,9.2327,9.2327,9.2327,9.2327,9.2327,9.2327,9.2327,9.2327,9.2101,9.1487,9.0694,9.0074,8.8894,8.7351,8.5714,8.4772,8.3214,8.219,8.1642,8.1092,8.0196,7.8948,7.8037,7.6883,7.5583,7.445,7.3346,7.2667,7.087,7.037,7.0013,6.9584,6.937,6.9121,6.8586,6.8373,6.8337,6.8479,6.8551,6.8622,6.8479,6.8159,6.7838,6.7445,6.6732,6.6198,6.5843,6.5841,6.5734,6.5734,6.5734,6.5734,6.5734,6.5734,6.5734,6.5734,6.5734,6.5734,6.5734,6.5734,6.5734,6.5734,6.5734,6.5734,6.5734,6.5734,6.5734,6.5734,6.5734,6.5734,6.5734,6.5734,6.5734,6.5734,6.5734,6.5734,6.5734,6.5734,6.577,8.9865,8.837,8.7031,8.63,8.616,8.6143,8.6143,8.6113,8.6377,8.6907,8.7607,8.7934,8.8432,8.9039,8.9398,8.9585,8.9787,9.0613,9.1033,9.1501,9.186,9.2234,9.2327,9.2327,9.2327,9.2327,9.2327,9.2327,9.2327,9.2327,9.2327,9.2327,9.2327,9.2327,9.2327,9.2327,9.2327,9.2327,9.2327,9.2327,9.2327,9.2327,9.2327,9.2327,9.2198,9.1584,9.0661,9.0074,8.8828,8.7118,8.5647,8.3859,8.1779,8.061,7.9954,7.9504,7.8496,7.7693,7.6746,7.5513,7.4344,7.3276,7.2346,7.1629,7.1089,7.0693,7.0226,6.9762,6.9441,6.9156,6.8907,6.8836,6.88,6.8978,6.9156,6.9335,6.9477,6.9156,6.8835,6.8087,6.7196,6.6661,6.6162,6.5948,6.5805,6.5734,6.5734,6.5734,6.5734,6.5734,6.5734,6.5734,6.5734,6.5734,6.5734,6.5734,6.5734,6.5734,6.577,6.577,6.5734,6.5734,6.5734,6.5734,6.5734,6.5734,6.5734,6.5734,6.5734,6.5734,6.5734,6.5734,6.5734,6.5843,6.5877,9.0659,9.0286,8.8385,8.7,8.6206,8.6113,8.616,8.6236,8.7217,8.7607,8.7934,8.8712,8.9226,8.974,9.0332,9.0613,9.094,9.1501,9.1874,9.2234,9.2327,9.2327,9.2327,9.2327,9.2327,9.2327,9.2327,9.2327,9.2327,9.2327,9.2327,9.2327,9.2327,9.2327,9.2327,9.2327,9.2327,9.2327,9.2327,9.2327,9.2327,9.2327,9.2327,9.2327,9.2134,9.1635,9.0596,8.9747,8.8972,8.6885,8.5176,8.3893,8.1814,8.0023,7.853,7.7658,7.6992,7.643,7.5795,7.4379,7.3348,7.2454,7.1377,7.0837,7.0657,7.044,7.0368,7.0047,6.994,6.9727,6.962,6.9548,6.9548,6.9655,6.9762,6.9833,6.9976,6.9834,6.9513,6.8978,6.8051,6.7017,6.6554,6.5912,6.5734,6.5734,6.5734,6.5734,6.5734,6.5734,6.5734,6.5734,6.5734,6.5734,6.577,6.5877,6.5805,6.577,6.5805,6.5805,6.5734,6.5734,6.5734,6.5734,6.5734,6.5734,6.5734,6.5734,6.5734,6.5734,6.5734,6.5734,6.5841,6.5985,6.6199,9.1345,9.0613,8.9211,8.8012,8.7,8.6423,8.6937,8.7965,8.8385,8.8993,8.9538,9.0005,9.0551,9.0986,9.1407,9.1641,9.1687,9.214,9.2327,9.2327,9.2327,9.2374,9.2327,9.2327,9.2467,9.2327,9.2327,9.2561,9.2327,9.2327,9.2327,9.2327,9.2327,9.2327,9.2327,9.2327,9.2327,9.2327,9.2327,9.2327,9.2327,9.2327,9.2327,9.2327,9.2327,9.1519,9.0401,9.0205,8.8696,8.6484,8.5388,8.3893,8.1779,8.0058,7.86,7.6746,7.6007,7.5657,7.5268,7.3705,7.2991,7.231,7.1305,7.0585,7.0368,7.0368,7.0368,7.0368,7.0368,7.0368,7.0368,7.0368,7.0368,7.0368,7.0368,7.0368,7.0368,7.0368,7.0083,6.9655,6.8871,6.7766,6.6839,6.6126,6.5734,6.5734,6.5734,6.5734,6.5734,6.5734,6.5734,6.5734,6.5734,6.5734,6.5984,6.6092,6.6055,6.5984,6.6055,6.6055,6.577,6.5734,6.5734,6.5734,6.5734,6.5734,6.5734,6.5734,6.577,6.5734,6.5734,6.6199,6.6627,6.6628,6.6947,9.2067,9.1127,9.0099,8.9226,8.8432,8.7498,8.7794,8.918,8.9585,9.0005,9.08,9.108,9.1532,9.228,9.2327,9.228,9.228,9.2327,9.2327,9.2514,9.2748,9.2748,9.2935,9.3215,9.3262,9.3309,9.3309,9.3449,9.3215,9.2795,9.2795,9.2374,9.2327,9.2327,9.2327,9.2327,9.2327,9.2327,9.2327,9.2327,9.2327,9.2327,9.2327,9.2327,9.2327,9.1778,9.0805,9.0368,8.9091,8.6885,8.569,8.413,8.1985,8.0328,7.8739,7.6676,7.5619,7.5018,7.477,7.3561,7.2668,7.2382,7.1233,7.0549,7.0368,7.0368,7.0368,7.0368,7.0368,7.0368,7.0368,7.0368,7.0368,7.0368,7.0368,7.0368,7.0368,7.0368,7.0333,6.9976,6.9762,6.8657,6.7446,6.6662,6.5984,6.5841,6.5734,6.5734,6.5734,6.5734,6.5734,6.5734,6.5734,6.5734,6.5948,6.652,6.6376,6.6269,6.6483,6.6554,6.6269,6.5984,6.5805,6.5734,6.5734,6.5734,6.5738,6.5841,6.5912,6.5877,6.6233,6.6947,6.7483,6.7554,6.7838,9.2906,9.2172,9.1127,9.0613,9.0504,8.9538,8.918,8.9398,9.0332,9.0785,9.0846,9.1828,9.2187,9.228,9.2388,9.2435,9.2514,9.2575,9.2654,9.2841,9.3496,9.3683,9.4104,9.4557,9.4511,9.4931,9.4838,9.423,9.4965,9.3762,9.2888,9.2514,9.2327,9.2467,9.2608,9.2748,9.2888,9.2935,9.2935,9.2841,9.2654,9.2514,9.2514,9.2327,9.2263,9.1875,9.1292,9.0577,8.9387,8.7804,8.6083,8.4434,8.2592,8.0673,7.8943,7.7268,7.5795,7.5265,7.4805,7.3525,7.2811,7.2274,7.1161,7.0585,7.0368,7.0368,7.0368,7.0368,7.0368,7.0368,7.0368,7.0368,7.0368,7.0368,7.0368,7.0368,7.0368,7.0368,7.0368,7.0261,7.0047,6.9263,6.8016,6.709,6.6376,6.6091,6.5734,6.5734,6.5734,6.5734,6.577,6.5772,6.588,6.5843,6.6304,6.6982,6.6982,6.6947,6.7124,6.7338,6.6768,6.6449,6.6449,6.6376,6.6019,6.5813,6.5859,6.5964,6.6167,6.659,6.7017,6.7696,6.8551,6.8622,6.8729,9.3163,9.2844,9.1333,9.0753,9.08,9.1127,9.1267,9.1314,9.1626,9.1813,9.186,9.214,9.2327,9.2561,9.2982,9.3309,9.3435,9.3963,9.4324,9.4384,9.4791,9.4838,9.4978,9.5212,9.5306,9.4511,9.4324,9.4136,9.3809,9.3154,9.2795,9.2514,9.2327,9.2654,9.3388,9.3903,9.423,9.4136,9.4043,9.3903,9.3482,9.3201,9.2982,9.2561,9.223,9.2037,9.1455,9.0838,9.0087,8.8333,8.6741,8.5268,8.3035,8.1051,7.9255,7.7658,7.6253,7.5619,7.4805,7.3561,7.2525,7.2024,7.0981,7.0404,7.0368,7.0368,7.0368,7.0368,7.0368,7.0368,7.0368,7.0368,7.0368,7.0368,7.0368,7.0297,7.0297,7.0368,7.0368,7.0368,7.0119,6.9228,6.8266,6.7517,6.6839,6.6304,6.5805,6.5734,6.5734,6.5805,6.5807,6.6097,6.6279,6.6561,6.6987,6.7554,6.7696,6.766,6.7945,6.8301,6.7803,6.7197,6.7268,6.7232,6.7013,6.6766,6.6393,6.6503,6.7131,6.7624,6.7945,6.8622,6.9406,6.9655,6.9762,9.3738,9.3212,9.209,9.149,9.1439,9.2047,9.2327,9.2327,9.2327,9.2327,9.2327,9.2327,9.2467,9.2982,9.3543,9.4043,9.4417,9.5306,9.5446,9.5446,9.582,9.5914,9.5994,9.5994,9.5713,9.5025,9.4464,9.4136,9.3201,9.3169,9.2982,9.2701,9.2701,9.2935,9.3903,9.4838,9.5446,9.5446,9.5399,9.5165,9.4431,9.4043,9.3543,9.2935,9.2514,9.218,9.1778,9.1436,9.0544,8.9091,8.7837,8.614,8.3961,8.2259,8.0231,7.8042,7.6922,7.6077,7.4911,7.3632,7.2382,7.1629,7.0837,7.0404,7.0368,7.0368,7.0368,7.0368,7.0368,7.0368,7.0368,7.0368,7.019,7.019,7.0368,7.0297,7.0189,7.0225,7.0368,7.0368,7.0368,6.9584,6.9014,6.8408,6.7623,6.6983,6.6947,6.6805,6.6695,6.6554,6.6552,6.6844,6.7061,6.7345,6.7735,6.8302,6.8515,6.8444,6.8658,6.9014,6.8658,6.8053,6.8156,6.8679,6.8287,6.7828,6.7099,6.6753,6.7737,6.8693,6.9121,6.9691,6.9976,7.0154,7.0368,9.4598,9.3387,9.3244,9.2906,9.2471,9.2406,9.2374,9.2327,9.2327,9.2327,9.2327,9.2514,9.2982,9.3716,9.423,9.4838,9.5399,9.568,9.5867,9.6147,9.6708,9.6929,9.6929,9.6695,9.6321,9.6602,9.5539,9.4744,9.4744,9.3683,9.3496,9.3262,9.2982,9.3122,9.3996,9.5025,9.5539,9.5619,9.576,9.576,9.5386,9.4777,9.437,9.3762,9.3122,9.2701,9.2349,9.1964,9.1,8.9813,8.8663,8.6985,8.484,8.3282,8.123,7.86,7.7583,7.6465,7.5124,7.3561,7.2346,7.1413,7.0729,7.0368,7.0368,7.0368,7.0368,7.0368,7.0368,7.0368,7.0368,7.0333,7.0012,6.9941,7.0261,7.0297,7.0011,6.994,7.0225,7.0368,7.0368,7.0261,6.9762,6.9192,6.8301,6.8016,6.8052,6.8016,6.7907,6.787,6.7939,6.8084,6.8122,6.8408,6.8694,6.9121,6.9263,6.9263,6.9299,6.9406,6.9192,6.8943,6.9365,6.9994,6.9639,6.8935,6.8019,6.7106,6.8341,6.9548,7.0047,7.019,7.0297,7.0368,7.0368,9.4915,9.4105,9.3547,9.3652,9.4118,9.3677,9.2982,9.2421,9.2374,9.2327,9.2374,9.3122,9.3669,9.4277,9.5212,9.6274,9.6602,9.7129,9.7469,9.7563,9.7563,9.755,9.7223,9.6755,9.6101,9.4931,9.437,9.3903,9.3449,9.2982,9.2982,9.3122,9.3248,9.3996,9.5119,9.6615,9.761,9.761,9.755,9.7363,9.6602,9.6134,9.5807,9.4885,9.3963,9.3529,9.3244,9.2535,9.1575,9.044,8.9235,8.755,8.5479,8.3452,8.1566,7.9637,7.7968,7.6816,7.5548,7.4026,7.2167,7.1233,7.0549,7.0404,7.0368,7.0368,7.0368,7.0368,7.0368,7.0368,7.0368,7.0368,7.0119,6.9869,7.019,7.0333,7.0047,6.994,7.019,7.0368,7.0368,7.0333,6.9905,6.9584,6.8943,6.8836,6.8729,6.8515,6.8656,6.8904,6.9046,6.9047,6.9084,6.9334,6.962,6.9727,6.9798,6.9762,6.9762,6.9869,6.9905,6.9976,7.0227,7.0332,7.0223,6.9939,6.9405,6.8907,6.9513,7.0298,7.0297,7.0297,7.0368,7.0368,7.0368,9.6049,9.5428,9.5363,9.5435,9.5609,9.5183,9.4399,9.3655,9.3496,9.3575,9.3636,9.4183,9.4698,9.5306,9.6602,9.7163,9.7691,9.8311,9.837,9.8498,9.8077,9.7597,9.6849,9.6087,9.5212,9.4183,9.3482,9.2841,9.2374,9.2467,9.2467,9.2982,9.3543,9.4698,9.5853,9.7083,9.7937,9.8264,9.8404,9.8311,9.755,9.727,9.6695,9.5994,9.5025,9.4557,9.4324,9.3482,9.2182,9.1003,9.0028,8.8026,8.5781,8.4087,8.2183,8.0127,7.8142,7.6992,7.5939,7.4061,7.2382,7.1305,7.0693,7.0368,7.0368,7.0368,7.0368,7.0368,7.0368,7.0368,7.0368,7.0368,7.0261,7.0119,7.0083,7.0299,7.0263,7.0226,7.0369,7.0368,7.0368,7.0368,7.0154,6.9941,6.9727,6.9548,6.9228,6.9049,6.9441,6.9762,6.9727,6.9727,6.9798,7.0012,7.0048,7.0154,7.0333,7.0297,7.0297,7.0226,7.019,7.0368,7.0369,7.0369,7.0263,7.0156,7.012,7.0299,7.0335,7.0333,7.0333,7.0368,7.0368,7.0368,7.0368,9.7623,9.7272,9.8319,9.8016,9.6782,9.6683,9.6205,9.5198,9.5306,9.5245,9.5119,9.5446,9.5853,9.6742,9.7116,9.7737,9.8498,9.851,9.8404,9.8065,9.7537,9.6896,9.6007,9.4978,9.3949,9.3529,9.2982,9.2561,9.2327,9.2467,9.3122,9.387,9.4337,9.5399,9.6508,9.7316,9.7937,9.837,9.851,9.8451,9.8171,9.7737,9.721,9.6849,9.6147,9.5539,9.5493,9.4557,9.3246,9.1617,9.0804,8.9044,8.6327,8.4671,8.2865,8.0748,7.8665,7.7272,7.6151,7.4452,7.299,7.2274,7.1485,7.0549,7.0368,7.0368,7.0368,7.0368,7.0368,7.0368,7.0368,7.0333,7.0119,7.0012,7.0119,7.0298,7.0334,7.0369,7.0333,7.0368,7.0368,7.0368,7.0226,7.019,7.0012,6.9976,6.9727,6.9655,7.0048,7.0156,7.0191,7.0226,7.0333,7.0369,7.0332,7.0368,7.0368,7.0368,7.0368,7.0368,7.0368,7.0368,7.0368,7.0333,7.0369,7.0369,7.0369,7.037,7.037,7.0333,7.0368,7.0368,7.0368,7.0368,7.0368,9.8398,9.9162,10.0484,10.0042,9.8491,9.7891,9.683,9.5573,9.5539,9.5493,9.5446,9.5539,9.6087,9.6976,9.7784,9.8171,9.851,9.851,9.8077,9.755,9.6976,9.6087,9.5025,9.437,9.3449,9.2654,9.2421,9.2421,9.2608,9.3028,9.3543,9.3949,9.5259,9.6381,9.7116,9.7691,9.8124,9.851,9.851,9.851,9.8464,9.8217,9.8124,9.7831,9.727,9.6602,9.6462,9.5519,9.383,9.2287,9.1373,8.9581,8.6737,8.5051,8.3418,8.1326,7.9191,7.7658,7.6465,7.4914,7.3527,7.2669,7.1772,7.0873,7.0513,7.0368,7.0368,7.0368,7.0368,7.0368,7.0368,7.0368,7.019,7.0154,7.019,7.0298,7.0334,7.0333,7.0368,7.0368,7.0368,7.0368,7.0368,7.0368,7.0368,7.0368,7.0368,7.0333,7.0369,7.0333,7.0332,7.0295,7.0367,7.0367,7.0367,7.0368,7.0368,7.0368,7.0368,7.0368,7.0368,7.0368,7.0368,7.0368,7.0368,7.0368,7.0368,7.0368,7.0368,7.0368,7.0368,7.0368,7.0368,7.0368,7.0368,9.9372,10.0462,10.1771,10.1326,9.9857,9.9372,9.8264,9.6984,9.6802,9.6802,9.6768,9.6802,9.7049,9.7691,9.8217,9.851,9.8451,9.803,9.7503,9.7116,9.596,9.5011,9.3996,9.3402,9.3028,9.2467,9.2327,9.2421,9.3075,9.3636,9.4511,9.5259,9.6334,9.7163,9.7831,9.8264,9.8464,9.851,9.851,9.851,9.851,9.851,9.851,9.8464,9.7629,9.7213,9.6797,9.5918,9.4195,9.2995,9.1599,8.9821,8.7286,8.5223,8.3655,8.1642,7.9573,7.8077,7.7058,7.5056,7.3705,7.2777,7.1988,7.1197,7.0585,7.0368,7.0368,7.0368,7.0368,7.0368,7.0368,7.0368,7.0368,7.0368,7.0333,7.0369,7.0369,7.0368,7.0368,7.0368,7.0368,7.0368,7.0368,7.0404,7.044,7.0546,7.0688,7.0867,7.0938,7.1118,7.1154,7.0793,7.065,7.0506,7.0507,7.0653,7.0688,7.0617,7.0617,7.0511,7.044,7.0404,7.0368,7.0368,7.0367,7.0367,7.0368,7.0368,7.0368,7.0368,7.0368,7.0368,7.0368,7.0368,7.0368,10.0446,10.1374,10.2414,10.2015,10.0751,10.0568,9.9833,9.852,9.8323,9.851,9.8277,9.8417,9.837,9.8464,9.8545,9.8451,9.8077,9.7503,9.6883,9.6054,9.4885,9.4043,9.3529,9.2701,9.2467,9.2374,9.2327,9.2935,9.3669,9.4197,9.5306,9.6555,9.7036,9.7597,9.8264,9.8464,9.851,9.851,9.851,9.851,9.851,9.851,9.8441,9.82,9.7728,9.729,9.6852,9.5645,9.4317,9.3357,9.1754,8.9774,8.7449,8.5117,8.3348,8.1367,7.9573,7.7867,7.6848,7.523,7.3812,7.3063,7.2239,7.1341,7.0837,7.0549,7.0368,7.0368,7.0368,7.0368,7.0368,7.0368,7.0368,7.0368,7.0368,7.0368,7.0368,7.0368,7.0368,7.0368,7.0368,7.0368,7.0617,7.0582,7.0546,7.0867,7.1152,7.1471,7.183,7.2556,7.2811,7.2012,7.165,7.107,7.089,7.1114,7.1152,7.1009,7.0867,7.0725,7.0653,7.0546,7.0511,7.0511,7.0365,7.0364,7.0331,7.0368,7.0368,7.0368,7.0368,7.0368,7.0404,7.0368,7.0368,10.1081,10.1374,10.2414,10.2015,10.0799,10.0697,9.9881,9.8717,9.851,9.851,9.851,9.851,9.851,9.851,9.8417,9.8077,9.7304,9.7116,9.596,9.4885,9.3996,9.3388,9.2841,9.2374,9.2327,9.2327,9.2388,9.2888,9.4183,9.5399,9.6415,9.7163,9.7937,9.8404,9.8498,9.851,9.851,9.851,9.851,9.851,9.851,9.8476,9.8304,9.7636,9.7463,9.6978,9.6341,9.5141,9.3933,9.2794,9.1466,8.9738,8.6996,8.5563,8.3456,8.0387,7.8351,7.7237,7.6359,7.5233,7.4308,7.3527,7.2884,7.2131,7.1413,7.0729,7.0368,7.0368,7.0368,7.0368,7.0368,7.0368,7.0368,7.0368,7.0368,7.0368,7.0368,7.0368,7.0368,7.0367,7.0368,7.0653,7.1259,7.133,7.1437,7.1722,7.2078,7.2362,7.2578,7.3491,7.3853,7.3088,7.2396,7.1701,7.1494,7.1721,7.1686,7.1615,7.1472,7.133,7.1116,7.0901,7.0905,7.1014,7.083,7.068,7.0437,7.0368,7.0688,7.0795,7.0475,7.0511,7.076,7.0831,7.0903,10.1569,10.2072,10.2609,10.2015,10.0833,10.0697,9.9881,9.8648,9.851,9.851,9.851,9.851,9.851,9.851,9.851,9.7937,9.6849,9.6134,9.4931,9.4057,9.3356,9.2795,9.2453,9.2327,9.2327,9.2467,9.2935,9.3903,9.5399,9.6521,9.721,9.7691,9.8217,9.851,9.851,9.8557,9.851,9.851,9.851,9.851,9.851,9.851,9.8131,9.7221,9.6457,9.5654,9.4908,9.3888,9.2446,9.1547,9.0361,8.8381,8.6197,8.4174,8.2091,7.9778,7.7753,7.6539,7.6151,7.5442,7.4699,7.3919,7.3134,7.2346,7.1593,7.0873,7.0404,7.0368,7.0368,7.0368,7.0368,7.0368,7.0368,7.0368,7.0368,7.0368,7.0368,7.0368,7.0329,7.0358,7.0685,7.1223,7.1792,7.2221,7.2363,7.2648,7.3004,7.3147,7.3254,7.398,7.4668,7.3973,7.339,7.27,7.2248,7.2326,7.229,7.229,7.2256,7.2149,7.197,7.1606,7.1541,7.1802,7.1507,7.1347,7.1105,7.0968,7.1256,7.1507,7.1436,7.1472,7.1437,7.1472,7.165,10.2024,10.282,10.282,10.2015,10.0799,10.0697,9.9881,9.8682,9.851,9.851,9.851,9.851,9.851,9.8451,9.8451,9.7797,9.6695,9.5119,9.387,9.3435,9.2841,9.2467,9.2327,9.2327,9.2467,9.2841,9.3963,9.5259,9.6508,9.7223,9.7784,9.8358,9.851,9.8545,9.8557,9.8778,9.8931,9.9012,9.8965,9.8965,9.8919,9.8663,9.8097,9.7013,9.5339,9.4294,9.3402,9.165,9.0323,9.0021,8.8442,8.6675,8.4611,8.2469,8.0685,7.903,7.7442,7.6418,7.5907,7.5301,7.4734,7.4061,7.3206,7.2382,7.1736,7.0945,7.044,7.0368,7.0368,7.0368,7.0368,7.0368,7.0368,7.0368,7.0368,7.0368,7.0368,7.0332,7.0365,7.0423,7.1107,7.1757,7.2434,7.2933,7.3254,7.361,7.3895,7.4038,7.4073,7.4542,7.5049,7.4643,7.4203,7.3603,7.3074,7.3109,7.3145,7.3252,7.3147,7.3003,7.275,7.2381,7.2604,7.3164,7.3125,7.2312,7.1874,7.1733,7.1883,7.2075,7.2326,7.2575,7.229,7.2078,7.2292,10.2673,10.282,10.282,10.2015,10.0799,10.0663,9.9881,9.8648,9.851,9.851,9.851,9.851,9.851,9.8358,9.7737,9.7223,9.6462,9.4838,9.3356,9.2841,9.2388,9.2374,9.2374,9.2514,9.2888,9.3823,9.5352,9.6381,9.7176,9.7797,9.8264,9.8464,9.8557,9.8732,9.8872,9.9339,9.9854,9.9888,9.9888,9.9854,9.9807,9.9152,9.8099,9.6755,9.4967,9.3535,9.2122,9.0467,8.9204,8.8588,8.7079,8.4756,8.2583,8.1019,8.0178,7.7897,7.7453,7.6678,7.5829,7.5276,7.5096,7.4876,7.3598,7.2705,7.2312,7.1449,7.0692,7.0475,7.0368,7.0368,7.0368,7.0368,7.0368,7.0368,7.0368,7.0368,7.0368,7.0332,7.0434,7.0527,7.1353,7.2397,7.3147,7.3717,7.4106,7.4498,7.4712,7.4854,7.4854,7.5035,7.5038,7.478,7.4671,7.4249,7.4142,7.4178,7.4285,7.4249,7.4,7.3859,7.3644,7.3463,7.3507,7.4248,7.4246,7.3289,7.2665,7.2734,7.2702,7.2534,7.2824,7.3181,7.3074,7.2718,7.2753,10.282,10.282,10.282,10.225,10.134,10.0867,10.0085,9.9116,9.8717,9.851,9.851,9.851,9.851,9.8417,9.7537,9.6649,9.5947,9.4557,9.3309,9.2514,9.2327,9.2327,9.2374,9.2888,9.3716,9.4824,9.6321,9.727,9.7784,9.8345,9.8557,9.851,9.9152,9.9293,9.9561,10.0403,10.0917,10.0964,10.0964,10.0917,10.0917,10.0415,9.948,9.7882,9.5145,9.2854,9.1092,8.8914,8.735,8.6141,8.4518,8.2612,8.1369,8.0309,7.9361,7.8187,7.777,7.7016,7.6455,7.6005,7.5817,7.6349,7.4455,7.3915,7.3554,7.2099,7.1154,7.0902,7.0653,7.0368,7.0368,7.0368,7.0368,7.0368,7.0368,7.0368,7.0368,7.0332,7.0579,7.1499,7.1857,7.2894,7.3822,7.4356,7.4747,7.4747,7.4961,7.4997,7.5032,7.5032,7.5032,7.5032,7.5032,7.5032,7.5032,7.5032,7.5032,7.4819,7.4569,7.443,7.4323,7.4368,7.4377,7.459,7.4766,7.3921,7.3634,7.3959,7.3997,7.3822,7.3715,7.3857,7.3893,7.375,7.3679,10.282,10.282,10.282,10.2451,10.1813,10.1036,10.0242,9.9445,9.882,9.851,9.851,9.851,9.851,9.8498,9.7457,9.6415,9.5446,9.4417,9.3341,9.2421,9.2327,9.2374,9.2888,9.3762,9.4744,9.582,9.6802,9.7737,9.8311,9.8498,9.8604,9.8965,9.9667,10.0181,10.0543,10.1432,10.1993,10.1993,10.1993,10.1993,10.1982,10.1677,10.0687,9.907,9.6173,9.3228,9.0465,8.7496,8.5442,8.4036,8.2399,8.1275,8.0783,7.9798,7.908,7.8625,7.8094,7.7642,7.7192,7.6735,7.6696,7.6639,7.513,7.4361,7.4802,7.289,7.1975,7.1686,7.108,7.0724,7.0653,7.051,7.0404,7.0368,7.0368,7.0368,7.0368,7.0368,7.1083,7.2081,7.2616,7.3181,7.4463,7.4676,7.4961,7.4997,7.5032,7.5032,7.5032,7.5032,7.5032,7.5032,7.5032,7.5032,7.5032,7.5032,7.5032,7.4926,7.4854,7.4783,7.4819,7.4827,7.4758,7.4898,7.5032,7.4961,7.4567,7.4747,7.4641,7.4819,7.489,7.4712,7.4605,7.4747,7.4712,10.282,10.282,10.282,10.2451,10.1813,10.0988,10.0344,9.9526,9.8923,9.8579,9.851,9.851,9.851,9.8498,9.7457,9.6462,9.5446,9.4417,9.3356,9.2701,9.2374,9.2795,9.3589,9.4604,9.5633,9.6695,9.7843,9.8358,9.8498,9.851,9.9012,9.9713,9.9994,10.0602,10.1572,10.2507,10.2975,10.3058,10.3022,10.3022,10.2928,10.2342,10.1301,9.9707,9.7755,9.4841,9.0722,8.7204,8.4925,8.2771,8.1087,8.0409,8.022,8.0182,7.9576,7.8819,7.848,7.7768,7.6795,7.7015,7.6902,7.5873,7.5392,7.4875,7.4243,7.3352,7.2577,7.2577,7.1827,7.1472,7.1294,7.0796,7.0511,7.0404,7.0475,7.0404,7.0368,7.0332,7.0978,7.2419,7.2694,7.3078,7.3822,7.4498,7.5032,7.5032,7.5032,7.5032,7.5032,7.5032,7.5032,7.5032,7.5032,7.5032,7.5032,7.5032,7.5032,7.5032,7.5032,7.5032,7.5032,7.5032,7.5032,7.5032,7.5032,7.5032,7.5032,7.5032,7.4961,7.5032,7.5032,7.5032,7.5032,7.5032,7.5032,10.282,10.282,10.282,10.2652,10.2351,10.1678,10.0934,10.014,9.9424,9.891,9.8579,9.851,9.851,9.8417,9.7491,9.6742,9.6181,9.4651,9.3683,9.3122,9.2608,9.2935,9.387,9.4931,9.5994,9.7023,9.8065,9.8464,9.851,9.851,9.9152,9.9994,10.0695,10.1525,10.2507,10.3536,10.4014,10.3967,10.4014,10.4014,10.405,10.3547,10.2445,10.1043,9.9364,9.6865,9.2488,8.7779,8.4407,8.2659,8.1388,8.056,8.0145,7.9615,7.9124,7.8785,7.8295,7.7807,7.7134,7.6838,7.6764,7.646,7.5456,7.5228,7.5032,7.4101,7.3361,7.3289,7.2648,7.2041,7.1614,7.1258,7.0867,7.0653,7.1224,7.1759,7.1685,7.165,7.2078,7.2536,7.3107,7.3681,7.4501,7.4819,7.4997,7.5032,7.5032,7.5032,7.5032,7.5032,7.5032,7.5032,7.5032,7.5032,7.5032,7.5032,7.5032,7.5032,7.5032,7.5032,7.5032,7.5032,7.5032,7.5032,7.5032,7.5032,7.5032,7.5032,7.5032,7.5032,7.5032,7.5032,7.5032,7.5032,7.5032,10.282,10.282,10.282,10.282,10.2719,10.2149,10.1543,10.0934,9.9969,9.9253,9.8888,9.8648,9.851,9.8464,9.7737,9.7257,9.6695,9.5446,9.4557,9.3856,9.3028,9.3122,9.3589,9.4791,9.6147,9.7397,9.8217,9.851,9.851,9.851,9.914,10.0087,10.1104,10.2133,10.3162,10.4061,10.4539,10.4585,10.4585,10.4539,10.4539,10.4492,10.389,10.2492,10.0413,9.7855,9.4752,8.9115,8.511,8.3181,8.18,8.0635,8.0069,7.9237,7.8783,7.8593,7.8022,7.7525,7.7226,7.6935,7.6747,7.6842,7.5875,7.5573,7.5999,7.4845,7.4328,7.4,7.343,7.2753,7.229,7.197,7.165,7.1223,7.1936,7.2614,7.276,7.283,7.275,7.2911,7.3459,7.3964,7.4501,7.4819,7.5032,7.5032,7.5032,7.5032,7.5032,7.5032,7.5032,7.5032,7.5032,7.5032,7.5032,7.5032,7.5032,7.5032,7.5032,7.5032,7.5032,7.5032,7.5032,7.5032,7.5032,7.5032,7.5032,7.5032,7.5032,7.5032,7.5032,7.5032,7.5032,7.5032,7.5032,10.282,10.282,10.282,10.282,10.2753,10.2168,10.188,10.1543,10.0276,9.9547,9.9321,9.8773,9.851,9.8545,9.837,9.7878,9.7083,9.6649,9.5713,9.4464,9.3903,9.3356,9.3108,9.4604,9.6475,9.8077,9.8464,9.851,9.851,9.8557,9.9106,10.0122,10.1058,10.2133,10.3162,10.4108,10.4492,10.4585,10.4585,10.4585,10.4585,10.4585,10.41,10.3081,10.064,9.81,9.5265,9.1085,8.7496,8.4666,8.1875,8.0372,7.988,7.9237,7.863,7.8478,7.7945,7.7143,7.6761,7.6768,7.669,7.5648,7.5771,7.6035,7.5379,7.5005,7.4819,7.4783,7.4216,7.3753,7.3503,7.304,7.2719,7.2577,7.2826,7.3081,7.3309,7.3085,7.3151,7.3481,7.3654,7.3931,7.4109,7.4712,7.4961,7.5032,7.5032,7.5032,7.5032,7.5032,7.5032,7.5032,7.5032,7.5032,7.5032,7.5032,7.5032,7.5032,7.5032,7.5032,7.5032,7.5032,7.5032,7.5032,7.5032,7.5032,7.5032,7.5032,7.5032,7.5032,7.5032,7.5032,7.5032,7.5032,7.5032,10.282,10.282,10.282,10.282,10.2786,10.2585,10.2283,10.1745,10.0683,9.9956,9.9445,9.8854,9.851,9.851,9.851,9.8311,9.7971,9.727,9.6602,9.5867,9.5259,9.4324,9.3636,9.4791,9.6521,9.8183,9.851,9.851,9.851,9.8557,9.9059,9.9947,10.0496,10.1525,10.3151,10.3583,10.4061,10.4539,10.4539,10.4585,10.4585,10.4585,10.3675,10.1885,10.0211,9.7621,9.4337,9.1118,8.8188,8.5552,8.2958,8.0823,7.9312,7.8477,7.7755,7.7221,7.6531,7.5917,7.561,7.5843,7.561,7.5225,7.534,7.5379,7.5148,7.5032,7.5032,7.5032,7.4747,7.4394,7.4004,7.3612,7.3717,7.4109,7.4106,7.4254,7.4366,7.4254,7.4292,7.433,7.4506,7.4534,7.4605,7.4926,7.4997,7.5032,7.5032,7.5032,7.5032,7.5032,7.5032,7.5032,7.5032,7.5032,7.5032,7.5032,7.5032,7.5032,7.5032,7.5032,7.5032,7.5032,7.5032,7.5032,7.5032,7.5032,7.5032,7.5032,7.5032,7.5032,7.5032,7.5032,7.5032,7.5032,7.5032,10.282,10.282,10.282,10.282,10.282,10.282,10.2485,10.1846,10.1036,10.0242,9.9526,9.8854,9.851,9.851,9.851,9.851,9.8464,9.7558,9.6794,9.6045,9.5163,9.4155,9.3525,9.4174,9.5612,9.715,9.8115,9.851,9.851,9.851,9.8872,9.9573,9.9982,10.0871,10.2086,10.2637,10.2975,10.3593,10.3687,10.3651,10.3687,10.3687,10.2745,10.0848,9.9488,9.6946,9.2991,9.0637,8.8188,8.563,8.3553,8.1157,7.8823,7.7606,7.6771,7.5761,7.4995,7.4641,7.4715,7.4679,7.4789,7.4997,7.5032,7.5032,7.5032,7.5032,7.5032,7.5032,7.5032,7.4854,7.4394,7.4251,7.4391,7.4961,7.5032,7.5,7.4928,7.4961,7.5032,7.5032,7.5032,7.5032,7.5032,7.5032,7.5032,7.5032,7.5032,7.5032,7.5032,7.5032,7.5032,7.5032,7.5032,7.5032,7.5032,7.5032,7.5032,7.5032,7.5032,7.5032,7.5032,7.5032,7.5032,7.5032,7.5032,7.5032,7.5032,7.5032,7.5032,7.5032,7.5032,7.5032,7.5032,7.5032,7.5032,10.282,10.282,10.282,10.282,10.282,10.2753,10.2451,10.1779,10.1002,10.0174,9.9526,9.8854,9.851,9.851,9.851,9.851,9.8338,9.7612,9.6437,9.506,9.3985,9.2932,9.2141,9.2771,9.3703,9.4709,9.7222,9.8429,9.851,9.8557,9.8557,9.8778,9.9573,10.0087,10.0263,10.1245,10.1712,10.1899,10.1993,10.1899,10.1748,10.1899,10.1426,10.0281,9.8684,9.5909,9.2039,9.0251,8.7881,8.5029,8.3137,8.0811,7.7959,7.6747,7.5691,7.4415,7.3993,7.39,7.3895,7.3859,7.4178,7.4605,7.4887,7.4819,7.4854,7.4926,7.4961,7.4997,7.5032,7.5032,7.4961,7.4783,7.4673,7.4997,7.489,7.489,7.4961,7.4997,7.5032,7.5032,7.5032,7.5032,7.5032,7.5032,7.5032,7.5032,7.5032,7.5032,7.5032,7.5032,7.5032,7.5032,7.5032,7.5032,7.5032,7.5032,7.5032,7.5032,7.5032,7.5032,7.5032,7.5032,7.5032,7.5032,7.5032,7.5032,7.5032,7.5032,7.5032,7.5032,7.5032,7.5032,7.5032,7.5032,7.5032,10.282,10.282,10.282,10.282,10.2786,10.2384,10.2048,10.1697,10.0514,9.9799,9.941,9.8807,9.851,9.851,9.851,9.8304,9.7717,9.6932,9.6308,9.5563,9.4044,9.313,9.2798,9.2345,9.2294,9.2991,9.536,9.7365,9.8429,9.851,9.851,9.851,9.8872,9.9421,10.0041,10.045,10.1011,10.1572,10.1666,10.1666,10.1666,10.1666,10.0736,9.8805,9.7383,9.5153,9.1864,8.9644,8.7045,8.4026,8.128,7.8945,7.6948,7.5498,7.4304,7.3312,7.3083,7.3076,7.3076,7.3038,7.3183,7.3394,7.3468,7.3753,7.418,7.4251,7.4498,7.489,7.5032,7.5032,7.4854,7.4071,7.343,7.3465,7.3931,7.4251,7.4287,7.4712,7.4961,7.4961,7.4961,7.5032,7.5032,7.5032,7.5032,7.5032,7.5032,7.5032,7.5032,7.5032,7.5032,7.5032,7.5032,7.5032,7.5032,7.5032,7.5032,7.5032,7.5032,7.5032,7.5032,7.5032,7.5032,7.5032,7.5032,7.5032,7.5032,7.5032,7.5032,7.5032,7.5032,7.5032,7.5032,7.5032,7.5032,10.282,10.282,10.282,10.2686,10.2451,10.2048,10.1495,10.092,9.9922,9.9424,9.9116,9.8751,9.851,9.851,9.7993,9.7152,9.6132,9.5315,9.4612,9.3933,9.21,9.1201,9.1179,9.0702,9.0573,9.1205,9.3274,9.5499,9.7399,9.8301,9.851,9.851,9.851,9.8872,9.9386,9.9526,9.9888,10.0496,10.0508,10.0555,10.0496,10.0508,9.948,9.7337,9.6028,9.3913,9.0958,8.8447,8.5733,8.2672,8.0128,7.7854,7.6093,7.447,7.3145,7.2046,7.2149,7.2255,7.2255,7.2255,7.2362,7.2648,7.2682,7.2969,7.3325,7.3432,7.3646,7.4,7.4178,7.4178,7.3964,7.3323,7.2682,7.2718,7.3147,7.3432,7.3539,7.3857,7.4213,7.4249,7.4501,7.4747,7.4926,7.5032,7.5032,7.5032,7.5032,7.5032,7.5032,7.5032,7.5032,7.5032,7.5032,7.5032,7.5032,7.4997,7.4997,7.4997,7.4997,7.4926,7.4997,7.5032,7.4926,7.4926,7.5032,7.5032,7.5035,7.5071,7.5032,7.5032,7.5032,7.5032,7.5032,7.5032,7.5032,10.282,10.282,10.282,10.2436,10.1846,10.1745,10.0886,9.9684,9.9458,9.9047,9.8545,9.8373,9.8326,9.7933,9.6333,9.5113,9.3866,9.2728,9.1632,9.0338,8.8427,8.741,8.7434,8.776,8.846,8.9385,9.1017,9.309,9.5501,9.7411,9.8464,9.851,9.851,9.8557,9.8638,9.865,9.8557,9.8778,9.8744,9.865,9.8604,9.8604,9.7948,9.6204,9.4621,9.2391,8.9336,8.6769,8.404,8.1035,7.9225,7.7298,7.5207,7.3592,7.2063,7.0762,7.108,7.1471,7.1508,7.1508,7.1721,7.2399,7.2362,7.2577,7.2648,7.2648,7.2755,7.2755,7.2718,7.2612,7.2577,7.2399,7.2362,7.2434,7.2577,7.2648,7.2611,7.2826,7.2682,7.2896,7.3432,7.3964,7.4747,7.4926,7.4783,7.4747,7.4854,7.4854,7.4783,7.489,7.4961,7.4997,7.5032,7.4997,7.489,7.4569,7.4641,7.4605,7.4427,7.4709,7.4851,7.4926,7.4854,7.4783,7.4605,7.4643,7.4928,7.5,7.4928,7.5032,7.5032,7.5032,7.5032,7.5032,7.5032,10.282,10.282,10.282,10.2451,10.1731,10.0683,9.9922,9.941,9.8382,9.7878,9.7636,9.7071,9.5805,9.4022,9.2412,9.1516,9.1031,8.9752,8.8882,8.837,8.6747,8.5905,8.5888,8.5844,8.6214,8.7191,8.9117,9.0851,9.2337,9.5067,9.7284,9.8382,9.851,9.851,9.851,9.851,9.851,9.851,9.851,9.851,9.851,9.851,9.7484,9.5369,9.4258,9.1966,8.8341,8.5412,8.2389,7.9337,7.665,7.4375,7.268,7.163,7.0871,7.044,7.0582,7.0688,7.0688,7.0725,7.076,7.101,7.1046,7.1259,7.1685,7.1863,7.2077,7.2433,7.165,7.1081,7.101,7.1009,7.0974,7.1009,7.1542,7.1827,7.1863,7.2434,7.2611,7.2719,7.2826,7.3147,7.3252,7.3394,7.343,7.343,7.3394,7.3465,7.4038,7.4216,7.443,7.4961,7.4997,7.4569,7.3574,7.3503,7.3361,7.3323,7.343,7.3465,7.3361,7.3323,7.3359,7.3376,7.3319,7.3541,7.4413,7.444,7.429,7.4821,7.4997,7.4923,7.4819,7.4997,7.4997,10.282,10.282,10.2552,10.1832,10.0819,9.9615,9.8932,9.8507,9.7001,9.6345,9.6127,9.4149,9.244,9.0921,8.9675,8.8916,8.8535,8.7037,8.6163,8.5696,8.4125,8.3498,8.38,8.3629,8.413,8.5186,8.6852,8.8536,9.0347,9.2261,9.4749,9.7169,9.7753,9.8124,9.851,9.851,9.851,9.851,9.851,9.8124,9.7389,9.7045,9.6005,9.4249,9.216,8.9504,8.6369,8.2874,7.963,7.6676,7.4188,7.2204,7.0613,6.9833,6.9406,6.9406,6.9406,6.9406,6.9406,6.9406,6.9548,6.9905,6.9869,7.0225,7.0937,7.108,7.1223,7.1579,7.0939,7.0368,7.0404,7.0368,7.0368,7.0403,7.076,7.1044,7.108,7.1509,7.1757,7.1793,7.2042,7.2256,7.2256,7.2506,7.2646,7.2682,7.2682,7.286,7.3289,7.3396,7.361,7.3966,7.4109,7.3608,7.2967,7.2682,7.2718,7.2682,7.2682,7.2682,7.2753,7.2682,7.2424,7.1796,7.2161,7.2892,7.3995,7.3767,7.3727,7.3715,7.4033,7.4071,7.4071,7.432,7.4536,10.2542,10.236,10.1728,10.0633,9.9216,9.8329,9.7541,9.669,9.5118,9.4284,9.3404,9.0102,8.8456,8.8318,8.7531,8.6802,8.6062,8.4475,8.3369,8.2549,8.0943,8.0541,8.1127,8.1402,8.2156,8.3418,8.4477,8.6461,8.8915,8.9575,9.1596,9.4919,9.6295,9.7249,9.8124,9.8217,9.8217,9.823,9.8264,9.7363,9.5553,9.4719,9.389,9.2925,8.9195,8.6032,8.3493,7.9833,7.6351,7.3575,7.1873,7.0398,6.9017,6.8185,6.7803,6.7803,6.7803,6.7874,6.791,6.7981,6.8373,6.9014,6.9085,6.9441,7.019,7.0118,7.0118,7.0297,7.0261,7.0261,7.0368,7.0261,7.0154,7.0154,7.0261,7.0297,7.0261,7.0333,7.0368,7.0368,7.108,7.1436,7.1508,7.1899,7.2326,7.2219,7.2185,7.2292,7.2541,7.2575,7.2648,7.2506,7.2506,7.2434,7.2363,7.2433,7.2255,7.229,7.2397,7.229,7.2221,7.2182,7.2103,7.109,7.1153,7.1959,7.269,7.2945,7.3128,7.3079,7.2967,7.2826,7.2826,7.3289,7.3717,10.08,9.9531,9.9367,9.8511,9.7084,9.526,9.411,9.3328,9.1734,8.9725,8.7401,8.5187,8.4222,8.4112,8.3392,8.2945,8.26,8.1254,8.048,8.0168,7.868,7.8003,7.8247,7.9504,8.0397,8.1361,8.3137,8.4689,8.6172,8.848,9.0101,9.1157,9.3726,9.5411,9.6114,9.6147,9.6147,9.6147,9.6147,9.5914,9.5446,9.3989,9.2276,9.0322,8.7512,8.4154,8.0128,7.7495,7.4488,7.1078,6.9438,6.7959,6.6607,6.6337,6.6235,6.6235,6.6235,6.6484,6.7054,6.7696,6.8124,6.8266,6.8266,6.8622,6.9263,6.8482,6.8235,6.9263,6.9406,6.9691,7.0119,6.9798,6.9441,6.9477,6.9477,6.9477,6.9513,6.9976,7.0368,7.0332,7.0511,7.0653,7.0689,7.0832,7.0974,7.0974,7.0867,7.1152,7.1649,7.1792,7.1544,7.1116,7.0867,7.0974,7.0903,7.0974,7.101,7.0867,7.0938,7.1009,7.1046,7.0938,7.0613,7.0575,7.0575,7.1223,7.238,7.2488,7.2373,7.2507,7.2468,7.2575,7.254,7.2791,7.2933,9.901,9.8119,9.7792,9.7036,9.5945,9.4511,9.2883,9.0948,8.6951,8.4152,8.2614,8.1711,8.1258,8.1223,8.0851,8.0679,8.0645,7.9504,7.8983,7.8844,7.7412,7.6922,7.7198,7.7762,7.853,7.9567,8.1086,8.2566,8.4003,8.5955,8.7599,8.8983,9.1131,9.3133,9.4866,9.5313,9.5446,9.5399,9.4511,9.3645,9.2885,9.1643,8.9931,8.7601,8.4824,8.1565,7.7778,7.5258,7.2225,6.8539,6.7363,6.597,6.4264,6.4097,6.3788,6.3171,6.2849,6.2825,6.3306,6.3447,6.394,6.4928,6.5596,6.5913,6.5631,6.5252,6.581,6.7527,6.8057,6.8518,6.9192,6.8943,6.8658,6.8693,6.8658,6.8693,6.8765,6.937,6.9798,6.9833,7.0118,7.0368,7.0368,7.0368,7.0368,7.0368,7.0368,7.0547,7.0901,7.1009,7.0867,7.0475,7.0368,7.0368,7.0404,7.0368,7.0368,7.0368,7.0368,7.0368,7.0368,7.0368,7.0404,7.0368,7.0368,7.0726,7.1338,7.1408,7.1369,7.1579,7.1615,7.165,7.165,7.1615,7.1615,9.7064,9.679,9.6115,9.5262,9.4361,9.3663,9.1685,8.845,8.1947,7.9038,7.8825,7.8825,7.8865,7.8865,7.8825,7.8905,7.8956,7.8158,7.7928,7.7977,7.6644,7.6324,7.6848,7.6433,7.6855,7.8007,7.8948,8.0403,8.2259,8.3146,8.4754,8.7085,8.846,9.0424,9.302,9.4135,9.4659,9.4659,9.3039,9.1442,8.9813,8.8844,8.7194,8.4863,8.1815,7.8742,7.5813,7.295,6.9787,6.6335,6.5325,6.39,6.1872,6.1473,6.0759,5.9377,5.8679,5.8298,5.8338,5.7757,5.8282,6.0356,6.1877,6.1984,6.0476,6.1196,6.2769,6.487,6.5985,6.6789,6.7348,6.731,6.7275,6.7312,6.7348,6.7488,6.7701,6.8305,6.8801,6.9406,6.9977,7.0333,7.0333,7.0368,7.0368,7.0368,7.0368,7.0368,7.044,7.0368,7.0368,7.0368,7.0368,7.0368,7.0368,7.0368,7.0368,7.0368,7.0368,7.0368,7.0368,7.0368,7.0368,7.0368,7.0368,7.0404,7.0404,7.0368,7.0475,7.0511,7.0582,7.0547,7.0547,7.0547,7.0475,9.4549,9.3212,9.2564,9.1079,8.9163,8.8414,8.6386,8.3378,7.976,0.0,0.0,7.567,7.5636,7.5636,7.5636,7.603,7.6561,7.5801,7.588,7.6539,7.5619,7.5301,7.5404,7.5975,7.6327,7.6644,7.7942,7.9052,8.0127,8.1402,8.2487,8.349,8.5291,8.6482,8.7028,8.9541,9.0792,9.0824,9.1288,9.0992,8.9781,8.7251,8.4786,8.2476,7.9295,7.596,7.2527,7.0135,6.7459,6.4523,6.261,6.0963,5.9384,5.8199,5.6913,5.5519,5.4833,5.448,5.459,5.4108,5.4497,5.6046,5.7454,5.7224,5.4694,5.6735,5.9027,6.1244,6.3102,6.4236,6.4491,6.4444,6.4371,6.4354,6.4321,6.4874,6.609,6.6406,6.7423,6.9691,7.0191,7.0335,7.0297,7.0297,7.0368,7.0368,7.0368,7.0368,7.0368,7.0368,7.0368,7.0368,7.0368,7.0368,7.0368,7.0333,7.0368,7.0368,7.0368,7.0368,7.0368,7.0368,7.0368,7.0368,7.0368,7.0368,7.0368,7.0368,7.0368,7.0368,7.0368,7.0368,7.0368,7.0332,7.0296,9.1236,9.0023,8.9312,8.7685,0.0,8.5095,8.2352,7.807,7.6722,7.5201,7.371,7.3676,7.3676,7.371,7.405,7.4686,7.536,7.5018,7.5307,7.6151,7.5371,7.5018,7.5053,7.5445,7.5622,7.5619,7.5972,7.6642,7.7677,7.8028,7.9045,8.0709,8.2089,8.3436,8.4785,8.6622,8.8144,8.9334,9.0267,8.9714,8.7579,8.5713,8.3245,8.0122,7.7009,0.0,0.0,0.0,0.0,0.0,0.0,0.0,0.0,5.5273,0.0,5.1227,4.9602,4.8581,4.8316,4.7345,4.7538,4.9274,5.0397,4.9916,4.7287,5.0737,5.4175,5.6884,5.8763,6.0096,6.0799,6.1125,6.1329,6.1352,6.1666,6.2079,6.2799,6.3773,6.5431,6.7698,6.8973,6.9512,6.9333,6.9583,6.9905,7.0297,7.0368,7.0368,7.0368,7.0368,7.0368,7.0368,7.0368,7.0368,7.0333,7.0083,6.9833,7.019,7.0047,6.9976,7.0297,7.0368,7.0368,7.0368,7.0368,7.0368,7.0368,7.0368,7.0368,7.0368,7.0368,7.0152,6.9319,6.9211,6.9174,8.7806,8.6912,8.6167,8.4488,8.2276,8.136,7.8013,7.3207,7.3266,7.2655,7.1561,7.1409,7.1232,7.1165,7.1809,7.2696,7.3735,7.3735,7.4414,7.544,7.4843,7.4562,7.4562,7.4562,7.4491,7.4313,7.3666,7.3911,7.4924,7.4424,7.5402,7.7734,7.8686,8.0337,8.2675,0.0,0.0,0.0,8.9176,8.8299,8.5301,8.4298,8.1962,7.8117,7.5375,0.0,7.0108,6.7485,6.4709,6.1784,5.9992,0.0,0.0,0.0,0.0,0.0,0.0,0.0,0.0,0.0,0.0,0.0,4.1917,4.1029,3.9644,4.3728,4.8091,5.1842,5.4093,5.5734,5.6654,5.7425,5.7874,5.7921,5.8376,5.8565,5.8257,5.9609,6.22,6.5363,6.7225,6.8122,6.7846,6.8411,6.905,6.9727,7.0047,7.0083,6.9905,6.9905,7.0012,6.9941,6.9941,7.0048,6.9941,6.9406,6.9157,6.9441,6.9157,6.905,6.951,6.9686,6.9722,6.9863,6.997,6.997,7.0331,7.0367,7.0258,6.9935,6.9899,6.9428,6.7939,6.7576,6.7647,8.4515,8.3758,8.3088,8.1423,7.8978,7.4814,7.1624,6.9377,6.9359,6.89,6.8034,6.7383,6.6794,6.6254,6.6349,6.7589,6.9697,6.9768,7.0933,7.2918,7.2887,7.2818,7.2818,7.2818,7.2474,7.1815,7.1703,7.1462,7.1088,7.1548,7.2145,7.2872,7.462,7.6338,7.78,7.7204,7.9334,8.4356,8.7011,8.7139,8.4733,8.3339,8.0761,7.6978,7.5137,7.2278,6.8248,6.6359,6.4057,6.1077,5.8288,5.5689,5.3222,4.885,4.491,0.0,3.9151,0.0,0.0,0.0,0.0,0.0,0.0,0.0,0.0,3.5729,4.0031,4.5741,4.9916,5.2151,5.171,5.278,5.357,5.3633,5.3281,5.2753,5.2145,5.2299,5.5903,6.4922,6.6093,6.6238,6.6123,6.6861,6.7563,6.8268,6.88,6.8872,6.8479,6.869,6.8725,6.8408,6.8725,6.901,6.855,6.8266,6.7949,6.7564,6.7353,6.7388,6.7481,6.7548,6.7649,6.8095,6.8235,6.881,7.0143,7.0325,6.989,6.8521,6.809,6.7473,6.6196,6.5757,6.6221,7.9955,7.9124,7.8498,7.504,6.9856,6.8147,6.6708,6.5507,6.55,6.5068,6.4342,6.3131,6.2075,6.1127,6.148,6.2741,6.4722,6.5581,6.7232,6.9392,6.9808,7.0235,7.0538,7.0201,7.0032,6.9998,6.8807,6.8008,6.7661,6.715,6.7363,6.8173,6.9752,7.0552,7.0712,7.2228,7.5586,8.077,8.3476,8.4382,8.3346,8.158,7.9102,7.6027,7.33,7.0586,6.7732,6.4963,6.2278,5.9654,5.601,5.2733,4.9937,4.467,4.028,0.0,0.0,0.0,0.0,0.0,0.0,0.0,0.0,0.0,0.0,0.0,3.3752,3.8132,4.2936,4.5775,4.5775,4.7177,4.8074,4.7928,4.7978,4.706,4.4721,4.5985,5.0368,5.8835,5.9731,6.0305,6.2166,6.4354,6.6017,6.6751,6.6397,6.6074,6.6133,6.6669,6.668,6.5743,6.7348,6.865,6.8124,6.6647,6.5602,6.5709,6.5431,6.5293,6.5694,6.6109,6.5928,6.4814,6.566,6.7259,6.8722,6.9075,6.8421,6.6558,6.4557,6.2953,6.219,6.2013,6.2392,7.4533,7.3147,7.1078,6.6602,6.0926,6.1493,6.1403,6.0689,6.066,6.0395,5.9812,5.8098,5.6826,5.5913,5.6251,5.734,5.9076,6.0704,6.2808,6.5263,6.6074,6.6847,6.7593,6.7097,6.7064,6.7191,6.5525,6.4303,6.3641,6.2586,6.2504,6.3269,6.3349,6.3378,6.3608,6.7365,7.1934,7.7048,7.9721,8.1433,8.2073,8.024,7.7815,7.4825,7.183,6.9161,6.667,6.3486,6.0348,5.7339,5.3437,4.9593,4.595,4.0465,0.0,0.0,0.0,0.0,0.0,0.0,0.0,0.0,0.0,2.1217,2.3958,0.0,2.8118,0.0,3.6429,3.9822,4.0462,4.1912,0.0,0.0,4.2399,4.1005,3.7253,3.9519,4.4583,5.268,5.3159,5.4129,5.7554,6.0868,6.3002,6.3276,6.2814,6.2757,6.3363,6.3609,6.3356,6.3356,6.5824,6.7879,6.732,6.4718,6.2636,6.3089,6.2646,6.2408,6.2826,6.3615,6.3123,6.0255,6.1736,6.4178,6.6041,6.6483,6.5265,6.1858,5.9228,5.739,5.739,5.7511,5.8068,6.7989,6.5071,5.9,5.5753,5.4618,5.4891,5.4601,5.4066,5.4039,5.3975,5.3804,5.166,5.0673,5.0524,4.9993,0.0,5.2742,5.4489,5.7192,6.0627,6.143,6.2438,6.3634,6.3541,6.3198,6.2573,6.1879,6.0467,5.8431,5.8355,5.8266,5.8055,5.4534,5.4346,5.7573,6.2371,6.7568,7.2929,7.6247,7.9093,8.1438,8.0176,7.7301,7.2845,7.1768,6.8834,6.3955,6.1898,5.8683,5.3931,5.0603,4.653,4.1393,0.0,0.0,0.0,0.0,0.0,0.0,0.0,0.0,0.0,0.0,0.0,0.0,0.0,0.0,2.6353,3.1894,0.0,3.6703,3.7448,0.0,0.0,0.0,3.4167,3.0021,3.2261,3.8089,4.846,0.0,0.0,5.3221,5.6079,5.7295,5.6051,5.7929,5.9722,6.048,5.889,5.8469,6.0958,6.3995,6.5861,6.5317,6.2076,5.9292,5.8774,5.8587,5.8283,5.7881,5.8372,5.7434,5.4161,5.5798,5.8541,6.142,6.1538,5.9691,5.2577,5.1847,5.2386,5.2363,5.2726,5.3663,5.8097,5.1723,4.8206,4.6361,4.5962,4.6651,4.6785,4.6563,4.6563,4.6563,4.6389,4.3818,4.2565,4.2248,4.0819,0.0,0.0,0.0,4.977,5.3058,5.4206,5.5876,5.7768,5.7111,5.6936,5.7393,5.6409,5.4988,5.3145,5.3236,5.1122,4.6939,0.0,4.8027,5.1686,5.716,6.2849,6.8514,7.281,7.6237,7.8781,7.8854,7.6596,7.1962,6.9288,6.6009,6.1976,5.8714,5.5176,5.1307,4.6369,4.1783,0.0,0.0,0.0,0.0,0.0,0.0,0.0,0.0,0.0,0.0,0.0,1.4141,1.6004,0.0,0.0,0.0,2.5433,2.8435,3.0963,3.2346,0.0,0.0,0.0,0.0,0.0,0.0,0.0,4.2568,4.3041,4.4033,4.75,4.8562,4.9563,5.1152,5.3667,5.5609,5.6312,0.0,5.5495,5.6129,5.8647,6.0416,6.0387,5.7974,5.5688,5.467,5.3596,5.2772,5.243,5.0564,4.8782,4.7789,4.9783,5.3153,5.6683,5.2816,4.8209,4.5574,4.5604,4.6118,4.6145,4.6843,4.8032,4.7471,0.0,0.0,0.0,0.0,3.8629,3.9012,3.9046,3.9223,3.919,3.8858,3.6407,0.0,0.0,0.0,0.0,0.0,0.0,4.2439,4.5738,4.7311,4.9461,5.2015,5.1319,5.1435,5.2206,5.1029,4.9541,4.7805,4.6275,4.2812,3.7701,0.0,0.0,0.0,0.0,5.817,6.402,6.9305,7.334,7.6055,7.7162,7.5874,7.2153,6.7524,6.3219,5.9355,5.5084,5.1112,4.7388,4.1782,0.0,0.0,0.0,0.0,0.0,0.0,0.0,0.0,0.0,0.0,0.0,0.0,0.0,0.0,0.0,0.0,0.0,0.0,0.0,2.5526,2.748,2.8214,0.0,0.0,0.0,0.0,0.0,0.0,0.0,0.0,0.0,3.9977,4.116,4.3109,0.0,0.0,5.1475,5.233,5.2595,5.2466,5.1787,5.3788,0.0,5.5743,5.3679,5.1618,5.0578,4.8863,4.7416,4.6783,4.3089,4.0258,4.0603,4.3894,4.705,4.858,4.3332,3.8957,3.873,3.9141,3.9553,3.9724,4.0535,4.1914,0.0,0.0,0.0,0.0,3.058,0.0,0.0,0.0,3.2132,3.2037,0.0,2.9922,0.0,0.0,0.0,0.0,2.9419,3.2289,0.0,0.0,4.1179,4.3607,4.6419,4.7018,4.7272,4.6994,4.6008,4.4321,4.1956,3.703,0.0,0.0,0.0,0.0,0.0,0.0,5.3556,5.9312,6.5713,7.0476,7.3511,7.5325,7.5443,7.3609,6.7044,6.0969,5.5589,5.122,4.6599,4.1484,3.6981,0.0,0.0,0.0,0.0,0.0,0.0,0.0,0.0,0.0,0.0,0.0,0.0,0.0,0.0,0.0,0.0,0.0,0.0,0.0,0.0,2.3117,0.0,0.0,0.0,0.0,0.0,0.0,0.0,0.0,0.0,3.0514,3.0325,3.4789,3.895,4.1326,0.0,0.0,0.0,0.0,4.8997,4.891,5.038,5.1839,5.2806,4.968,4.6924,4.6512,0.0,0.0,4.0687,3.6289,3.344,3.4519,3.8265,4.0241,3.7256,3.4046,3.177,3.1796,3.236,3.289,3.3288,3.4181,3.558,0.0,0.0,0.0,0.0,0.0,0.0,0.0,0.0,0.0,2.5488,2.5142,2.3754,0.0,0.0,0.0,0.0,0.0,0.0,0.0,0.0,3.4575,3.6933,3.9384,3.9546,3.9979,4.0586,3.9771,3.681,0.0,0.0,0.0,0.0,0.0,0.0,0.0,0.0,5.0116,5.6625,6.3254,6.8145,7.1118,7.3376,7.3135,7.0124,6.6097,6.0052,5.1661,4.603,4.1042,0.0,0.0,0.0,0.0,0.0,0.0,0.0,0.0,0.0,0.0,0.0,0.0,0.0,0.0,0.0,0.0,0.0,0.0,0.0,0.0,0.0,0.0,0.0,2.0455,0.0,0.0,0.0,0.0,0.0,0.0,0.0,0.0,0.0,2.68,3.0376,3.4049,3.6974,4.0752,4.3491,4.3948,0.0,0.0,0.0,0.0,0.0,0.0,0.0,4.3259,4.1697,3.9882,3.7945,3.5739,3.1569,2.8824,2.9883,0.0,0.0,3.0297,2.7686,2.5918,2.5804,2.621,2.673,2.7131,2.8033,2.9404,0.0,0.0,0.0,0.0,0.0,0.0,0.0,0.0,0.0,2.0055,1.9823,0.0,0.0,0.0,0.0,0.0,0.0,0.0,0.0,0.0,0.0,0.0,3.3058,3.3649,0.0,0.0,0.0,0.0,0.0,0.0,0.0,0.0,0.0,0.0,0.0,0.0,4.7305,5.412,6.0705,6.5611,6.8791,7.1305,7.087,6.7384,6.464,5.9208,5.0769,0.0,0.0,0.0,0.0,0.0,0.0,0.0,0.0,0.0,0.0,0.0,0.0,0.0,0.0,0.0,0.0,0.0,0.0,0.0,0.0,0.0,0.0,0.0,0.0,0.0,1.7485,0.0,0.0,0.0,0.0,0.0,0.0,0.0,0.0,0.0,0.0,2.6431,2.9759,3.2656,3.6706,3.9477,3.9878,4.2836,4.4252,0.0,0.0,0.0,0.0,0.0,0.0,0.0,0.0,0.0,0.0,0.0,0.0,0.0,2.6414,2.6354,2.4407,2.2395,2.0952,2.0735,0.0,0.0,0.0,0.0,0.0,0.0,0.0,0.0,0.0,0.0,0.0,0.0,0.0,0.0,0.0,1.5319,0.0,0.0,1.3368,0.0,0.0,0.0,0.0,0.0,0.0,0.0,0.0,0.0,0.0,0.0,0.0,0.0,0.0,0.0,0.0,0.0,0.0,0.0,0.0,0.0,0.0,4.5025,5.1794,5.7948,6.2886,6.6548,6.9051,6.8819,6.5707,6.2583,5.833,5.2777,0.0,0.0,0.0,0.0,0.0,0.0,0.0,0.0,0.0,0.0,0.0,0.0,0.0,0.0,0.0,0.0,0.0,0.0,0.0,0.0,0.0,0.0,0.0,0.0,0.0,0.0,1.67,1.6771,1.639,0.0,0.0,0.0,0.0,0.0,0.0,0.0,0.0,0.0,2.8443,3.2535,3.5652,3.674,3.9437,4.0855,3.9516,4.049,4.1294,4.1165,3.8641,3.5974,0.0,0.0,0.0,0.0,0.0,0.0,0.0,0.0,0.0,0.0,0.0,0.0,0.0,0.0,0.0,0.0,0.0,0.0,0.0,0.0,0.0,0.0,0.0,0.0,0.0,0.0,0.0,0.0,1.3057,1.3049,0.0,0.0,0.0,0.0,0.0,0.0,0.0,0.0,0.0,0.0,0.0,0.0,0.0,0.0,0.0,0.0,0.0,0.0,0.0,0.0,0.0,0.0,0.0,0.0,4.1855,4.9368,5.6196,6.1426,6.5001,6.7429,6.7277,6.4145,6.041,5.5664,0.0,0.0,0.0,0.0,0.0,0.0,0.0,0.0,0.0,0.0,0.0,0.0,0.0,0.0,0.0,0.0,0.0,0.0,0.0,0.0,0.0,0.0,0.0,0.0,0.0,0.0,0.0,0.0,1.5297,1.5539,1.5379,0.0,0.0,0.0,0.0,0.0,0.0,0.0,0.0,0.0,0.0,3.2043,3.3683,3.6395,3.7677,3.5988,3.7499,3.8465,3.7662,3.5794,3.3608,3.1143,0.0,0.0,0.0,0.0,0.0,0.0,0.0,0.0,0.0,0.0,0.0,0.0,0.0,0.0,0.0,0.0,0.0,0.0,0.0,0.0,0.0,0.0,0.0,0.0,0.0,0.0,0.0,0.0,0.0,0.0,0.0,0.0,0.0,0.0,0.0,0.0,0.0,0.0,0.0,0.0,0.0,0.0,0.0,0.0,0.0,0.0,0.0,0.0,0.0,0.0,0.0,0.0,0.0,4.0188,4.7571,5.4587,5.9806,6.3056,6.5485,6.5169,6.2077,5.8141,5.3155,0.0,0.0,0.0,0.0,0.0,0.0,0.0,0.0,0.0,0.0,0.0,0.0,0.0,0.0,0.0,0.0,0.0,0.0,0.0,0.0,0.0,0.0,0.0,0.0,0.0,0.0,0.0,0.0,1.3597,1.4306,1.4923,0.0,0.0,0.0,0.0,0.0,0.0,0.0,0.0,0.0,0.0,2.8822,3.0601,3.307,0.0,0.0,3.4189,3.512,3.4191,3.2823,3.1119,2.8927,2.6756,0.0,0.0,0.0,0.0,0.0,0.0,0.0,0.0,0.0,0.0,0.0,0.0,0.0,0.0,0.0,0.0,0.0,0.0,0.0,0.0,0.0,0.0,0.0,0.0,0.0,0.0,0.0,0.0,0.0,0.0,0.0,0.0,0.0,0.0,0.0,0.0,0.0,0.0,0.0,0.0,0.0,0.0,0.0,0.0,0.0,0.0,0.0,0.0,0.0,0.0,0.0,0.0,3.9541,4.6152,5.3024,5.8007,6.1099,6.3272,6.2921,5.9924,5.606,5.0976,0.0,0.0,0.0,0.0,0.0,0.0,0.0,0.0,0.0,0.0,0.0,0.0,0.0,0.0,0.0,0.0,0.0,0.0,0.0,0.0,0.0,0.0,0.0,0.0,0.0,0.0,0.0,0.0,0.0,0.0,0.0,0.0,0.0,0.0,0.0,0.0,0.0,0.0,0.0,0.0,0.0,2.5914,2.7542,2.949,3.0482,0.0,3.0727,3.1368,3.0745,2.9778,2.8596,2.7048,0.0,0.0,0.0,0.0,0.0,0.0,0.0,0.0,0.0,0.0,0.0,0.0,0.0,0.0,0.0,0.0,0.0,0.0,0.0,0.0,0.0,0.0,0.0,0.0,0.0,0.0,0.0,0.0,0.0,0.0,0.0,0.0,0.0,0.0,0.0,0.0,0.0,0.0,0.0,0.0,0.0,0.0,0.0,0.0,0.0,0.0,0.0,0.0,0.0,0.0,0.0,0.0,0.0,0.0,4.3593,5.0395,5.5965,6.0196,6.1925,6.1817,5.9883,5.5496,0.0,0.0,0.0,0.0,0.0,0.0,0.0,0.0,0.0,0.0,0.0,0.0,0.0,0.0,0.0,0.0,0.0,0.0,0.0,0.0,0.0,0.0,0.0,0.0,0.0,0.0,0.0,0.8253,0.0,0.0,0.0,0.0,0.0,0.0,0.0,0.0,0.0,0.0,0.0,0.0,0.0,0.0,2.2491,2.5041,2.6394,2.6963,0.0,0.0,2.8257,2.7914,2.7153,2.614,0.0,0.0,0.0,0.0,0.0,0.0,0.0,0.0,0.0,0.0,0.0,0.0,0.0,0.0,0.0,0.0,0.0,0.0,0.0,0.0,0.0,0.0,0.0,0.0,0.0,0.0,0.0,0.0,0.0,0.0,0.0,0.0,0.0,0.0,0.0,0.0,0.0,0.0,0.0,0.0,0.0,0.0,0.0,0.0,0.0,0.0,0.0,0.0,0.0,0.0,0.0,0.0,0.0,0.0,3.4606,4.1139,4.8258,5.4145,5.8642,6.0748,6.0999,5.9389,5.4818,4.9245,0.0,0.0,0.0,0.0,0.0,0.0,0.0,0.0,0.0,0.0,0.0,0.0,0.0,0.0,0.0,0.0,0.0,0.0,0.0,0.0,0.0,0.0,0.0,0.0,0.0,0.0,0.0,0.0,0.0,0.0,0.0,0.0,0.0,0.0,0.0,0.0,0.0,0.0,0.0,0.0,0.0,0.0,2.2665,2.3548,0.0,0.0,0.0,2.5131,2.515,0.0,0.0,0.0,0.0,0.0,0.0,0.0,0.0,0.0,0.0,0.0,0.0,0.0,0.0,0.0,0.0,0.0,0.0,0.0,0.0,0.0,0.0,0.0,0.0,0.0,0.0,0.0,0.0,0.0,0.0,0.0,0.0,0.0,0.0,0.0,0.0,0.0,0.0,0.0,0.0,0.0,0.0,0.0,0.0,0.0,0.0,0.0,0.0,0.0,0.0,0.0,0.0,0.0,0.0,0.0,0.0,0.0,3.8999,4.6466,5.2453,5.6766,5.9565,6.0167,5.8449,5.4085,4.858,0.0,0.0,0.0,0.0,0.0,0.0,0.0,0.0,0.0,0.0,0.0,0.0,0.0,0.0,0.0,0.0,0.0,0.0,0.0,0.0,0.0,0.0,0.0,0.0,0.0,0.0,0.0,0.0,0.0,0.0,0.0,0.0,0.0,0.0,0.0,0.0,0.0,0.0,0.0,0.0,0.0,1.8433,2.0223,2.0882,2.1564,0.0,0.0,2.1955,2.2353,2.1566,0.0,0.0,0.0,0.0,0.0,0.0,0.0,0.0,0.0,0.0,0.0,0.0,0.0,0.0,0.0,0.0,0.0,0.0,0.0,0.0,0.0,0.0,0.0,0.0,0.0,0.0,0.0,0.0,0.0,0.0,0.0,0.0,0.0,0.0,0.0,0.0,0.0,0.0,0.0,0.0,0.0,0.0,0.0,0.0,0.0,0.0,0.0,0.0,0.0,0.0,0.0,0.0,0.0,0.0,0.0,0.0,3.8402,4.4599,5.0269,5.5278,5.8033,5.8613,5.6978,5.3544,4.843,0.0,0.0,0.0,0.0,0.0,0.0,0.0,0.0,0.0,0.0,0.0,0.0,0.0,0.0,0.0,0.0,0.0,0.0,0.0,0.0,0.0,0.0,0.0,0.0,0.0,0.0,0.0,0.0,0.0,0.0,0.0,0.0,0.0,0.0,0.0,0.0,0.0,0.0,0.0,0.0,0.0,1.5597,1.7183,1.8034,0.0,0.0,0.0,0.0,1.9132,1.8586,0.0,0.0,0.0,0.0,0.0,0.0,0.0,0.0,0.0,0.0,0.0,0.0,0.0,0.0,0.0,0.0,0.0,0.0,0.0,0.0,0.0,0.0,0.0,0.0,0.0,0.0,0.0,0.0,0.0,0.0,0.0,0.0,0.0,0.0,0.0,0.0,0.0,0.0,0.0,0.0,0.0,0.0,0.0,0.0,0.0,0.0,0.0,0.0,0.0,0.0,0.0,0.0,0.0,0.0,0.0,0.0,3.5353,4.1491,4.7393,5.3015,5.5337,5.6336,5.601,5.2314,4.7269,0.0,0.0,0.0,0.0,0.0,0.0,0.0,0.0,0.0,0.0,0.0,0.0,0.0,0.0,0.0,0.0,0.0,0.0,0.0,0.0,0.0,0.0,0.0,0.0,0.0,0.0,0.0,0.0,0.0,0.0,0.0,0.0,0.0,0.0,0.0,0.0,0.0,0.0,0.0,0.0,1.2055,1.3457,1.4751,0.0,0.0,0.0,0.0,0.0,0.0,1.5998,1.5467,0.0,0.0,0.0,0.0,0.0,0.0,0.0,0.0,0.0,0.0,0.0,0.0,0.0,0.0,0.0,0.0,0.0,0.0,0.0,0.0,0.0,0.0,0.0,0.0,0.0,0.0,0.0,0.0,0.0,0.0,0.0,0.0,0.0,0.0,0.0,0.0,0.0,0.0,0.0,0.0,0.0,0.0,0.0,0.0,0.0,0.0,0.0,0.0,0.0,0.0,0.0,0.0,0.0,0.0,0.0,3.2244,3.8313,4.4463,5.0456,5.2523,5.3898,5.459,5.0799,4.5576,3.9077,0.0,0.0,0.0,0.0,0.0,0.0,0.0,0.0,0.0,0.0,0.0,0.0,0.0,0.0,0.0,0.0,0.0,0.0,0.0,0.0,0.0,0.0,0.0,0.0,0.0,0.0,0.0,0.0,0.0,0.0,0.0,0.0,0.0,0.0,0.0,0.0,0.0,0.0,0.0,1.0338,1.1669,0.0,0.0,0.0,0.0,0.0,0.0,0.0,0.0,1.3161,0.0,0.0,0.0,0.0,0.0,0.0,0.0,0.0,0.0,0.0,0.0,0.0,0.0,0.0,0.0,0.0,0.0,0.0,0.0,0.0,0.0,0.0,0.0,0.0,0.0,0.0,0.0,0.0,0.0,0.0,0.0,0.0,0.0,0.0,0.0,0.0,0.0,0.0,0.0,0.0,0.0,0.0,0.0,0.0,0.0,0.0,0.0,0.0,0.0,0.0,0.0,0.0,0.0,0.0,0.0,0.0,3.6811,4.1942,4.7515,5.0658,5.1834,5.1122,4.9093,4.388,3.5254,0.0,0.0,0.0,0.0,0.0,0.0,0.0,0.0,0.0,0.0,0.0,0.0,0.0,0.0,0.0,0.0,0.0,0.0,0.0,0.0,0.0,0.0,0.0,0.0,0.0,0.0,0.0,0.0,0.0,0.0,0.0,0.0,0.0,0.0,0.0,0.0,0.0,0.0,0.6306,0.8313,0.0,0.0,0.0,0.0,0.0,0.0,0.0,0.0,1.132,0.0,0.0,0.0,0.0,0.0,0.0,0.0,0.0,0.0,0.0,0.0,0.0,0.0,0.0,0.0,0.0,0.0,0.0,0.0,0.0,0.0,0.0,0.0,0.0,0.0,0.0,0.0,0.0,0.0,0.0,0.0,0.0,0.0,0.0,0.0,0.0,0.0,0.0,0.0,0.0,0.0,0.0,0.0,0.0,0.0,0.0,0.0,0.0,0.0,0.0,0.0,0.0,0.0,0.0,0.0,0.0,0.0,0.0,3.8818,4.4029,4.6815,4.8075,4.778,4.4399,3.9049,0.0,0.0,0.0,0.0,0.0,0.0,0.0,0.0,0.0,0.0,0.0,0.0,0.0,0.0,0.0,0.0,0.0,0.0,0.0,0.0,0.0,0.0,0.0,0.0,0.0,0.0,0.0,0.0,0.0,0.0,0.0,0.0,0.0,0.0,0.0,0.0,0.0,0.0,0.0,0.0,0.0,0.0,0.0,0.0,0.0,0.0,0.0,0.0,0.0,0.0,0.0,0.0,0.0,0.0,0.0,0.0,0.0,0.0,0.0,0.0,0.0,0.0,0.0,0.0,0.0,0.0,0.0,0.0,0.0,0.0,0.0,0.0,0.0,0.0,0.0,0.0,0.0,0.0,0.0,0.0,0.0,0.0,0.0,0.0,0.0,0.0,0.0,0.0,0.0,0.0,0.0,0.0,0.0,0.0,0.0,0.0,0.0,0.0,0.0,0.0,0.0,0.0,0.0,0.0,0.0,0.0,0.0,0.0,3.5414,4.0211,4.2688,4.4079,4.4307,3.9247,3.3912,0.0,0.0,0.0,0.0,0.0,0.0,0.0,0.0,0.0,0.0,0.0,0.0,0.0,0.0,0.0,0.0,0.0,0.0,0.0,0.0,0.0,0.0,0.0,0.0,0.0,0.0,0.0,0.0,0.0,0.0,0.0,0.0,0.0,0.0,0.0,0.0,0.0,0.0,0.0,0.0,0.0,0.0,0.0,0.0,0.0,0.0,0.0,0.0,0.8815,0.0,0.0,0.0,0.0,0.0,0.0,0.0,0.0,0.0,0.0,0.0,0.0,0.0,0.0,0.0,0.0,0.0,0.0,0.0,0.0,0.0,0.0,0.0,0.0,0.0,0.0,0.0,0.0,0.0,0.0,0.0,0.0,0.0,0.0,0.0,0.0,0.0,0.0,0.0,0.0,0.0,0.0,0.0,0.0,0.0,0.0,0.0,0.0,0.0,0.0,0.0,0.0,0.0,0.0,0.0,0.0,0.0,0.0,0.0,3.2027,3.6138,3.9275,4.0594,3.983,3.4762,2.9956,0.0,0.0,0.0,0.0,0.0,0.0,0.0,0.0,0.0,0.0,0.0,0.0,0.0,0.0,0.0,0.0,0.0,0.0,0.0,0.0,0.0,0.0,0.0,0.0,0.0,0.0,0.0,0.0,0.0,0.0,0.0,0.0,0.0,0.0,0.0,0.0,0.0,0.0,0.0,0.0,0.0,0.0,0.0,0.0,0.0,0.0,0.0,0.0,0.0,0.0,0.0,0.0,0.0,0.0,0.0,0.0,0.0,0.0,0.0,0.0,0.0,0.0,0.0,0.0,0.0,0.0,0.0,0.0,0.0,0.0,0.0,0.0,0.0,0.0,0.0,0.0,0.0,0.0,0.0,0.0,0.0,0.0,0.0,0.0,0.0,0.0,0.0,0.0,0.0,0.0,0.0,0.0,0.0,0.0,0.0,0.0,0.0,0.0,0.0,0.0,0.0,0.0,0.0,0.0,0.0,0.0,0.0,0.0,2.8653,3.2147,3.474,3.4508,3.1339,2.8796,2.5842,0.0,0.0,0.0,0.0,0.0,0.0,0.0,0.0,0.0,0.0,0.0,0.0,0.0,0.0,0.0,0.0,0.0,0.0,0.0,0.0,0.0,0.0,0.0,0.0,0.0,0.0,0.0,0.0,0.0,0.0,0.0,0.0,0.0,0.0,0.0,0.0,0.0,0.0,0.0,0.0,0.0,0.0,0.0,0.0,0.0,0.0,0.0,0.0,0.0,0.0,0.0,0.0,0.0,0.0,0.0,0.0,0.0,0.0,0.0,0.0,0.0,0.0,0.0,0.0,0.0,0.0,0.0,0.0,0.0,0.0,0.0,0.0,0.0,0.0,0.0,0.0,0.0,0.0,0.0,0.0,0.0,0.0,0.0,0.0,0.0,0.0,0.0,0.0,0.0,0.0,0.0,0.0,0.0,0.0,0.0,0.0,0.0,0.0,0.0,0.0,0.0,0.0,0.0,0.0,0.0,0.0,0.0,0.0,0.0,2.7708,2.8667,2.7514,2.4192,2.3383,2.1839,0.0,0.0,0.0,0.0,0.0,0.0,0.0,0.0,0.0,0.0,0.0,0.0,0.0,0.0,0.0,0.0,0.0,0.0,0.0,0.0,0.0,0.0,0.0,0.0,0.0,0.0,0.0,0.0,0.0,0.0,0.0,0.0,0.0,0.0,0.0,0.0,0.0,0.0,0.0,0.0,0.0,0.0,0.0,0.0,0.0,0.0,0.0,0.0,0.0,0.0,0.0,0.0,0.0,0.0,0.0,0.0,0.0,0.0,0.0,0.0,0.0,0.0,0.0,0.0,0.0,0.0,0.0,0.0,0.0,0.0,0.0,0.0,0.0,0.0,0.0,0.0,0.0,0.0,0.0,0.0,0.0,0.0,0.0,0.0,0.0,0.0,0.0,0.0,0.0,0.0,0.0,0.0,0.0,0.0,0.0,0.0,0.0,0.0,0.0,0.0,0.0,0.0,0.0,0.0,0.0,0.0,0.0,0.0,0.0,2.2722,2.0616,1.976,2.0284,1.9234,1.8064,0.0,0.0,0.0,0.0,0.0,0.0,0.0,0.0,0.0,0.0,0.0,0.0,0.0,0.0,0.0,0.0,0.0,0.0,0.0,0.0,0.0,0.0,0.0,0.0,0.0,0.0,0.0,0.0,0.0,0.0,0.0,0.0,0.0,0.0,0.0,0.0,0.0,0.0,0.0,0.0,0.0,0.0,0.0,0.0,0.0,0.0,0.0,0.0,0.0,0.0,0.0,0.0,0.0,0.0,0.0,0.0,0.0,0.0,0.0,0.0,0.0,0.0,0.0,0.0,0.0,0.0,0.0,0.0,0.0,0.0,0.0,0.0,0.0,0.0,0.0,0.0,0.0,0.0,0.0,0.0,0.0,0.0,0.0,0.0,0.0,0.0,0.0,0.0,0.0,0.0,0.0,0.0,0.0,0.0,0.0,0.0,0.0,0.0,0.0,0.0,0.0,0.0,0.0,0.0,0.0,0.0,0.0,0.0,0.0,1.6345,1.5488,1.5506,1.6461,1.5834,1.5053,1.4179,0.0,0.0,0.0,0.0,0.0,0.0,0.0,0.0,0.0,0.0,0.0,0.0,0.0,0.0,0.0,0.0,0.0,0.0,0.0,0.0,0.0,0.0,0.0,0.0,0.0,0.0,0.0,0.0,0.0,0.0,0.0,0.0,0.0,0.0,0.0,0.0,0.0,0.0,0.0,0.0,0.0,0.0,0.0,0.0,0.0,0.0,0.0,0.0,0.0,0.0,0.0,0.0,0.0,0.0,0.0,0.0,0.0,0.0,0.0,0.0,0.0,0.0,0.0,0.0,0.0,0.0,0.0,0.0,0.0,0.0,0.0,0.0,0.0,0.0,0.0,0.0,0.0,0.0,0.0,0.0,0.0,0.0,0.0,0.0,0.0,0.0,0.0,0.0,0.0,0.0,0.0,0.0,0.0,0.0,0.0,0.0,0.0,0.0,0.0,0.0,0.0,0.0,0.0,0.0,0.0,0.0,0.0,0.0,1.2061,1.2084,1.2535,1.3383,1.3208,1.2731,0.0,0.0,0.0,0.0,0.0,0.0,0.0,0.0,0.0,0.0,0.0,0.0,0.0,0.0,0.0,0.0,0.0,0.0,0.0,0.0,0.0,0.0,0.0,0.0,0.0,0.0,0.0,0.0,0.0,0.0,0.0,0.0,0.0,0.0,0.0,0.0,0.0,0.0,0.0,0.0,0.0,0.0,0.0,0.0,0.0,0.0,0.0,0.0,0.0,0.0,0.0,0.0,0.0,0.0,0.0,0.0,0.0,0.0,0.0,0.0,0.0,0.0,0.0,0.0,0.0,0.0,0.0,0.0,0.0,0.0,0.0,0.0,0.0,0.0,0.0,0.0,0.0,0.0,0.0,0.0,0.0,0.0,0.0,0.0,0.0,0.0,0.0,0.0,0.0,0.0,0.0,0.0,0.0,0.0,0.0,0.0,0.0,0.0,0.0,0.0,0.0,0.0,0.0,0.0,0.0,0.0,0.0,0.0,0.9338,1.026,1.0405,1.0764,1.1291,1.1411,1.1233,0.0,0.0,0.0,0.0,0.0,0.0,0.0,0.0,0.0,0.0,0.0,0.0,0.0,0.0,0.0,0.0,0.0,0.0,0.0,0.0,0.0,0.0,0.0,0.0,0.0,0.0,0.0,0.0,0.0,0.0,0.0,0.0,0.0,0.0,0.0,0.0,0.0,0.0,0.0,0.0,0.0,0.0,0.0,0.0,0.0,0.0,0.0,0.0,0.0,0.0,0.0,0.0,0.0,0.0,0.0,0.0,0.0,0.0,0.0,0.0,0.0,0.0,0.0,0.0,0.0,0.0,0.0,0.0,0.0,0.0,0.0,0.0,0.0,0.0,0.0,0.0,0.0,0.0,0.0,0.0,0.0,0.0,0.0,0.0,0.0,0.0,0.0,0.0,0.0,0.0,0.0,0.0,0.0,0.0,0.0,0.0,0.0,0.0,0.0,0.0,0.0,0.0,0.0,0.0,0.0,0.0,0.0,0.0,0.0,0.7675,0.0,0.8901,0.9431,0.956,0.9503,0.0,0.0,0.0,0.0,0.0,0.0,0.0,0.0,0.0,0.0,0.0,0.0,0.0,0.0,0.0,0.0,0.0,0.0,0.0,0.0,0.0,0.0,0.0,0.0,0.0,0.0,0.0,0.0,0.0,0.0,0.0,0.0,0.0,0.0,0.0,0.0,0.0,0.0,0.0,0.0,0.0,0.0,0.0,0.0,0.0,0.0,0.0,0.0,0.0,0.0,0.0,0.0,0.0,0.0,0.0,0.0,0.0,0.0,0.0,0.0,0.0,0.0,0.0,0.0,0.0,0.0,0.0,0.0,0.0,0.0,0.0,0.0,0.0,0.0,0.0,0.0,0.0,0.0,0.0,0.0,0.0,0.0,0.0,0.0,0.0,0.0,0.0,0.0,0.0,0.0,0.0,0.0,0.0,0.0,0.0,0.0,0.0,0.0,0.0,0.0,0.0,0.0,0.0,0.0,0.0,0.0,0.0,0.0,0.0,0.6487,0.735,0.7984,0.8196,0.8575,0.8662,0.0,0.0,0.0,0.0,0.0,0.0,0.0,0.0,0.0,0.0,0.0,0.0,0.0,0.0,0.0,0.0,0.0,0.0,0.0,0.0,0.0,0.0,0.0,0.0,0.0,0.0,0.0,0.0,0.0,0.0,0.0,0.0,0.0,0.0,0.0,0.0,0.0,0.0,0.0,0.0,0.0,0.0,0.0,0.0,0.0,0.0,0.0,0.0,0.0,0.0,0.0,0.0,0.0,0.0,0.0,0.0,0.0,0.0,0.0,0.0,0.0,0.0,0.0,0.0,0.0,0.0,0.0,0.0,0.0,0.0,0.0,0.0,0.0,0.0,0.0,0.0,0.0,0.0,0.0,0.0,0.0,0.0,0.0,0.0,0.0,0.0,0.0,0.0,0.0,0.0,0.0,0.0,0.0,0.0,0.0,0.0,0.0,0.0,0.0,0.0,0.0,0.0,0.0,0.0,0.0,0.0,0.0,0.0,0.0,0.6506,0.7424,0.7828,0.7614,0.8307,0.8586,0.0,0.0,0.0,0.0,0.0,0.0,0.0,0.0,0.0,0.0,0.0,0.0,0.0,0.0,0.0,0.0,0.0,0.0,0.0,0.0,0.0,0.0,0.0,0.0,0.0,0.0,0.0,0.0,0.0,0.0,0.0,0.0,0.0,0.0,0.0,0.0,0.0,0.0,0.0,0.0,0.0,0.0,0.0,0.0,0.0,0.0,0.0,0.0,0.0,0.0,0.0,0.0,0.0,0.0,0.0,0.0,0.0,0.0,0.0,0.0,0.0,0.0,0.0,0.0,0.0,0.0,0.0,0.0,0.0,0.0,0.0,0.0,0.0,0.0,0.0,0.0,0.0,0.0,0.0,0.0,0.0,0.0,0.0,0.0,0.0,0.0,0.0,0.0,0.0,0.0,0.0,0.0,0.0,0.0,0.0,0.0,0.0,0.0,0.0,0.0,0.0,0.0,0.0,0.0,0.0,0.0,0.0,0.0,0.0,0.0,0.7418,0.7571,0.7311,0.7708,0.8066,0.835,0.0,0.0,0.0,0.0,0.0,0.0,0.0,0.0,0.0,0.0,0.0,0.0,0.0,0.0,0.0,0.0,0.0,0.0,0.0,0.0,0.0,0.0,0.0,0.0,0.0,0.0,0.0,0.0,0.0,0.0,0.0,0.0,0.0,0.0,0.0,0.0,0.0,0.0,0.0,0.0,0.0,0.0,0.0,0.0,0.0,0.0,0.0,0.0,0.0,0.0,0.0,0.0,0.0,0.0,0.0,0.0,0.0,0.0,0.0,0.0,0.0,0.0,0.0,0.0,0.0,0.0,0.0,0.0,0.0,0.0,0.0,0.0,0.0,0.0,0.0,0.0,0.0,0.0,0.0,0.0,0.0,0.0,0.0,0.0,0.0,0.0,0.0,0.0,0.0,0.0,0.0,0.0,0.0,0.0,0.0,0.0,0.0,0.0,0.0,0.0,0.0,0.0,0.0,0.0,0.0,0.0,0.0,0.0,0.0,0.0,0.745,0.7182,0.7292,0.7668,0.0,0.0,0.0,0.0,0.0,0.0,0.0,0.0,0.0,0.0,0.0,0.0,0.0,0.0,0.0,0.0,0.0,0.0,0.0,0.0,0.0,0.0,0.0,0.0,0.0,0.0,0.0,0.0,0.0,0.0,0.0,0.0,0.0,0.0,0.0,0.0,0.0,0.0,0.0,0.0,0.0,0.0,0.0,0.0,0.0,0.0,0.0,0.0,0.0,0.0,0.0,0.0,0.0,0.0,0.0,0.0,0.0,0.0,0.0,0.0,0.0,0.0,0.0,0.0,0.0,0.0,0.0,0.0,0.0,0.0,0.0,0.0,0.0,0.0,0.0,0.0,0.0,0.0,0.0,0.0,0.0,0.0,0.0,0.0,0.0,0.0,0.0,0.0,0.0,0.0,0.0,0.0,0.0,0.0,0.0,0.0,0.0,0.0,0.0,0.0,0.0,0.0,0.0,0.0,0.0,0.0,0.0,0.0,0.0,0.0,0.0,0.7418,0.7193,0.7056,0.0,0.8224,0.0,0.0,0.0,0.0,0.0,0.0,0.0,0.0,0.0,0.0,0.0,0.0,0.0,0.0,0.0,0.0,0.0,0.0,0.0,0.0,0.0,0.0,0.0,0.0,0.0,0.0,0.0,0.0,0.0,0.0,0.0,0.0,0.0,0.0,0.0,0.0,0.0,0.0,0.0,0.0,0.0,0.0,0.0,0.0,0.0,0.0,0.0,0.0,0.0,0.0,0.0,0.0,0.0,0.0,0.0,0.0,0.0,0.0,0.0,0.0,0.0,0.0,0.0,0.0,0.0,0.0,0.0,0.0,0.0,0.0,0.0,0.0,0.0,0.0,0.0,0.0,0.0,0.0,0.0,0.0,0.0,0.0,0.0,0.0,0.0,0.0,0.0,0.0,0.0,0.0,0.0,0.0,0.0,0.0,0.0,0.0,0.0,0.0,0.0,0.0,0.0,0.0,0.0,0.0,0.0,0.0,0.0,0.0,0.0,0.0,0.0,0.0,0.7056,0.7228,0.7753,0.0,0.0,0.0,0.0,0.0,0.0,0.0,0.0,0.0,0.0,0.0,0.0,0.0,0.0,0.0,0.0,0.0,0.0,0.0,0.0,0.0,0.0,0.0,0.0,0.0,0.0,0.0,0.0,0.0,0.0,0.0,0.0,0.0,0.0,0.0,0.0,0.0,0.0,0.0,0.0,0.0,0.0,0.0,0.0,0.0,0.0,0.0,0.0,0.0,0.0,0.0,0.0,0.0,0.0,0.0,0.0,0.0,0.0,0.0,0.0,0.0,0.0,0.0,0.0,0.0,0.0,0.0,0.0,0.0,0.0,0.0,0.0,0.0,0.0,0.0,0.0,0.0,0.0,0.0,0.0,0.0,0.0,0.0,0.0,0.0,0.0,0.0,0.0,0.0,0.0,0.0,0.0,0.0,0.0,0.0,0.0,0.0,0.0,0.0,0.0,0.0,0.0,0.0,0.0,0.0,0.0,0.0,0.0,0.0,0.0,0.7182,0.7182,0.7056,0.7163,0.7571,0.0,0.0,0.0,0.0,0.0,0.0,0.0,0.0,0.0,0.0,0.0,0.0,0.0,0.0,0.0,0.0,0.0,0.0,0.0,0.0,0.0,0.0,0.0,0.0,0.0,0.0,0.0,0.0,0.0,0.0,0.0,0.0,0.0,0.0,0.0,0.0,0.0,0.0,0.0,0.0,0.0,0.0,0.0,0.0,0.0,0.0,0.0,0.0,0.0,0.0,0.0,0.0,0.0,0.0,0.0,0.0,0.0,0.0,0.0,0.0,0.0,0.0,0.0,0.0,0.0,0.0,0.0,0.0,0.0,0.0,0.0,0.0,0.0,0.0,0.0,0.0,0.0,0.0,0.0,0.0,0.0,0.0,0.0,0.0,0.0,0.0,0.0,0.0,0.0,0.0,0.0,0.0,0.0,0.0,0.0,0.0,0.0,0.0,0.0,0.0,0.0,0.0,0.0,0.0,0.0,0.0,0.0,0.0,0.0,0.0,0.7161,0.0,0.0,0.0,0.751,0.0,0.0,0.0,0.0,0.0,0.0,0.0,0.0,0.0,0.0,0.0,0.0,0.0,0.0,0.0,0.0,0.0,0.0,0.0,0.0,0.0,0.0,0.0,0.0,0.0,0.0,0.0,0.0,0.0,0.0,0.0,0.0,0.0,0.0,0.0,0.0,0.0,0.0,0.0,0.0,0.0,0.0,0.0,0.0,0.0,0.0,0.0,0.0,0.0,0.0,0.0,0.0,0.0,0.0,0.0,0.0,0.0,0.0,0.0,0.0,0.0,0.0,0.0,0.0,0.0,0.0,0.0,0.0,0.0,0.0,0.0,0.0,0.0,0.0,0.0,0.0,0.0,0.0,0.0,0.0,0.0,0.0,0.0,0.0,0.0,0.0,0.0,0.0,0.0,0.0,0.0,0.0,0.0,0.0,0.0,0.0,0.0,0.0,0.0,0.0,0.0,0.0,0.0,0.0,0.0,0.0,0.0,0.0,0.0,0.0,0.0,0.0,0.0,0.0,0.0,0.0,0.0,0.0,0.0,0.0,0.0,0.0,0.0,0.0,0.0,0.0,0.0,0.0,0.0,0.0,0.0,0.0,0.0,0.0,0.0,0.0,0.0,0.0,0.0,0.0,0.0,0.0,0.0,0.0,0.0,0.0,0.0,0.0,0.0,0.0,0.0,0.0,0.0,0.0,0.0,0.0,0.0,0.0,0.0,0.0,0.0,0.0,0.0,0.0,0.0,0.0,0.0,0.0,0.0,0.0,0.0,0.0,0.0,0.0,0.0,0.0,0.0,0.0,0.0,0.0,0.0,0.0,0.0,0.0,0.0,0.0,0.0,0.0,0.0,0.0,0.0,0.0,0.0,0.0,0.0,0.0,0.0,0.0,0.0,0.0,0.0,0.0,0.0,0.0,0.0,0.0,0.0,0.0,0.0,0.0,0.0,0.0,0.0,0.0,0.0,0.0,0.0,0.0,0.0,0.0,0.0,0.0,0.0,0.0,0.0,0.0,0.0,0.0,0.0,0.0,0.0,0.0,0.0,0.0,0.0,0.0,0.0,0.0,0.0,0.0,0.0,0.0,0.0,0.0,0.0,0.0,0.0,0.0,0.0,0.0,0.0,0.0,0.0,0.0,0.0,0.0,0.0,0.0,0.0,0.0,0.0,0.0,0.0,0.0,0.0,0.0,0.0,0.0,0.0,0.0,0.0,0.0,0.0,0.0,0.0,0.0,0.0,0.0,0.0,0.0,0.0,0.0,0.0,0.0,0.0,0.0,0.0,0.0,0.0,0.0,0.0,0.0,0.0,0.0,0.0,0.0,0.0,0.0,0.0,0.0,0.0,0.0,0.0,0.0,0.0,0.0,0.0,0.0,0.0,0.0,0.0,0.0,0.0,0.0,0.0,0.0,0.0,0.0,0.0,0.0,0.0,0.0,0.0,0.0,0.0,0.0,0.0,0.0,0.0,0.0,0.0,0.0,0.0,0.0,0.0,0.0,0.0,0.0,0.0,0.0,0.0,0.0,0.0,0.0,0.0,0.0,0.0,0.0,0.0,0.0,0.0,0.0,0.0,0.0,0.0,0.0,0.0,0.0,0.0,0.0,0.0,0.0,0.0,0.0,0.0,0.0,0.0,0.0,0.0,0.0,0.0,0.0,0.0,0.0,0.0,0.0,0.0,0.0,0.0,0.0,0.0,0.0,0.0,0.0,0.0,0.0,0.0,0.0,0.0,0.0,0.0,0.0,0.0,0.0,0.0,0.0,0.0,0.0,0.0,0.0,0.0,0.0,0.0,0.0,0.0,0.0,0.0,0.0,0.0,0.0,0.0,0.0,0.0,0.0,0.0,0.0,0.0,0.0,0.0,0.0,0.0,0.0,0.0,0.0,0.0,0.0,0.0,0.0,0.0,0.0,0.0,0.0,0.0,0.0,0.0,0.0,0.0,0.0,0.0,0.0,0.0,0.0,0.0,0.0,0.0,0.0,0.0,0.0,0.0,0.0,0.0,0.0,0.0,0.0,0.0,0.0,0.0,0.0,0.0,0.0,0.0,0.0,0.0,0.0,0.0,0.0,0.0,0.0,0.0,0.0,0.0,0.0,0.0,0.0,0.0,0.0,0.0,0.0,0.0,0.0,0.0,0.0,0.0,0.0,0.0,0.0,0.0,0.0,0.0,0.0,0.0,0.0,0.0,0.0,0.0,0.0,0.0,0.0,0.0,0.0,0.0,0.0,0.0,0.0,0.0,0.0,0.0,0.0,0.0,0.0,0.0,0.0,0.0,0.0,0.0,0.0,0.0,0.0,0.0,0.0,0.0,0.0,0.0,0.0,0.0,0.0,0.0,0.0,0.0,0.0,0.0,0.0,0.0,0.0,0.0,0.0,0.0,0.0,0.0,0.0,0.0,0.0,0.0,0.0,0.0,0.0,0.0,0.0,0.0,0.0,0.0,0.0,0.0,0.0,0.0,0.0,0.0,0.0,0.0,0.0,0.0,0.0,0.0,0.0,0.0,0.0,0.0,0.0,0.0,0.0,0.0,0.0,0.0,0.0,0.0,0.0,0.0,0.0,0.0,0.0,0.0,0.0,0.0,0.0,0.0,0.0,0.0,0.0,0.0,0.0,0.0,0.0,0.0,0.0,0.0,0.0,0.0,0.0,0.0,0.0,0.0,0.0,0.0,0.0,0.0,0.0,0.0,0.0,0.0,0.0,0.0,0.0,0.0,0.0,0.0,0.0,0.0,0.0,0.0,0.0,0.0,0.0,0.0,0.0,0.0,0.0,0.0,0.0,0.0,0.0,0.0,0.0,0.0,0.0,0.0,0.0,0.0,0.0,0.0,0.0,0.0,0.0,0.0,0.0,0.0,0.0,0.0,0.0,0.0,0.0,0.0,0.0,0.0,0.0,0.0,0.0,0.0,0.0,0.0,0.0,0.0,0.0,0.0,0.0,0.0,0.0,0.0,0.0,0.0,0.0,0.0,0.0,0.0,0.0,0.0,0.0,0.0,0.0,0.0,0.0,0.0,0.0,0.0,0.0,0.0,0.0,0.0,0.0,0.0,0.0,0.0,0.0,0.0,0.0,0.0,0.0,0.0,0.0,0.0,0.0,0.0,0.0,0.0,0.0,0.0,0.0,0.0,0.0,0.0,0.0,0.0,0.0,0.0,0.0,0.0,0.0,0.0,0.0,0.0,0.0,0.0,0.0,0.0,0.0,0.0,0.0,0.0,0.0,0.0,0.0,0.0,0.0,0.0,0.0,0.0,0.0,0.0,0.0,0.0,0.0,0.0,0.0,0.0,0.0,0.0,0.0,0.0,0.0,0.0,0.0,0.0,0.0,0.0,0.0,0.0,0.0,0.0,0.0,0.0,0.0,0.0,0.0,0.0,0.0,0.0,0.0,0.0,0.0,0.0,0.0,0.0,0.0,0.0,0.0,0.0,0.0,0.0,0.0,0.0,0.0,0.0,0.0,0.0,0.0,0.0,0.0,0.0,0.0,0.0,0.0,0.0,0.0,0.0,0.0,0.0,0.0,0.0,0.0,0.0,0.0,0.0,0.0,0.0,0.0,0.0,0.0,0.0,0.0,0.0,0.0,0.0,0.0,0.0,0.0,0.0,0.0,0.0,0.0,0.0,0.0,0.0,0.0,0.0,0.0,0.0,0.0,0.0,0.0,0.0,0.0,0.0,0.0,0.0,0.0,0.0,0.0,0.0,0.0,0.0,0.0,0.0,0.0,0.0,0.0,0.0,0.0,0.0,0.0,0.0,0.0,0.0,0.0,0.0,0.0,0.0,0.0,0.0,0.0,0.0,0.0,0.0,0.0,0.0,0.0,0.0,0.0,0.0,0.0,0.0,0.0,0.0,0.0,0.0,0.0,0.0,0.0,0.0,0.0,0.0,0.0,0.0,0.0,0.0,0.0,0.0,0.0,0.0,0.0,0.0,0.0,0.0,0.0,0.0,0.0,0.0,0.0,0.0,0.0,0.0,0.0,0.0,0.0,0.0,0.0,0.0,0.0,0.0,0.0,0.0,0.0,0.0,0.0,0.0,0.0,0.0,0.0,0.0,0.0,0.0,0.0,0.0,0.0,0.0,0.0,0.0,0.0,0.0,0.0,0.0,0.0,0.0,0.0,0.0,0.0,0.0,0.0,0.0,0.0,0.0,0.0,0.0,0.0,0.0,0.0,0.0,0.0,0.0,0.0,0.0,0.0,0.0,0.0,0.0,0.0,0.0,0.0,0.0,0.0,0.0,0.0,0.0,0.0,0.0,0.0,0.0,0.0,0.0,0.0,0.0,0.0,0.0,0.0,0.0,0.0,0.0,0.0,0.0,0.0,0.0,0.0,0.0,0.0,0.0,0.0,0.0,0.0,0.0,0.0]}]]]